Wetterdaten: Freitag, 26.02.2016
Datum Zeit Temp. A. Feuchte A. Luftdruck Regen Wind Richtung Richtung Sonnenschein ET UV Solar Taupunkt Windchill Windben Empfang
26.02.2016 00:00 1,4 C 89 % 1014,4 hPa 0,0 l/m 6,1 km/h (2 Bft) S 177 0 min 0,000 mm 0,0 UV-I 0 W/m -0,2 C 1,4 C 9,7 km/h (2 Bft) 100,00 %
26.02.2016 00:02 1,4 C 89 % 1014,4 hPa 0,0 l/m 4,3 km/h (1 Bft) W 270 0 min 0,000 mm 0,0 UV-I 0 W/m -0,2 C 1,4 C 9,7 km/h (2 Bft) 95,65 %
26.02.2016 00:03 1,4 C 89 % 1014,4 hPa 0,0 l/m 4,9 km/h (1 Bft) SW 224 0 min 0,000 mm 0,0 UV-I 0 W/m -0,2 C 1,4 C 8,0 km/h (2 Bft) 100,00 %
26.02.2016 00:04 1,3 C 89 % 1014,4 hPa 0,0 l/m 5,8 km/h (2 Bft) SW 236 0 min 0,000 mm 0,0 UV-I 0 W/m -0,3 C 1,3 C 8,0 km/h (2 Bft) 100,00 %
26.02.2016 00:05 1,3 C 89 % 1014,4 hPa 0,0 l/m 4,7 km/h (1 Bft) SW 229 0 min 0,000 mm 0,0 UV-I 0 W/m -0,3 C 1,3 C 6,4 km/h (2 Bft) 100,00 %
26.02.2016 00:06 1,3 C 90 % 1014,4 hPa 0,0 l/m 6,0 km/h (2 Bft) SW 223 0 min 0,000 mm 0,0 UV-I 0 W/m -0,2 C 1,3 C 9,7 km/h (2 Bft) 100,00 %
26.02.2016 00:07 1,3 C 90 % 1014,4 hPa 0,0 l/m 4,2 km/h (1 Bft) SW 236 0 min 0,000 mm 0,0 UV-I 0 W/m -0,2 C 1,3 C 6,4 km/h (2 Bft) 100,00 %
26.02.2016 00:08 1,3 C 89 % 1014,4 hPa 0,0 l/m 6,3 km/h (2 Bft) SW 227 0 min 0,000 mm 0,0 UV-I 0 W/m -0,3 C 1,3 C 8,0 km/h (2 Bft) 100,00 %
26.02.2016 00:09 1,3 C 90 % 1014,4 hPa 0,0 l/m 4,8 km/h (1 Bft) S-SW 208 0 min 0,000 mm 0,0 UV-I 0 W/m -0,2 C 1,3 C 8,0 km/h (2 Bft) 100,00 %
26.02.2016 00:10 1,3 C 90 % 1014,4 hPa 0,0 l/m 6,0 km/h (2 Bft) SW 229 0 min 0,000 mm 0,0 UV-I 0 W/m -0,2 C 1,3 C 9,7 km/h (2 Bft) 95,83 %
26.02.2016 00:11 1,3 C 90 % 1014,4 hPa 0,0 l/m 5,4 km/h (1 Bft) SW 228 0 min 0,000 mm 0,0 UV-I 0 W/m -0,2 C 1,3 C 6,4 km/h (2 Bft) 95,65 %
26.02.2016 00:12 1,3 C 90 % 1014,4 hPa 0,0 l/m 6,0 km/h (2 Bft) SW 218 0 min 0,000 mm 0,0 UV-I 0 W/m -0,2 C 1,3 C 8,0 km/h (2 Bft) 100,00 %
26.02.2016 00:13 1,2 C 90 % 1014,4 hPa 0,0 l/m 6,0 km/h (2 Bft) SW 231 0 min 0,000 mm 0,0 UV-I 0 W/m -0,3 C 1,2 C 8,0 km/h (2 Bft) 95,65 %
26.02.2016 00:14 1,3 C 90 % 1014,4 hPa 0,0 l/m 4,8 km/h (1 Bft) SW 234 0 min 0,000 mm 0,0 UV-I 0 W/m -0,2 C 1,3 C 6,4 km/h (2 Bft) 100,00 %
26.02.2016 00:15 1,3 C 90 % 1014,4 hPa 0,0 l/m 3,4 km/h (1 Bft) SW 232 0 min 0,000 mm 0,0 UV-I 0 W/m -0,2 C 1,3 C 6,4 km/h (2 Bft) 100,00 %
26.02.2016 00:16 1,3 C 90 % 1014,4 hPa 0,0 l/m 3,9 km/h (1 Bft) SW 214 0 min 0,000 mm 0,0 UV-I 0 W/m -0,2 C 1,3 C 6,4 km/h (2 Bft) 100,00 %
26.02.2016 00:17 1,3 C 90 % 1014,3 hPa 0,0 l/m 4,6 km/h (1 Bft) S-SW 213 0 min 0,000 mm 0,0 UV-I 0 W/m -0,2 C 1,3 C 6,4 km/h (2 Bft) 100,00 %
26.02.2016 00:18 1,3 C 90 % 1014,4 hPa 0,0 l/m 5,0 km/h (1 Bft) W-SW 250 0 min 0,000 mm 0,0 UV-I 0 W/m -0,2 C 1,3 C 6,4 km/h (2 Bft) 100,00 %
26.02.2016 00:19 1,3 C 90 % 1014,4 hPa 0,0 l/m 4,0 km/h (1 Bft) SW 236 0 min 0,000 mm 0,0 UV-I 0 W/m -0,2 C 1,3 C 4,8 km/h (1 Bft) 100,00 %
26.02.2016 00:20 1,3 C 90 % 1014,4 hPa 0,0 l/m 6,3 km/h (2 Bft) W-SW 240 0 min 0,000 mm 0,0 UV-I 0 W/m -0,2 C 1,3 C 6,4 km/h (2 Bft) 100,00 %
26.02.2016 00:21 1,3 C 90 % 1014,4 hPa 0,0 l/m 4,1 km/h (1 Bft) SW 224 0 min 0,000 mm 0,0 UV-I 0 W/m -0,2 C 1,3 C 4,8 km/h (1 Bft) 100,00 %
26.02.2016 00:22 1,3 C 90 % 1014,4 hPa 0,0 l/m 4,2 km/h (1 Bft) SW 234 0 min 0,000 mm 0,0 UV-I 0 W/m -0,2 C 1,3 C 6,4 km/h (2 Bft) 100,00 %
26.02.2016 00:23 1,3 C 90 % 1014,4 hPa 0,0 l/m 5,5 km/h (1 Bft) SW 234 0 min 0,000 mm 0,0 UV-I 0 W/m -0,2 C 1,3 C 8,0 km/h (2 Bft) 100,00 %
26.02.2016 00:24 1,3 C 90 % 1014,4 hPa 0,0 l/m 5,0 km/h (1 Bft) SW 229 0 min 0,000 mm 0,0 UV-I 0 W/m -0,2 C 1,3 C 6,4 km/h (2 Bft) 95,83 %
26.02.2016 00:25 1,3 C 90 % 1014,4 hPa 0,0 l/m 4,0 km/h (1 Bft) W-SW 238 0 min 0,000 mm 0,0 UV-I 0 W/m -0,2 C 1,3 C 8,0 km/h (2 Bft) 100,00 %
26.02.2016 00:26 1,3 C 90 % 1014,4 hPa 0,0 l/m 6,2 km/h (2 Bft) SW 236 0 min 0,000 mm 0,0 UV-I 0 W/m -0,2 C 1,3 C 8,0 km/h (2 Bft) 100,00 %
26.02.2016 00:27 1,2 C 90 % 1014,4 hPa 0,0 l/m 4,8 km/h (1 Bft) W-SW 237 0 min 0,000 mm 0,0 UV-I 0 W/m -0,3 C 1,2 C 6,4 km/h (2 Bft) 100,00 %
26.02.2016 00:28 1,2 C 90 % 1014,4 hPa 0,0 l/m 6,0 km/h (2 Bft) SW 221 0 min 0,000 mm 0,0 UV-I 0 W/m -0,3 C 1,2 C 8,0 km/h (2 Bft) 100,00 %
26.02.2016 00:29 1,2 C 90 % 1014,4 hPa 0,0 l/m 6,9 km/h (2 Bft) SW 235 0 min 0,000 mm 0,0 UV-I 0 W/m -0,3 C 0,7 C 8,0 km/h (2 Bft) 100,00 %
26.02.2016 00:30 1,2 C 90 % 1014,4 hPa 0,0 l/m 6,2 km/h (2 Bft) SW 232 0 min 0,000 mm 0,0 UV-I 0 W/m -0,3 C 1,2 C 8,0 km/h (2 Bft) 100,00 %
26.02.2016 00:31 1,2 C 90 % 1014,4 hPa 0,0 l/m 6,4 km/h (2 Bft) SW 234 0 min 0,000 mm 0,0 UV-I 0 W/m -0,3 C 1,2 C 8,0 km/h (2 Bft) 100,00 %
26.02.2016 00:32 1,2 C 90 % 1014,4 hPa 0,0 l/m 4,6 km/h (1 Bft) SW 232 0 min 0,000 mm 0,0 UV-I 0 W/m -0,3 C 1,2 C 6,4 km/h (2 Bft) 100,00 %
26.02.2016 00:33 1,2 C 90 % 1014,4 hPa 0,0 l/m 4,5 km/h (1 Bft) W-SW 238 0 min 0,000 mm 0,0 UV-I 0 W/m -0,3 C 1,2 C 6,4 km/h (2 Bft) 96,30 %
26.02.2016 00:34 1,2 C 90 % 1014,4 hPa 0,0 l/m 4,8 km/h (1 Bft) S 184 0 min 0,000 mm 0,0 UV-I 0 W/m -0,3 C 1,2 C 6,4 km/h (2 Bft) 95,65 %
26.02.2016 00:35 1,2 C 90 % 1014,4 hPa 0,0 l/m 7,2 km/h (2 Bft) SW 215 0 min 0,000 mm 0,0 UV-I 0 W/m -0,3 C 0,4 C 9,7 km/h (2 Bft) 100,00 %
26.02.2016 00:36 1,2 C 90 % 1014,4 hPa 0,0 l/m 6,1 km/h (2 Bft) SW 220 0 min 0,000 mm 0,0 UV-I 0 W/m -0,3 C 1,2 C 8,0 km/h (2 Bft) 100,00 %
26.02.2016 00:37 1,2 C 90 % 1014,4 hPa 0,0 l/m 6,7 km/h (2 Bft) S-SW 196 0 min 0,000 mm 0,0 UV-I 0 W/m -0,3 C 0,9 C 9,7 km/h (2 Bft) 100,00 %
26.02.2016 00:38 1,2 C 90 % 1014,4 hPa 0,0 l/m 5,8 km/h (2 Bft) S-SW 196 0 min 0,000 mm 0,0 UV-I 0 W/m -0,3 C 1,2 C 8,0 km/h (2 Bft) 100,00 %
26.02.2016 00:39 1,2 C 90 % 1014,5 hPa 0,0 l/m 8,4 km/h (2 Bft) S-SW 210 0 min 0,000 mm 0,0 UV-I 0 W/m -0,3 C -0,8 C 11,3 km/h (2 Bft) 100,00 %
26.02.2016 00:40 1,2 C 90 % 1014,4 hPa 0,0 l/m 6,4 km/h (2 Bft) S-SW 205 0 min 0,000 mm 0,0 UV-I 0 W/m -0,3 C 1,2 C 8,0 km/h (2 Bft) 100,00 %
26.02.2016 00:41 1,2 C 90 % 1014,4 hPa 0,0 l/m 4,9 km/h (1 Bft) S-SW 200 0 min 0,000 mm 0,0 UV-I 0 W/m -0,3 C 1,2 C 6,4 km/h (2 Bft) 100,00 %
26.02.2016 00:42 1,2 C 90 % 1014,5 hPa 0,0 l/m 6,0 km/h (2 Bft) S-SW 200 0 min 0,000 mm 0,0 UV-I 0 W/m -0,3 C 1,2 C 11,3 km/h (2 Bft) 100,00 %
26.02.2016 00:43 1,2 C 90 % 1014,5 hPa 0,0 l/m 6,0 km/h (2 Bft) S-SW 205 0 min 0,000 mm 0,0 UV-I 0 W/m -0,3 C 1,2 C 8,0 km/h (2 Bft) 100,00 %
26.02.2016 00:44 1,2 C 90 % 1014,5 hPa 0,0 l/m 6,4 km/h (2 Bft) S-SW 209 0 min 0,000 mm 0,0 UV-I 0 W/m -0,3 C 1,2 C 9,7 km/h (2 Bft) 100,00 %
26.02.2016 00:45 1,2 C 90 % 1014,5 hPa 0,0 l/m 5,8 km/h (2 Bft) S-SW 209 0 min 0,000 mm 0,0 UV-I 0 W/m -0,3 C 1,2 C 8,0 km/h (2 Bft) 100,00 %
26.02.2016 00:46 1,2 C 90 % 1014,5 hPa 0,0 l/m 6,3 km/h (2 Bft) S 189 0 min 0,000 mm 0,0 UV-I 0 W/m -0,3 C 1,2 C 8,0 km/h (2 Bft) 91,30 %
26.02.2016 00:47 1,2 C 90 % 1014,5 hPa 0,0 l/m 6,8 km/h (2 Bft) S-SW 197 0 min 0,000 mm 0,0 UV-I 0 W/m -0,3 C 0,8 C 8,0 km/h (2 Bft) 100,00 %
26.02.2016 00:48 1,2 C 90 % 1014,5 hPa 0,0 l/m 7,3 km/h (2 Bft) S-SW 199 0 min 0,000 mm 0,0 UV-I 0 W/m -0,3 C 0,3 C 9,7 km/h (2 Bft) 100,00 %
26.02.2016 00:49 1,2 C 90 % 1014,5 hPa 0,0 l/m 6,3 km/h (2 Bft) S-SW 205 0 min 0,000 mm 0,0 UV-I 0 W/m -0,3 C 1,2 C 9,7 km/h (2 Bft) 100,00 %
26.02.2016 00:50 1,2 C 89 % 1014,5 hPa 0,0 l/m 5,8 km/h (2 Bft) S-SW 200 0 min 0,000 mm 0,0 UV-I 0 W/m -0,4 C 1,2 C 8,0 km/h (2 Bft) 95,83 %
26.02.2016 00:51 1,2 C 89 % 1014,5 hPa 0,0 l/m 5,6 km/h (1 Bft) S 186 0 min 0,000 mm 0,0 UV-I 0 W/m -0,4 C 1,2 C 6,4 km/h (2 Bft) 100,00 %
26.02.2016 00:52 1,2 C 89 % 1014,5 hPa 0,0 l/m 6,3 km/h (2 Bft) S 186 0 min 0,000 mm 0,0 UV-I 0 W/m -0,4 C 1,2 C 8,0 km/h (2 Bft) 100,00 %
26.02.2016 00:53 1,2 C 89 % 1014,5 hPa 0,0 l/m 6,8 km/h (2 Bft) S-SW 194 0 min 0,000 mm 0,0 UV-I 0 W/m -0,4 C 0,8 C 8,0 km/h (2 Bft) 100,00 %
26.02.2016 00:54 1,2 C 89 % 1014,5 hPa 0,0 l/m 5,8 km/h (2 Bft) S-SW 193 0 min 0,000 mm 0,0 UV-I 0 W/m -0,4 C 1,2 C 6,4 km/h (2 Bft) 100,00 %
26.02.2016 00:55 1,2 C 89 % 1014,5 hPa 0,0 l/m 3,6 km/h (1 Bft) SW 221 0 min 0,000 mm 0,0 UV-I 0 W/m -0,4 C 1,2 C 4,8 km/h (1 Bft) 100,00 %
26.02.2016 00:56 1,2 C 89 % 1014,5 hPa 0,0 l/m 5,3 km/h (1 Bft) SW 217 0 min 0,000 mm 0,0 UV-I 0 W/m -0,4 C 1,2 C 8,0 km/h (2 Bft) 100,00 %
26.02.2016 00:57 1,2 C 89 % 1014,5 hPa 0,0 l/m 5,2 km/h (1 Bft) S-SW 212 0 min 0,000 mm 0,0 UV-I 0 W/m -0,4 C 1,2 C 8,0 km/h (2 Bft) 100,00 %
26.02.2016 00:58 1,2 C 89 % 1014,6 hPa 0,0 l/m 4,3 km/h (1 Bft) W-SW 238 0 min 0,000 mm 0,0 UV-I 0 W/m -0,4 C 1,2 C 6,4 km/h (2 Bft) 100,00 %
26.02.2016 00:59 1,2 C 89 % 1014,6 hPa 0,0 l/m 4,6 km/h (1 Bft) W-SW 238 0 min 0,000 mm 0,0 UV-I 0 W/m -0,4 C 1,2 C 6,4 km/h (2 Bft) 100,00 %
26.02.2016 01:00 1,2 C 89 % 1014,6 hPa 0,0 l/m 3,7 km/h (1 Bft) SW 225 0 min 0,000 mm 0,0 UV-I 0 W/m -0,4 C 1,2 C 6,4 km/h (2 Bft) 100,00 %
26.02.2016 01:01 1,2 C 89 % 1014,5 hPa 0,0 l/m 4,0 km/h (1 Bft) SW 225 0 min 0,000 mm 0,0 UV-I 0 W/m -0,4 C 1,2 C 4,8 km/h (1 Bft) 100,00 %
26.02.2016 01:02 1,2 C 89 % 1014,6 hPa 0,0 l/m 2,7 km/h (1 Bft) SW 225 0 min 0,000 mm 0,0 UV-I 0 W/m -0,4 C 1,2 C 3,2 km/h (1 Bft) 100,00 %
26.02.2016 01:03 1,2 C 89 % 1014,6 hPa 0,0 l/m 3,2 km/h (1 Bft) SW 225 0 min 0,000 mm 0,0 UV-I 0 W/m -0,4 C 1,2 C 4,8 km/h (1 Bft) 100,00 %
26.02.2016 01:04 1,2 C 89 % 1014,6 hPa 0,0 l/m 5,7 km/h (1 Bft) SW 231 0 min 0,000 mm 0,0 UV-I 0 W/m -0,4 C 1,2 C 6,4 km/h (2 Bft) 95,83 %
26.02.2016 01:05 1,2 C 89 % 1014,6 hPa 0,0 l/m 4,2 km/h (1 Bft) SW 231 0 min 0,000 mm 0,0 UV-I 0 W/m -0,4 C 1,2 C 6,4 km/h (2 Bft) 100,00 %
26.02.2016 01:06 1,2 C 89 % 1014,6 hPa 0,0 l/m 5,1 km/h (1 Bft) SW 232 0 min 0,000 mm 0,0 UV-I 0 W/m -0,4 C 1,2 C 8,0 km/h (2 Bft) 100,00 %
26.02.2016 01:07 1,2 C 89 % 1014,6 hPa 0,0 l/m 5,3 km/h (1 Bft) SW 220 0 min 0,000 mm 0,0 UV-I 0 W/m -0,4 C 1,2 C 6,4 km/h (2 Bft) 100,00 %
26.02.2016 01:08 1,2 C 89 % 1014,6 hPa 0,0 l/m 4,9 km/h (1 Bft) SW 218 0 min 0,000 mm 0,0 UV-I 0 W/m -0,4 C 1,2 C 6,4 km/h (2 Bft) 100,00 %
26.02.2016 01:09 1,2 C 90 % 1014,6 hPa 0,0 l/m 5,5 km/h (1 Bft) SW 234 0 min 0,000 mm 0,0 UV-I 0 W/m -0,3 C 1,2 C 6,4 km/h (2 Bft) 100,00 %
26.02.2016 01:10 1,1 C 90 % 1014,6 hPa 0,0 l/m 5,4 km/h (1 Bft) SW 234 0 min 0,000 mm 0,0 UV-I 0 W/m -0,4 C 1,1 C 6,4 km/h (2 Bft) 100,00 %
26.02.2016 01:11 1,1 C 90 % 1014,6 hPa 0,0 l/m 6,0 km/h (2 Bft) SW 224 0 min 0,000 mm 0,0 UV-I 0 W/m -0,4 C 1,1 C 8,0 km/h (2 Bft) 100,00 %
26.02.2016 01:12 1,1 C 90 % 1014,6 hPa 0,0 l/m 6,5 km/h (2 Bft) SW 236 0 min 0,000 mm 0,0 UV-I 0 W/m -0,4 C 1,0 C 8,0 km/h (2 Bft) 96,15 %
26.02.2016 01:13 1,1 C 90 % 1014,6 hPa 0,0 l/m 7,1 km/h (2 Bft) S-SW 195 0 min 0,000 mm 0,0 UV-I 0 W/m -0,4 C 0,4 C 11,3 km/h (2 Bft) 100,00 %
26.02.2016 01:14 1,1 C 90 % 1014,6 hPa 0,0 l/m 6,0 km/h (2 Bft) S-SW 207 0 min 0,000 mm 0,0 UV-I 0 W/m -0,4 C 1,1 C 9,7 km/h (2 Bft) 100,00 %
26.02.2016 01:15 1,1 C 90 % 1014,6 hPa 0,0 l/m 4,5 km/h (1 Bft) SW 223 0 min 0,000 mm 0,0 UV-I 0 W/m -0,4 C 1,1 C 6,4 km/h (2 Bft) 100,00 %
26.02.2016 01:16 1,1 C 90 % 1014,7 hPa 0,0 l/m 5,6 km/h (1 Bft) SW 232 0 min 0,000 mm 0,0 UV-I 0 W/m -0,4 C 1,1 C 6,4 km/h (2 Bft) 100,00 %
26.02.2016 01:17 1,1 C 90 % 1014,7 hPa 0,0 l/m 6,4 km/h (2 Bft) W-SW 240 0 min 0,000 mm 0,0 UV-I 0 W/m -0,4 C 1,1 C 9,7 km/h (2 Bft) 100,00 %
26.02.2016 01:18 1,1 C 90 % 1014,6 hPa 0,0 l/m 6,4 km/h (2 Bft) W-SW 242 0 min 0,000 mm 0,0 UV-I 0 W/m -0,4 C 1,1 C 8,0 km/h (2 Bft) 100,00 %
26.02.2016 01:19 1,1 C 90 % 1014,6 hPa 0,0 l/m 7,8 km/h (2 Bft) S-SW 202 0 min 0,000 mm 0,0 UV-I 0 W/m -0,4 C -0,3 C 11,3 km/h (2 Bft) 100,00 %
26.02.2016 01:20 1,1 C 90 % 1014,6 hPa 0,0 l/m 4,9 km/h (1 Bft) SW 229 0 min 0,000 mm 0,0 UV-I 0 W/m -0,4 C 1,1 C 6,4 km/h (2 Bft) 95,65 %
26.02.2016 01:21 1,1 C 90 % 1014,6 hPa 0,0 l/m 7,6 km/h (2 Bft) SW 229 0 min 0,000 mm 0,0 UV-I 0 W/m -0,4 C -0,1 C 9,7 km/h (2 Bft) 100,00 %
26.02.2016 01:22 1,1 C 90 % 1014,6 hPa 0,0 l/m 7,3 km/h (2 Bft) SW 225 0 min 0,000 mm 0,0 UV-I 0 W/m -0,4 C 0,2 C 9,7 km/h (2 Bft) 100,00 %
26.02.2016 01:23 1,1 C 90 % 1014,6 hPa 0,0 l/m 8,7 km/h (2 Bft) SW 221 0 min 0,000 mm 0,0 UV-I 0 W/m -0,4 C -1,1 C 11,3 km/h (2 Bft) 100,00 %
26.02.2016 01:24 1,1 C 90 % 1014,6 hPa 0,0 l/m 8,6 km/h (2 Bft) W-SW 240 0 min 0,000 mm 0,0 UV-I 0 W/m -0,4 C -1,0 C 14,5 km/h (3 Bft) 100,00 %
26.02.2016 01:25 1,1 C 90 % 1014,6 hPa 0,0 l/m 9,3 km/h (2 Bft) SW 225 0 min 0,000 mm 0,0 UV-I 0 W/m -0,4 C -1,7 C 12,9 km/h (3 Bft) 100,00 %
26.02.2016 01:26 1,1 C 90 % 1014,6 hPa 0,0 l/m 7,2 km/h (2 Bft) S-SW 213 0 min 0,000 mm 0,0 UV-I 0 W/m -0,4 C 0,3 C 11,3 km/h (2 Bft) 95,65 %
26.02.2016 01:27 1,1 C 90 % 1014,6 hPa 0,0 l/m 6,6 km/h (2 Bft) W-SW 243 0 min 0,000 mm 0,0 UV-I 0 W/m -0,4 C 0,9 C 9,7 km/h (2 Bft) 91,67 %
26.02.2016 01:28 1,1 C 90 % 1014,6 hPa 0,0 l/m 7,3 km/h (2 Bft) SW 227 0 min 0,000 mm 0,0 UV-I 0 W/m -0,4 C 0,2 C 11,3 km/h (2 Bft) 100,00 %
26.02.2016 01:29 1,1 C 90 % 1014,6 hPa 0,0 l/m 6,2 km/h (2 Bft) SW 219 0 min 0,000 mm 0,0 UV-I 0 W/m -0,4 C 1,1 C 8,0 km/h (2 Bft) 95,83 %
26.02.2016 01:30 1,1 C 90 % 1014,6 hPa 0,0 l/m 6,3 km/h (2 Bft) SW 234 0 min 0,000 mm 0,0 UV-I 0 W/m -0,4 C 1,1 C 8,0 km/h (2 Bft) 100,00 %
26.02.2016 01:31 1,1 C 90 % 1014,6 hPa 0,0 l/m 6,0 km/h (2 Bft) SW 236 0 min 0,000 mm 0,0 UV-I 0 W/m -0,4 C 1,1 C 8,0 km/h (2 Bft) 95,65 %
26.02.2016 01:32 1,1 C 90 % 1014,6 hPa 0,0 l/m 4,8 km/h (1 Bft) W 261 0 min 0,000 mm 0,0 UV-I 0 W/m -0,4 C 1,1 C 6,4 km/h (2 Bft) 95,83 %
26.02.2016 01:33 1,1 C 90 % 1014,6 hPa 0,0 l/m 6,8 km/h (2 Bft) SW 232 0 min 0,000 mm 0,0 UV-I 0 W/m -0,4 C 0,7 C 8,0 km/h (2 Bft) 95,65 %
26.02.2016 01:34 1,1 C 90 % 1014,6 hPa 0,0 l/m 7,5 km/h (2 Bft) SW 219 0 min 0,000 mm 0,0 UV-I 0 W/m -0,4 C -0,0 C 9,7 km/h (2 Bft) 95,83 %
26.02.2016 01:35 1,1 C 90 % 1014,6 hPa 0,0 l/m 7,0 km/h (2 Bft) W-SW 245 0 min 0,000 mm 0,0 UV-I 0 W/m -0,4 C 0,5 C 8,0 km/h (2 Bft) 100,00 %
26.02.2016 01:36 1,1 C 90 % 1014,6 hPa 0,0 l/m 5,8 km/h (2 Bft) W-SW 243 0 min 0,000 mm 0,0 UV-I 0 W/m -0,4 C 1,1 C 8,0 km/h (2 Bft) 95,83 %
26.02.2016 01:37 1,1 C 90 % 1014,6 hPa 0,0 l/m 5,0 km/h (1 Bft) SW 227 0 min 0,000 mm 0,0 UV-I 0 W/m -0,4 C 1,1 C 6,4 km/h (2 Bft) 100,00 %
26.02.2016 01:38 1,1 C 90 % 1014,6 hPa 0,0 l/m 7,0 km/h (2 Bft) W-SW 238 0 min 0,000 mm 0,0 UV-I 0 W/m -0,4 C 0,5 C 9,7 km/h (2 Bft) 96,30 %
26.02.2016 01:39 1,1 C 90 % 1014,6 hPa 0,0 l/m 6,3 km/h (2 Bft) SW 236 0 min 0,000 mm 0,0 UV-I 0 W/m -0,4 C 1,1 C 8,0 km/h (2 Bft) 100,00 %
26.02.2016 01:40 1,1 C 90 % 1014,6 hPa 0,0 l/m 6,4 km/h (2 Bft) SW 225 0 min 0,000 mm 0,0 UV-I 0 W/m -0,4 C 1,1 C 9,7 km/h (2 Bft) 96,30 %
26.02.2016 01:41 1,1 C 90 % 1014,7 hPa 0,0 l/m 6,3 km/h (2 Bft) SW 221 0 min 0,000 mm 0,0 UV-I 0 W/m -0,4 C 1,1 C 8,0 km/h (2 Bft) 91,30 %
26.02.2016 01:42 1,1 C 90 % 1014,7 hPa 0,0 l/m 6,6 km/h (2 Bft) W-SW 250 0 min 0,000 mm 0,0 UV-I 0 W/m -0,4 C 0,9 C 11,3 km/h (2 Bft) 100,00 %
26.02.2016 01:43 1,1 C 90 % 1014,7 hPa 0,0 l/m 7,5 km/h (2 Bft) W-SW 242 0 min 0,000 mm 0,0 UV-I 0 W/m -0,4 C -0,0 C 9,7 km/h (2 Bft) 100,00 %
26.02.2016 01:44 1,1 C 90 % 1014,7 hPa 0,0 l/m 6,5 km/h (2 Bft) SW 222 0 min 0,000 mm 0,0 UV-I 0 W/m -0,4 C 1,0 C 9,7 km/h (2 Bft) 96,15 %
26.02.2016 01:45 1,1 C 90 % 1014,7 hPa 0,0 l/m 4,9 km/h (1 Bft) W-SW 257 0 min 0,000 mm 0,0 UV-I 0 W/m -0,4 C 1,1 C 6,4 km/h (2 Bft) 91,67 %
26.02.2016 01:46 1,1 C 90 % 1014,7 hPa 0,0 l/m 5,6 km/h (1 Bft) W 261 0 min 0,000 mm 0,0 UV-I 0 W/m -0,4 C 1,1 C 8,0 km/h (2 Bft) 91,30 %
26.02.2016 01:47 1,2 C 90 % 1014,7 hPa 0,0 l/m 6,6 km/h (2 Bft) W-SW 244 0 min 0,000 mm 0,0 UV-I 0 W/m -0,3 C 1,0 C 11,3 km/h (2 Bft) 95,83 %
26.02.2016 01:48 1,1 C 90 % 1014,7 hPa 0,0 l/m 6,6 km/h (2 Bft) W-SW 245 0 min 0,000 mm 0,0 UV-I 0 W/m -0,4 C 0,9 C 8,0 km/h (2 Bft) 100,00 %
26.02.2016 01:49 1,2 C 90 % 1014,7 hPa 0,0 l/m 7,2 km/h (2 Bft) W-SW 254 0 min 0,000 mm 0,0 UV-I 0 W/m -0,3 C 0,4 C 8,0 km/h (2 Bft) 96,30 %
26.02.2016 01:50 1,2 C 90 % 1014,7 hPa 0,0 l/m 6,2 km/h (2 Bft) W-SW 247 0 min 0,000 mm 0,0 UV-I 0 W/m -0,3 C 1,2 C 9,7 km/h (2 Bft) 100,00 %
26.02.2016 01:51 1,2 C 90 % 1014,7 hPa 0,0 l/m 6,6 km/h (2 Bft) W-SW 257 0 min 0,000 mm 0,0 UV-I 0 W/m -0,3 C 1,0 C 11,3 km/h (2 Bft) 95,83 %
26.02.2016 01:52 1,2 C 90 % 1014,7 hPa 0,0 l/m 6,4 km/h (2 Bft) W-SW 256 0 min 0,000 mm 0,0 UV-I 0 W/m -0,3 C 1,2 C 9,7 km/h (2 Bft) 95,65 %
26.02.2016 01:53 1,2 C 90 % 1014,6 hPa 0,0 l/m 6,0 km/h (2 Bft) W-SW 257 0 min 0,000 mm 0,0 UV-I 0 W/m -0,3 C 1,2 C 8,0 km/h (2 Bft) 100,00 %
26.02.2016 01:54 1,2 C 90 % 1014,6 hPa 0,0 l/m 6,8 km/h (2 Bft) W-SW 257 0 min 0,000 mm 0,0 UV-I 0 W/m -0,3 C 0,8 C 9,7 km/h (2 Bft) 95,65 %
26.02.2016 01:55 1,2 C 90 % 1014,6 hPa 0,0 l/m 7,1 km/h (2 Bft) W 272 0 min 0,000 mm 0,0 UV-I 0 W/m -0,3 C 0,5 C 11,3 km/h (2 Bft) 100,00 %
26.02.2016 01:56 1,2 C 90 % 1014,6 hPa 0,0 l/m 5,5 km/h (1 Bft) W 262 0 min 0,000 mm 0,0 UV-I 0 W/m -0,3 C 1,2 C 9,7 km/h (2 Bft) 91,30 %
26.02.2016 01:57 1,2 C 89 % 1014,6 hPa 0,0 l/m 7,7 km/h (2 Bft) W-SW 252 0 min 0,000 mm 0,0 UV-I 0 W/m -0,4 C -0,1 C 11,3 km/h (2 Bft) 100,00 %
26.02.2016 01:58 1,2 C 89 % 1014,7 hPa 0,0 l/m 6,8 km/h (2 Bft) W 266 0 min 0,000 mm 0,0 UV-I 0 W/m -0,4 C 0,8 C 11,3 km/h (2 Bft) 96,15 %
26.02.2016 01:59 1,2 C 89 % 1014,6 hPa 0,0 l/m 8,4 km/h (2 Bft) W-SW 242 0 min 0,000 mm 0,0 UV-I 0 W/m -0,4 C -0,8 C 12,9 km/h (3 Bft) 95,83 %
26.02.2016 02:00 1,2 C 89 % 1014,6 hPa 0,0 l/m 6,4 km/h (2 Bft) W-SW 250 0 min 0,000 mm 0,0 UV-I 0 W/m -0,4 C 1,2 C 9,7 km/h (2 Bft) 100,00 %
26.02.2016 02:01 1,2 C 89 % 1014,6 hPa 0,0 l/m 8,0 km/h (2 Bft) W-SW 249 0 min 0,000 mm 0,0 UV-I 0 W/m -0,4 C -0,4 C 11,3 km/h (2 Bft) 100,00 %
26.02.2016 02:02 1,2 C 89 % 1014,6 hPa 0,0 l/m 7,4 km/h (2 Bft) W-SW 250 0 min 0,000 mm 0,0 UV-I 0 W/m -0,4 C 0,2 C 9,7 km/h (2 Bft) 100,00 %
26.02.2016 02:03 1,2 C 89 % 1014,6 hPa 0,0 l/m 10,3 km/h (2 Bft) W 265 0 min 0,000 mm 0,0 UV-I 0 W/m -0,4 C -2,4 C 14,5 km/h (3 Bft) 95,83 %
26.02.2016 02:04 1,2 C 89 % 1014,6 hPa 0,0 l/m 9,1 km/h (2 Bft) W 263 0 min 0,000 mm 0,0 UV-I 0 W/m -0,4 C -1,4 C 12,9 km/h (3 Bft) 100,00 %
26.02.2016 02:05 1,2 C 89 % 1014,6 hPa 0,0 l/m 11,5 km/h (2 Bft) W-SW 251 0 min 0,000 mm 0,0 UV-I 0 W/m -0,4 C -3,3 C 16,1 km/h (3 Bft) 100,00 %
26.02.2016 02:06 1,2 C 89 % 1014,6 hPa 0,0 l/m 9,4 km/h (2 Bft) W 259 0 min 0,000 mm 0,0 UV-I 0 W/m -0,4 C -1,6 C 12,9 km/h (3 Bft) 93,75 %
26.02.2016 02:07 1,2 C 89 % 1014,5 hPa 0,0 l/m 10,5 km/h (2 Bft) W-SW 258 0 min 0,000 mm 0,0 UV-I 0 W/m -0,4 C -2,5 C 14,5 km/h (3 Bft) 95,65 %
26.02.2016 02:08 1,2 C 89 % 1014,5 hPa 0,0 l/m 8,5 km/h (2 Bft) W-SW 253 0 min 0,000 mm 0,0 UV-I 0 W/m -0,4 C -0,8 C 11,3 km/h (2 Bft) 100,00 %
26.02.2016 02:09 1,2 C 89 % 1014,5 hPa 0,0 l/m 6,3 km/h (2 Bft) W-SW 254 0 min 0,000 mm 0,0 UV-I 0 W/m -0,4 C 1,2 C 8,0 km/h (2 Bft) 100,00 %
26.02.2016 02:10 1,2 C 89 % 1014,5 hPa 0,0 l/m 7,8 km/h (2 Bft) W-SW 252 0 min 0,000 mm 0,0 UV-I 0 W/m -0,4 C -0,2 C 9,7 km/h (2 Bft) 100,00 %
26.02.2016 02:11 1,2 C 89 % 1014,5 hPa 0,0 l/m 6,4 km/h (2 Bft) W-SW 244 0 min 0,000 mm 0,0 UV-I 0 W/m -0,4 C 1,2 C 9,7 km/h (2 Bft) 100,00 %
26.02.2016 02:12 1,2 C 89 % 1014,5 hPa 0,0 l/m 6,3 km/h (2 Bft) SW 221 0 min 0,000 mm 0,0 UV-I 0 W/m -0,4 C 1,2 C 9,7 km/h (2 Bft) 100,00 %
26.02.2016 02:13 1,2 C 89 % 1014,6 hPa 0,0 l/m 6,8 km/h (2 Bft) W-SW 257 0 min 0,000 mm 0,0 UV-I 0 W/m -0,4 C 0,8 C 11,3 km/h (2 Bft) 95,65 %
26.02.2016 02:14 1,2 C 89 % 1014,5 hPa 0,0 l/m 8,2 km/h (2 Bft) W 276 0 min 0,000 mm 0,0 UV-I 0 W/m -0,4 C -0,6 C 11,3 km/h (2 Bft) 100,00 %
26.02.2016 02:15 1,3 C 89 % 1014,5 hPa 0,0 l/m 6,4 km/h (2 Bft) W-SW 255 0 min 0,000 mm 0,0 UV-I 0 W/m -0,3 C 1,3 C 11,3 km/h (2 Bft) 95,65 %
26.02.2016 02:16 1,3 C 89 % 1014,5 hPa 0,0 l/m 5,8 km/h (2 Bft) W-SW 247 0 min 0,000 mm 0,0 UV-I 0 W/m -0,3 C 1,3 C 6,4 km/h (2 Bft) 100,00 %
26.02.2016 02:17 1,3 C 89 % 1014,5 hPa 0,0 l/m 5,9 km/h (2 Bft) W-SW 254 0 min 0,000 mm 0,0 UV-I 0 W/m -0,3 C 1,3 C 8,0 km/h (2 Bft) 100,00 %
26.02.2016 02:18 1,3 C 89 % 1014,5 hPa 0,0 l/m 5,7 km/h (1 Bft) W-SW 256 0 min 0,000 mm 0,0 UV-I 0 W/m -0,3 C 1,3 C 9,7 km/h (2 Bft) 100,00 %
26.02.2016 02:19 1,2 C 89 % 1014,5 hPa 0,0 l/m 9,5 km/h (2 Bft) SW 231 0 min 0,000 mm 0,0 UV-I 0 W/m -0,4 C -1,7 C 12,9 km/h (3 Bft) 100,00 %
26.02.2016 02:20 1,2 C 89 % 1014,5 hPa 0,0 l/m 6,6 km/h (2 Bft) W-SW 240 0 min 0,000 mm 0,0 UV-I 0 W/m -0,4 C 1,0 C 11,3 km/h (2 Bft) 100,00 %
26.02.2016 02:21 1,2 C 89 % 1014,5 hPa 0,0 l/m 8,8 km/h (2 Bft) W 267 0 min 0,000 mm 0,0 UV-I 0 W/m -0,4 C -1,1 C 12,9 km/h (3 Bft) 100,00 %
26.02.2016 02:22 1,2 C 89 % 1014,5 hPa 0,0 l/m 7,6 km/h (2 Bft) W-SW 245 0 min 0,000 mm 0,0 UV-I 0 W/m -0,4 C -0,0 C 12,9 km/h (3 Bft) 100,00 %
26.02.2016 02:23 1,2 C 89 % 1014,5 hPa 0,0 l/m 6,0 km/h (2 Bft) W-SW 253 0 min 0,000 mm 0,0 UV-I 0 W/m -0,4 C 1,2 C 9,7 km/h (2 Bft) 100,00 %
26.02.2016 02:24 1,2 C 89 % 1014,5 hPa 0,0 l/m 4,6 km/h (1 Bft) W-SW 252 0 min 0,000 mm 0,0 UV-I 0 W/m -0,4 C 1,2 C 6,4 km/h (2 Bft) 95,83 %
26.02.2016 02:25 1,2 C 89 % 1014,5 hPa 0,0 l/m 7,3 km/h (2 Bft) W-SW 241 0 min 0,000 mm 0,0 UV-I 0 W/m -0,4 C 0,3 C 11,3 km/h (2 Bft) 100,00 %
26.02.2016 02:26 1,2 C 89 % 1014,5 hPa 0,0 l/m 6,4 km/h (2 Bft) W 259 0 min 0,000 mm 0,0 UV-I 0 W/m -0,4 C 1,2 C 9,7 km/h (2 Bft) 100,00 %
26.02.2016 02:27 1,2 C 89 % 1014,5 hPa 0,0 l/m 5,6 km/h (1 Bft) W 263 0 min 0,000 mm 0,0 UV-I 0 W/m -0,4 C 1,2 C 6,4 km/h (2 Bft) 100,00 %
26.02.2016 02:28 1,2 C 89 % 1014,5 hPa 0,0 l/m 5,7 km/h (1 Bft) W-SW 257 0 min 0,000 mm 0,0 UV-I 0 W/m -0,4 C 1,2 C 6,4 km/h (2 Bft) 95,65 %
26.02.2016 02:29 1,2 C 89 % 1014,5 hPa 0,0 l/m 5,9 km/h (2 Bft) W-SW 257 0 min 0,000 mm 0,0 UV-I 0 W/m -0,4 C 1,2 C 8,0 km/h (2 Bft) 100,00 %
26.02.2016 02:30 1,2 C 89 % 1014,5 hPa 0,0 l/m 7,2 km/h (2 Bft) W-SW 244 0 min 0,000 mm 0,0 UV-I 0 W/m -0,4 C 0,4 C 11,3 km/h (2 Bft) 100,00 %
26.02.2016 02:31 1,2 C 89 % 1014,5 hPa 0,0 l/m 6,5 km/h (2 Bft) W-NW 288 0 min 0,000 mm 0,0 UV-I 0 W/m -0,4 C 1,1 C 9,7 km/h (2 Bft) 100,00 %
26.02.2016 02:32 1,2 C 89 % 1014,5 hPa 0,0 l/m 7,2 km/h (2 Bft) W 265 0 min 0,000 mm 0,0 UV-I 0 W/m -0,4 C 0,4 C 11,3 km/h (2 Bft) 95,65 %
26.02.2016 02:33 1,3 C 89 % 1014,5 hPa 0,0 l/m 5,3 km/h (1 Bft) W 267 0 min 0,000 mm 0,0 UV-I 0 W/m -0,3 C 1,3 C 6,4 km/h (2 Bft) 100,00 %
26.02.2016 02:34 1,2 C 89 % 1014,5 hPa 0,0 l/m 6,0 km/h (2 Bft) W-SW 252 0 min 0,000 mm 0,0 UV-I 0 W/m -0,4 C 1,2 C 8,0 km/h (2 Bft) 100,00 %
26.02.2016 02:35 1,2 C 89 % 1014,5 hPa 0,0 l/m 4,7 km/h (1 Bft) W-SW 249 0 min 0,000 mm 0,0 UV-I 0 W/m -0,4 C 1,2 C 6,4 km/h (2 Bft) 100,00 %
26.02.2016 02:36 1,2 C 89 % 1014,5 hPa 0,0 l/m 6,6 km/h (2 Bft) W-SW 242 0 min 0,000 mm 0,0 UV-I 0 W/m -0,4 C 1,0 C 8,0 km/h (2 Bft) 95,65 %
26.02.2016 02:37 1,2 C 89 % 1014,5 hPa 0,0 l/m 6,9 km/h (2 Bft) W-SW 250 0 min 0,000 mm 0,0 UV-I 0 W/m -0,4 C 0,7 C 11,3 km/h (2 Bft) 100,00 %
26.02.2016 02:38 1,2 C 89 % 1014,5 hPa 0,0 l/m 8,1 km/h (2 Bft) W-SW 258 0 min 0,000 mm 0,0 UV-I 0 W/m -0,4 C -0,5 C 11,3 km/h (2 Bft) 100,00 %
26.02.2016 02:39 1,2 C 89 % 1014,5 hPa 0,0 l/m 7,5 km/h (2 Bft) W 261 0 min 0,000 mm 0,0 UV-I 0 W/m -0,4 C 0,1 C 11,3 km/h (2 Bft) 100,00 %
26.02.2016 02:40 1,2 C 89 % 1014,4 hPa 0,0 l/m 5,4 km/h (1 Bft) W-SW 250 0 min 0,000 mm 0,0 UV-I 0 W/m -0,4 C 1,2 C 8,0 km/h (2 Bft) 100,00 %
26.02.2016 02:41 1,3 C 89 % 1014,5 hPa 0,0 l/m 7,5 km/h (2 Bft) W-SW 251 0 min 0,000 mm 0,0 UV-I 0 W/m -0,3 C 0,2 C 11,3 km/h (2 Bft) 100,00 %
26.02.2016 02:42 1,3 C 89 % 1014,5 hPa 0,0 l/m 7,6 km/h (2 Bft) W 264 0 min 0,000 mm 0,0 UV-I 0 W/m -0,3 C 0,1 C 11,3 km/h (2 Bft) 100,00 %
26.02.2016 02:43 1,3 C 89 % 1014,5 hPa 0,0 l/m 6,9 km/h (2 Bft) W-SW 240 0 min 0,000 mm 0,0 UV-I 0 W/m -0,3 C 0,8 C 11,3 km/h (2 Bft) 100,00 %
26.02.2016 02:44 1,3 C 89 % 1014,5 hPa 0,0 l/m 7,1 km/h (2 Bft) SW 227 0 min 0,000 mm 0,0 UV-I 0 W/m -0,3 C 0,6 C 12,9 km/h (3 Bft) 95,65 %
26.02.2016 02:45 1,3 C 89 % 1014,5 hPa 0,0 l/m 6,6 km/h (2 Bft) W-SW 249 0 min 0,000 mm 0,0 UV-I 0 W/m -0,3 C 1,1 C 9,7 km/h (2 Bft) 95,83 %
26.02.2016 02:46 1,3 C 89 % 1014,5 hPa 0,0 l/m 7,8 km/h (2 Bft) W-SW 245 0 min 0,000 mm 0,0 UV-I 0 W/m -0,3 C -0,1 C 12,9 km/h (3 Bft) 100,00 %
26.02.2016 02:47 1,3 C 89 % 1014,5 hPa 0,0 l/m 8,2 km/h (2 Bft) W-SW 254 0 min 0,000 mm 0,0 UV-I 0 W/m -0,3 C -0,5 C 14,5 km/h (3 Bft) 95,83 %
26.02.2016 02:48 1,3 C 89 % 1014,5 hPa 0,0 l/m 7,0 km/h (2 Bft) W 267 0 min 0,000 mm 0,0 UV-I 0 W/m -0,3 C 0,7 C 11,3 km/h (2 Bft) 100,00 %
26.02.2016 02:49 1,3 C 89 % 1014,5 hPa 0,0 l/m 6,2 km/h (2 Bft) W-SW 238 0 min 0,000 mm 0,0 UV-I 0 W/m -0,3 C 1,3 C 6,4 km/h (2 Bft) 95,83 %
26.02.2016 02:50 1,3 C 89 % 1014,5 hPa 0,0 l/m 5,9 km/h (2 Bft) W-SW 246 0 min 0,000 mm 0,0 UV-I 0 W/m -0,3 C 1,3 C 11,3 km/h (2 Bft) 100,00 %
26.02.2016 02:51 1,3 C 89 % 1014,5 hPa 0,0 l/m 8,4 km/h (2 Bft) W-SW 243 0 min 0,000 mm 0,0 UV-I 0 W/m -0,3 C -0,7 C 12,9 km/h (3 Bft) 100,00 %
26.02.2016 02:52 1,3 C 89 % 1014,5 hPa 0,0 l/m 5,9 km/h (2 Bft) W 262 0 min 0,000 mm 0,0 UV-I 0 W/m -0,3 C 1,3 C 9,7 km/h (2 Bft) 100,00 %
26.02.2016 02:53 1,3 C 89 % 1014,5 hPa 0,0 l/m 5,4 km/h (1 Bft) W-SW 251 0 min 0,000 mm 0,0 UV-I 0 W/m -0,3 C 1,3 C 6,4 km/h (2 Bft) 100,00 %
26.02.2016 02:54 1,2 C 89 % 1014,4 hPa 0,0 l/m 5,7 km/h (1 Bft) W-SW 252 0 min 0,000 mm 0,0 UV-I 0 W/m -0,4 C 1,2 C 6,4 km/h (2 Bft) 100,00 %
26.02.2016 02:55 1,2 C 89 % 1014,3 hPa 0,0 l/m 4,1 km/h (1 Bft) W-SW 244 0 min 0,000 mm 0,0 UV-I 0 W/m -0,4 C 1,2 C 6,4 km/h (2 Bft) 100,00 %
26.02.2016 02:56 1,2 C 89 % 1014,3 hPa 0,0 l/m 5,1 km/h (1 Bft) SW 230 0 min 0,000 mm 0,0 UV-I 0 W/m -0,4 C 1,2 C 8,0 km/h (2 Bft) 100,00 %
26.02.2016 02:57 1,2 C 89 % 1014,3 hPa 0,0 l/m 6,2 km/h (2 Bft) W-SW 248 0 min 0,000 mm 0,0 UV-I 0 W/m -0,4 C 1,2 C 8,0 km/h (2 Bft) 100,00 %
26.02.2016 02:58 1,2 C 89 % 1014,3 hPa 0,0 l/m 7,8 km/h (2 Bft) W-SW 252 0 min 0,000 mm 0,0 UV-I 0 W/m -0,4 C -0,2 C 9,7 km/h (2 Bft) 100,00 %
26.02.2016 02:59 1,2 C 89 % 1014,3 hPa 0,0 l/m 5,2 km/h (1 Bft) W-SW 243 0 min 0,000 mm 0,0 UV-I 0 W/m -0,4 C 1,2 C 6,4 km/h (2 Bft) 100,00 %
26.02.2016 03:00 1,2 C 89 % 1014,3 hPa 0,0 l/m 6,8 km/h (2 Bft) W-SW 245 0 min 0,000 mm 0,0 UV-I 0 W/m -0,4 C 0,8 C 9,7 km/h (2 Bft) 100,00 %
26.02.2016 03:01 1,2 C 89 % 1014,3 hPa 0,0 l/m 4,2 km/h (1 Bft) W-SW 238 0 min 0,000 mm 0,0 UV-I 0 W/m -0,4 C 1,2 C 6,4 km/h (2 Bft) 100,00 %
26.02.2016 03:02 1,2 C 89 % 1014,3 hPa 0,0 l/m 5,5 km/h (1 Bft) SW 236 0 min 0,000 mm 0,0 UV-I 0 W/m -0,4 C 1,2 C 8,0 km/h (2 Bft) 100,00 %
26.02.2016 03:03 1,2 C 89 % 1014,3 hPa 0,0 l/m 6,4 km/h (2 Bft) SW 225 0 min 0,000 mm 0,0 UV-I 0 W/m -0,4 C 1,2 C 9,7 km/h (2 Bft) 100,00 %
26.02.2016 03:04 1,2 C 89 % 1014,4 hPa 0,0 l/m 6,8 km/h (2 Bft) SW 236 0 min 0,000 mm 0,0 UV-I 0 W/m -0,4 C 0,8 C 9,7 km/h (2 Bft) 100,00 %
26.02.2016 03:05 1,2 C 89 % 1014,3 hPa 0,0 l/m 4,6 km/h (1 Bft) SW 221 0 min 0,000 mm 0,0 UV-I 0 W/m -0,4 C 1,2 C 6,4 km/h (2 Bft) 100,00 %
26.02.2016 03:06 1,2 C 89 % 1014,4 hPa 0,0 l/m 4,5 km/h (1 Bft) SW 220 0 min 0,000 mm 0,0 UV-I 0 W/m -0,4 C 1,2 C 6,4 km/h (2 Bft) 96,15 %
26.02.2016 03:07 1,2 C 89 % 1014,4 hPa 0,0 l/m 6,2 km/h (2 Bft) SW 226 0 min 0,000 mm 0,0 UV-I 0 W/m -0,4 C 1,2 C 8,0 km/h (2 Bft) 100,00 %
26.02.2016 03:08 1,2 C 89 % 1014,4 hPa 0,0 l/m 5,6 km/h (1 Bft) SW 223 0 min 0,000 mm 0,0 UV-I 0 W/m -0,4 C 1,2 C 6,4 km/h (2 Bft) 100,00 %
26.02.2016 03:09 1,2 C 90 % 1014,3 hPa 0,0 l/m 5,6 km/h (1 Bft) W-SW 243 0 min 0,000 mm 0,0 UV-I 0 W/m -0,3 C 1,2 C 8,0 km/h (2 Bft) 100,00 %
26.02.2016 03:10 1,2 C 90 % 1014,3 hPa 0,0 l/m 5,8 km/h (2 Bft) W-SW 243 0 min 0,000 mm 0,0 UV-I 0 W/m -0,3 C 1,2 C 8,0 km/h (2 Bft) 95,65 %
26.02.2016 03:11 1,2 C 90 % 1014,3 hPa 0,0 l/m 3,8 km/h (1 Bft) SW 236 0 min 0,000 mm 0,0 UV-I 0 W/m -0,3 C 1,2 C 6,4 km/h (2 Bft) 100,00 %
26.02.2016 03:12 1,2 C 90 % 1014,3 hPa 0,0 l/m 4,8 km/h (1 Bft) W-SW 248 0 min 0,000 mm 0,0 UV-I 0 W/m -0,3 C 1,2 C 6,4 km/h (2 Bft) 100,00 %
26.02.2016 03:13 1,2 C 90 % 1014,3 hPa 0,0 l/m 4,4 km/h (1 Bft) W-SW 248 0 min 0,000 mm 0,0 UV-I 0 W/m -0,3 C 1,2 C 6,4 km/h (2 Bft) 100,00 %
26.02.2016 03:14 1,2 C 90 % 1014,3 hPa 0,0 l/m 4,1 km/h (1 Bft) W-SW 253 0 min 0,000 mm 0,0 UV-I 0 W/m -0,3 C 1,2 C 4,8 km/h (1 Bft) 100,00 %
26.02.2016 03:15 1,2 C 90 % 1014,3 hPa 0,0 l/m 4,7 km/h (1 Bft) W-SW 249 0 min 0,000 mm 0,0 UV-I 0 W/m -0,3 C 1,2 C 4,8 km/h (1 Bft) 100,00 %
26.02.2016 03:16 1,2 C 90 % 1014,3 hPa 0,0 l/m 6,7 km/h (2 Bft) W-SW 252 0 min 0,000 mm 0,0 UV-I 0 W/m -0,3 C 0,9 C 8,0 km/h (2 Bft) 100,00 %
26.02.2016 03:17 1,2 C 90 % 1014,3 hPa 0,0 l/m 5,6 km/h (1 Bft) W-SW 243 0 min 0,000 mm 0,0 UV-I 0 W/m -0,3 C 1,2 C 8,0 km/h (2 Bft) 100,00 %
26.02.2016 03:18 1,2 C 90 % 1014,3 hPa 0,0 l/m 5,8 km/h (2 Bft) SW 236 0 min 0,000 mm 0,0 UV-I 0 W/m -0,3 C 1,2 C 8,0 km/h (2 Bft) 95,65 %
26.02.2016 03:19 1,2 C 90 % 1014,3 hPa 0,0 l/m 5,6 km/h (1 Bft) W-SW 245 0 min 0,000 mm 0,0 UV-I 0 W/m -0,3 C 1,2 C 8,0 km/h (2 Bft) 95,83 %
26.02.2016 03:20 1,1 C 90 % 1014,3 hPa 0,0 l/m 4,9 km/h (1 Bft) W-SW 241 0 min 0,000 mm 0,0 UV-I 0 W/m -0,4 C 1,1 C 6,4 km/h (2 Bft) 100,00 %
26.02.2016 03:21 1,2 C 90 % 1014,3 hPa 0,0 l/m 6,3 km/h (2 Bft) SW 228 0 min 0,000 mm 0,0 UV-I 0 W/m -0,3 C 1,2 C 9,7 km/h (2 Bft) 100,00 %
26.02.2016 03:22 1,1 C 90 % 1014,3 hPa 0,0 l/m 4,3 km/h (1 Bft) SW 229 0 min 0,000 mm 0,0 UV-I 0 W/m -0,4 C 1,1 C 6,4 km/h (2 Bft) 100,00 %
26.02.2016 03:23 1,1 C 90 % 1014,3 hPa 0,0 l/m 6,4 km/h (2 Bft) W-SW 249 0 min 0,000 mm 0,0 UV-I 0 W/m -0,4 C 1,1 C 11,3 km/h (2 Bft) 100,00 %
26.02.2016 03:24 1,1 C 90 % 1014,3 hPa 0,0 l/m 5,6 km/h (1 Bft) W-SW 254 0 min 0,000 mm 0,0 UV-I 0 W/m -0,4 C 1,1 C 8,0 km/h (2 Bft) 95,83 %
26.02.2016 03:25 1,1 C 91 % 1014,3 hPa 0,0 l/m 5,0 km/h (1 Bft) W-SW 257 0 min 0,000 mm 0,0 UV-I 0 W/m -0,2 C 1,1 C 6,4 km/h (2 Bft) 100,00 %
26.02.2016 03:26 1,1 C 91 % 1014,3 hPa 0,0 l/m 5,3 km/h (1 Bft) W-SW 250 0 min 0,000 mm 0,0 UV-I 0 W/m -0,2 C 1,1 C 6,4 km/h (2 Bft) 100,00 %
26.02.2016 03:27 1,1 C 91 % 1014,2 hPa 0,0 l/m 6,3 km/h (2 Bft) W-SW 248 0 min 0,000 mm 0,0 UV-I 0 W/m -0,2 C 1,1 C 9,7 km/h (2 Bft) 91,30 %
26.02.2016 03:28 1,1 C 91 % 1014,3 hPa 0,0 l/m 7,6 km/h (2 Bft) W-SW 244 0 min 0,000 mm 0,0 UV-I 0 W/m -0,2 C -0,1 C 11,3 km/h (2 Bft) 100,00 %
26.02.2016 03:29 1,1 C 91 % 1014,3 hPa 0,0 l/m 5,9 km/h (2 Bft) W-SW 240 0 min 0,000 mm 0,0 UV-I 0 W/m -0,2 C 1,1 C 8,0 km/h (2 Bft) 95,65 %
26.02.2016 03:30 1,1 C 91 % 1014,3 hPa 0,0 l/m 5,6 km/h (1 Bft) W-SW 246 0 min 0,000 mm 0,0 UV-I 0 W/m -0,2 C 1,1 C 6,4 km/h (2 Bft) 100,00 %
26.02.2016 03:31 1,1 C 91 % 1014,3 hPa 0,0 l/m 4,4 km/h (1 Bft) W 263 0 min 0,000 mm 0,0 UV-I 0 W/m -0,2 C 1,1 C 6,4 km/h (2 Bft) 100,00 %
26.02.2016 03:32 1,1 C 91 % 1014,3 hPa 0,0 l/m 6,8 km/h (2 Bft) W-SW 254 0 min 0,000 mm 0,0 UV-I 0 W/m -0,2 C 0,7 C 9,7 km/h (2 Bft) 100,00 %
26.02.2016 03:33 1,0 C 91 % 1014,3 hPa 0,0 l/m 5,2 km/h (1 Bft) W-SW 248 0 min 0,000 mm 0,0 UV-I 0 W/m -0,3 C 1,0 C 6,4 km/h (2 Bft) 95,65 %
26.02.2016 03:34 1,0 C 91 % 1014,3 hPa 0,0 l/m 6,4 km/h (2 Bft) W 263 0 min 0,000 mm 0,0 UV-I 0 W/m -0,3 C 1,0 C 12,9 km/h (3 Bft) 95,83 %
26.02.2016 03:35 1,0 C 91 % 1014,3 hPa 0,0 l/m 5,4 km/h (1 Bft) W-SW 250 0 min 0,000 mm 0,0 UV-I 0 W/m -0,3 C 1,0 C 12,9 km/h (3 Bft) 100,00 %
26.02.2016 03:36 1,0 C 91 % 1014,3 hPa 0,0 l/m 4,2 km/h (1 Bft) W 266 0 min 0,000 mm 0,0 UV-I 0 W/m -0,3 C 1,0 C 6,4 km/h (2 Bft) 95,83 %
26.02.2016 03:37 0,9 C 92 % 1014,3 hPa 0,0 l/m 5,4 km/h (1 Bft) W 263 0 min 0,000 mm 0,0 UV-I 0 W/m -0,2 C 0,9 C 8,0 km/h (2 Bft) 100,00 %
26.02.2016 03:38 0,9 C 92 % 1014,3 hPa 0,0 l/m 4,2 km/h (1 Bft) W-SW 257 0 min 0,000 mm 0,0 UV-I 0 W/m -0,2 C 0,9 C 6,4 km/h (2 Bft) 95,83 %
26.02.2016 03:39 0,9 C 92 % 1014,3 hPa 0,0 l/m 6,2 km/h (2 Bft) W 264 0 min 0,000 mm 0,0 UV-I 0 W/m -0,2 C 0,9 C 9,7 km/h (2 Bft) 95,65 %
26.02.2016 03:40 0,9 C 92 % 1014,3 hPa 0,0 l/m 6,1 km/h (2 Bft) W-SW 240 0 min 0,000 mm 0,0 UV-I 0 W/m -0,2 C 0,9 C 12,9 km/h (3 Bft) 95,83 %
26.02.2016 03:41 0,9 C 92 % 1014,3 hPa 0,0 l/m 7,5 km/h (2 Bft) W 271 0 min 0,000 mm 0,0 UV-I 0 W/m -0,2 C -0,2 C 11,3 km/h (2 Bft) 95,65 %
26.02.2016 03:42 0,9 C 92 % 1014,3 hPa 0,0 l/m 4,8 km/h (1 Bft) W 265 0 min 0,000 mm 0,0 UV-I 0 W/m -0,2 C 0,9 C 6,4 km/h (2 Bft) 96,30 %
26.02.2016 03:43 0,9 C 92 % 1014,3 hPa 0,0 l/m 5,0 km/h (1 Bft) W 265 0 min 0,000 mm 0,0 UV-I 0 W/m -0,2 C 0,9 C 6,4 km/h (2 Bft) 91,30 %
26.02.2016 03:44 0,9 C 92 % 1014,3 hPa 0,0 l/m 4,2 km/h (1 Bft) W-SW 256 0 min 0,000 mm 0,0 UV-I 0 W/m -0,2 C 0,9 C 6,4 km/h (2 Bft) 100,00 %
26.02.2016 03:45 0,9 C 92 % 1014,3 hPa 0,0 l/m 5,4 km/h (1 Bft) W-SW 252 0 min 0,000 mm 0,0 UV-I 0 W/m -0,2 C 0,9 C 6,4 km/h (2 Bft) 96,30 %
26.02.2016 03:46 0,9 C 92 % 1014,3 hPa 0,0 l/m 6,0 km/h (2 Bft) W 262 0 min 0,000 mm 0,0 UV-I 0 W/m -0,2 C 0,9 C 8,0 km/h (2 Bft) 95,65 %
26.02.2016 03:47 0,9 C 92 % 1014,4 hPa 0,0 l/m 5,2 km/h (1 Bft) W 273 0 min 0,000 mm 0,0 UV-I 0 W/m -0,2 C 0,9 C 6,4 km/h (2 Bft) 96,30 %
26.02.2016 03:48 0,8 C 92 % 1014,3 hPa 0,0 l/m 4,9 km/h (1 Bft) W 259 0 min 0,000 mm 0,0 UV-I 0 W/m -0,3 C 0,8 C 6,4 km/h (2 Bft) 100,00 %
26.02.2016 03:49 0,8 C 92 % 1014,3 hPa 0,0 l/m 5,8 km/h (2 Bft) W-SW 249 0 min 0,000 mm 0,0 UV-I 0 W/m -0,3 C 0,8 C 9,7 km/h (2 Bft) 95,83 %
26.02.2016 03:50 0,8 C 92 % 1014,3 hPa 0,0 l/m 6,0 km/h (2 Bft) W 269 0 min 0,000 mm 0,0 UV-I 0 W/m -0,3 C 0,8 C 11,3 km/h (2 Bft) 100,00 %
26.02.2016 03:51 0,8 C 92 % 1014,4 hPa 0,0 l/m 5,6 km/h (1 Bft) W-SW 250 0 min 0,000 mm 0,0 UV-I 0 W/m -0,3 C 0,8 C 8,0 km/h (2 Bft) 95,83 %
26.02.2016 03:52 0,8 C 92 % 1014,3 hPa 0,0 l/m 9,5 km/h (2 Bft) W 269 0 min 0,000 mm 0,0 UV-I 0 W/m -0,3 C -2,2 C 12,9 km/h (3 Bft) 91,30 %
26.02.2016 03:53 0,8 C 92 % 1014,3 hPa 0,0 l/m 10,1 km/h (2 Bft) W-NW 291 0 min 0,000 mm 0,0 UV-I 0 W/m -0,3 C -2,6 C 12,9 km/h (3 Bft) 100,00 %
26.02.2016 03:54 0,8 C 92 % 1014,3 hPa 0,0 l/m 4,8 km/h (1 Bft) W 261 0 min 0,000 mm 0,0 UV-I 0 W/m -0,3 C 0,8 C 8,0 km/h (2 Bft) 96,15 %
26.02.2016 03:55 0,8 C 92 % 1014,3 hPa 0,0 l/m 4,2 km/h (1 Bft) W 275 0 min 0,000 mm 0,0 UV-I 0 W/m -0,3 C 0,8 C 6,4 km/h (2 Bft) 100,00 %
26.02.2016 03:56 0,8 C 92 % 1014,3 hPa 0,0 l/m 5,5 km/h (1 Bft) W-SW 254 0 min 0,000 mm 0,0 UV-I 0 W/m -0,3 C 0,8 C 8,0 km/h (2 Bft) 95,65 %
26.02.2016 03:57 0,8 C 92 % 1014,4 hPa 0,0 l/m 5,7 km/h (1 Bft) W 276 0 min 0,000 mm 0,0 UV-I 0 W/m -0,3 C 0,8 C 9,7 km/h (2 Bft) 100,00 %
26.02.2016 03:58 0,8 C 92 % 1014,3 hPa 0,0 l/m 4,4 km/h (1 Bft) W 272 0 min 0,000 mm 0,0 UV-I 0 W/m -0,3 C 0,8 C 9,7 km/h (2 Bft) 95,65 %
26.02.2016 03:59 0,8 C 91 % 1014,3 hPa 0,0 l/m 4,8 km/h (1 Bft) W 262 0 min 0,000 mm 0,0 UV-I 0 W/m -0,5 C 0,8 C 6,4 km/h (2 Bft) 95,83 %
26.02.2016 04:00 0,8 C 91 % 1014,3 hPa 0,0 l/m 4,4 km/h (1 Bft) W 275 0 min 0,000 mm 0,0 UV-I 0 W/m -0,5 C 0,8 C 6,4 km/h (2 Bft) 100,00 %
26.02.2016 04:01 0,8 C 91 % 1014,3 hPa 0,0 l/m 3,6 km/h (1 Bft) W-NW 282 0 min 0,000 mm 0,0 UV-I 0 W/m -0,5 C 0,8 C 4,8 km/h (1 Bft) 100,00 %
26.02.2016 04:02 0,8 C 91 % 1014,4 hPa 0,0 l/m 3,8 km/h (1 Bft) W-NW 285 0 min 0,000 mm 0,0 UV-I 0 W/m -0,5 C 0,8 C 4,8 km/h (1 Bft) 96,30 %
26.02.2016 04:03 0,8 C 91 % 1014,4 hPa 0,0 l/m 4,1 km/h (1 Bft) W 275 0 min 0,000 mm 0,0 UV-I 0 W/m -0,5 C 0,8 C 6,4 km/h (2 Bft) 91,67 %
26.02.2016 04:04 0,8 C 91 % 1014,4 hPa 0,0 l/m 4,6 km/h (1 Bft) W 272 0 min 0,000 mm 0,0 UV-I 0 W/m -0,5 C 0,8 C 9,7 km/h (2 Bft) 100,00 %
26.02.2016 04:05 0,8 C 91 % 1014,4 hPa 0,0 l/m 2,6 km/h (1 Bft) W 263 0 min 0,000 mm 0,0 UV-I 0 W/m -0,5 C 0,8 C 4,8 km/h (1 Bft) 95,65 %
26.02.2016 04:06 0,8 C 91 % 1014,4 hPa 0,0 l/m 3,5 km/h (1 Bft) W 276 0 min 0,000 mm 0,0 UV-I 0 W/m -0,5 C 0,8 C 6,4 km/h (2 Bft) 100,00 %
26.02.2016 04:07 0,8 C 91 % 1014,4 hPa 0,0 l/m 4,3 km/h (1 Bft) W 277 0 min 0,000 mm 0,0 UV-I 0 W/m -0,5 C 0,8 C 4,8 km/h (1 Bft) 100,00 %
26.02.2016 04:08 0,8 C 91 % 1014,4 hPa 0,0 l/m 2,3 km/h (1 Bft) W 277 0 min 0,000 mm 0,0 UV-I 0 W/m -0,5 C 0,8 C 4,8 km/h (1 Bft) 100,00 %
26.02.2016 04:09 0,8 C 91 % 1014,4 hPa 0,0 l/m 2,7 km/h (1 Bft) W 277 0 min 0,000 mm 0,0 UV-I 0 W/m -0,5 C 0,8 C 4,8 km/h (1 Bft) 100,00 %
26.02.2016 04:10 0,8 C 91 % 1014,4 hPa 0,0 l/m 0,6 km/h (0 Bft) W 277 0 min 0,000 mm 0,0 UV-I 0 W/m -0,5 C 0,8 C 1,6 km/h (1 Bft) 100,00 %
26.02.2016 04:11 0,8 C 91 % 1014,4 hPa 0,0 l/m 1,7 km/h (1 Bft) NW 311 0 min 0,000 mm 0,0 UV-I 0 W/m -0,5 C 0,8 C 3,2 km/h (1 Bft) 100,00 %
26.02.2016 04:12 0,8 C 91 % 1014,4 hPa 0,0 l/m 2,7 km/h (1 Bft) W-NW 296 0 min 0,000 mm 0,0 UV-I 0 W/m -0,5 C 0,8 C 4,8 km/h (1 Bft) 95,83 %
26.02.2016 04:13 0,8 C 92 % 1014,4 hPa 0,0 l/m 2,3 km/h (1 Bft) W-NW 296 0 min 0,000 mm 0,0 UV-I 0 W/m -0,3 C 0,8 C 3,2 km/h (1 Bft) 100,00 %
26.02.2016 04:14 0,7 C 92 % 1014,4 hPa 0,0 l/m 2,6 km/h (1 Bft) W-NW 291 0 min 0,000 mm 0,0 UV-I 0 W/m -0,4 C 0,7 C 3,2 km/h (1 Bft) 100,00 %
26.02.2016 04:15 0,7 C 92 % 1014,4 hPa 0,0 l/m 2,6 km/h (1 Bft) W-NW 291 0 min 0,000 mm 0,0 UV-I 0 W/m -0,4 C 0,7 C 3,2 km/h (1 Bft) 100,00 %
26.02.2016 04:16 0,7 C 92 % 1014,4 hPa 0,0 l/m 1,9 km/h (1 Bft) W-NW 291 0 min 0,000 mm 0,0 UV-I 0 W/m -0,4 C 0,7 C 3,2 km/h (1 Bft) 100,00 %
26.02.2016 04:17 0,7 C 92 % 1014,4 hPa 0,0 l/m 2,2 km/h (1 Bft) W-NW 291 0 min 0,000 mm 0,0 UV-I 0 W/m -0,4 C 0,7 C 3,2 km/h (1 Bft) 100,00 %
26.02.2016 04:18 0,6 C 92 % 1014,4 hPa 0,0 l/m 0,9 km/h (0 Bft) W-NW 291 0 min 0,000 mm 0,0 UV-I 0 W/m -0,5 C 0,6 C 3,2 km/h (1 Bft) 100,00 %
26.02.2016 04:19 0,6 C 92 % 1014,4 hPa 0,0 l/m 2,2 km/h (1 Bft) W-NW 291 0 min 0,000 mm 0,0 UV-I 0 W/m -0,5 C 0,6 C 3,2 km/h (1 Bft) 95,65 %
26.02.2016 04:20 0,6 C 92 % 1014,4 hPa 0,0 l/m 4,7 km/h (1 Bft) W 267 0 min 0,000 mm 0,0 UV-I 0 W/m -0,5 C 0,6 C 6,4 km/h (2 Bft) 100,00 %
26.02.2016 04:21 0,6 C 92 % 1014,4 hPa 0,0 l/m 4,2 km/h (1 Bft) W-SW 255 0 min 0,000 mm 0,0 UV-I 0 W/m -0,5 C 0,6 C 8,0 km/h (2 Bft) 100,00 %
26.02.2016 04:22 0,6 C 92 % 1014,5 hPa 0,0 l/m 5,4 km/h (1 Bft) W-SW 248 0 min 0,000 mm 0,0 UV-I 0 W/m -0,5 C 0,6 C 8,0 km/h (2 Bft) 100,00 %
26.02.2016 04:23 0,6 C 92 % 1014,5 hPa 0,0 l/m 4,5 km/h (1 Bft) W 275 0 min 0,000 mm 0,0 UV-I 0 W/m -0,5 C 0,6 C 6,4 km/h (2 Bft) 100,00 %
26.02.2016 04:24 0,6 C 93 % 1014,4 hPa 0,0 l/m 5,4 km/h (1 Bft) W-SW 242 0 min 0,000 mm 0,0 UV-I 0 W/m -0,4 C 0,6 C 6,4 km/h (2 Bft) 95,65 %
26.02.2016 04:25 0,6 C 93 % 1014,5 hPa 0,0 l/m 5,2 km/h (1 Bft) W-SW 258 0 min 0,000 mm 0,0 UV-I 0 W/m -0,4 C 0,6 C 9,7 km/h (2 Bft) 100,00 %
26.02.2016 04:26 0,6 C 93 % 1014,4 hPa 0,0 l/m 6,3 km/h (2 Bft) W-SW 254 0 min 0,000 mm 0,0 UV-I 0 W/m -0,4 C 0,6 C 9,7 km/h (2 Bft) 100,00 %
26.02.2016 04:27 0,6 C 93 % 1014,5 hPa 0,0 l/m 4,8 km/h (1 Bft) W-SW 237 0 min 0,000 mm 0,0 UV-I 0 W/m -0,4 C 0,6 C 6,4 km/h (2 Bft) 95,83 %
26.02.2016 04:28 0,6 C 93 % 1014,4 hPa 0,0 l/m 4,8 km/h (1 Bft) SW 223 0 min 0,000 mm 0,0 UV-I 0 W/m -0,4 C 0,6 C 6,4 km/h (2 Bft) 100,00 %
26.02.2016 04:29 0,5 C 93 % 1014,4 hPa 0,0 l/m 4,4 km/h (1 Bft) W-SW 249 0 min 0,000 mm 0,0 UV-I 0 W/m -0,5 C 0,5 C 6,4 km/h (2 Bft) 100,00 %
26.02.2016 04:30 0,5 C 93 % 1014,4 hPa 0,0 l/m 3,4 km/h (1 Bft) W-SW 242 0 min 0,000 mm 0,0 UV-I 0 W/m -0,5 C 0,5 C 4,8 km/h (1 Bft) 95,65 %
26.02.2016 04:31 0,5 C 93 % 1014,3 hPa 0,0 l/m 6,0 km/h (2 Bft) SW 229 0 min 0,000 mm 0,0 UV-I 0 W/m -0,5 C 0,5 C 9,7 km/h (2 Bft) 100,00 %
26.02.2016 04:32 0,5 C 93 % 1014,4 hPa 0,0 l/m 5,6 km/h (1 Bft) SW 222 0 min 0,000 mm 0,0 UV-I 0 W/m -0,5 C 0,5 C 8,0 km/h (2 Bft) 100,00 %
26.02.2016 04:33 0,5 C 93 % 1014,4 hPa 0,0 l/m 4,9 km/h (1 Bft) W-SW 238 0 min 0,000 mm 0,0 UV-I 0 W/m -0,5 C 0,5 C 6,4 km/h (2 Bft) 100,00 %
26.02.2016 04:34 0,5 C 93 % 1014,4 hPa 0,0 l/m 5,7 km/h (1 Bft) SW 223 0 min 0,000 mm 0,0 UV-I 0 W/m -0,5 C 0,5 C 9,7 km/h (2 Bft) 95,65 %
26.02.2016 04:35 0,5 C 93 % 1014,4 hPa 0,0 l/m 6,2 km/h (2 Bft) SW 218 0 min 0,000 mm 0,0 UV-I 0 W/m -0,5 C 0,5 C 8,0 km/h (2 Bft) 100,00 %
26.02.2016 04:36 0,4 C 93 % 1014,4 hPa 0,0 l/m 4,2 km/h (1 Bft) SW 215 0 min 0,000 mm 0,0 UV-I 0 W/m -0,6 C 0,4 C 8,0 km/h (2 Bft) 100,00 %
26.02.2016 04:37 0,4 C 93 % 1014,4 hPa 0,0 l/m 4,4 km/h (1 Bft) W-SW 240 0 min 0,000 mm 0,0 UV-I 0 W/m -0,6 C 0,4 C 6,4 km/h (2 Bft) 100,00 %
26.02.2016 04:38 0,4 C 93 % 1014,4 hPa 0,0 l/m 4,4 km/h (1 Bft) SW 216 0 min 0,000 mm 0,0 UV-I 0 W/m -0,6 C 0,4 C 6,4 km/h (2 Bft) 100,00 %
26.02.2016 04:39 0,4 C 93 % 1014,4 hPa 0,0 l/m 6,0 km/h (2 Bft) S 175 0 min 0,000 mm 0,0 UV-I 0 W/m -0,6 C 0,4 C 11,3 km/h (2 Bft) 100,00 %
26.02.2016 04:40 0,4 C 93 % 1014,4 hPa 0,0 l/m 8,0 km/h (2 Bft) S 186 0 min 0,000 mm 0,0 UV-I 0 W/m -0,6 C -1,2 C 12,9 km/h (3 Bft) 100,00 %
26.02.2016 04:41 0,4 C 93 % 1014,3 hPa 0,0 l/m 8,7 km/h (2 Bft) SW 219 0 min 0,000 mm 0,0 UV-I 0 W/m -0,6 C -1,9 C 11,3 km/h (2 Bft) 100,00 %
26.02.2016 04:42 0,4 C 93 % 1014,3 hPa 0,0 l/m 7,0 km/h (2 Bft) SW 222 0 min 0,000 mm 0,0 UV-I 0 W/m -0,6 C -0,2 C 9,7 km/h (2 Bft) 100,00 %
26.02.2016 04:43 0,4 C 93 % 1014,3 hPa 0,0 l/m 6,7 km/h (2 Bft) SW 218 0 min 0,000 mm 0,0 UV-I 0 W/m -0,6 C 0,1 C 9,7 km/h (2 Bft) 100,00 %
26.02.2016 04:44 0,3 C 93 % 1014,3 hPa 0,0 l/m 3,5 km/h (1 Bft) SW 219 0 min 0,000 mm 0,0 UV-I 0 W/m -0,7 C 0,3 C 4,8 km/h (1 Bft) 100,00 %
26.02.2016 04:45 0,3 C 93 % 1014,3 hPa 0,0 l/m 3,9 km/h (1 Bft) S 185 0 min 0,000 mm 0,0 UV-I 0 W/m -0,7 C 0,3 C 8,0 km/h (2 Bft) 100,00 %
26.02.2016 04:46 0,3 C 93 % 1014,3 hPa 0,0 l/m 5,6 km/h (1 Bft) S 173 0 min 0,000 mm 0,0 UV-I 0 W/m -0,7 C 0,3 C 8,0 km/h (2 Bft) 100,00 %
26.02.2016 04:47 0,3 C 93 % 1014,3 hPa 0,0 l/m 4,6 km/h (1 Bft) SW 215 0 min 0,000 mm 0,0 UV-I 0 W/m -0,7 C 0,3 C 6,4 km/h (2 Bft) 95,83 %
26.02.2016 04:48 0,3 C 94 % 1014,3 hPa 0,0 l/m 4,6 km/h (1 Bft) S-SW 198 0 min 0,000 mm 0,0 UV-I 0 W/m -0,5 C 0,3 C 8,0 km/h (2 Bft) 100,00 %
26.02.2016 04:49 0,3 C 94 % 1014,3 hPa 0,0 l/m 5,5 km/h (1 Bft) SW 218 0 min 0,000 mm 0,0 UV-I 0 W/m -0,5 C 0,3 C 9,7 km/h (2 Bft) 100,00 %
26.02.2016 04:50 0,3 C 94 % 1014,3 hPa 0,0 l/m 4,9 km/h (1 Bft) W-SW 237 0 min 0,000 mm 0,0 UV-I 0 W/m -0,5 C 0,3 C 8,0 km/h (2 Bft) 100,00 %
26.02.2016 04:51 0,3 C 94 % 1014,4 hPa 0,0 l/m 4,2 km/h (1 Bft) S 178 0 min 0,000 mm 0,0 UV-I 0 W/m -0,5 C 0,3 C 6,4 km/h (2 Bft) 100,00 %
26.02.2016 04:52 0,3 C 93 % 1014,4 hPa 0,0 l/m 4,4 km/h (1 Bft) S-SW 197 0 min 0,000 mm 0,0 UV-I 0 W/m -0,7 C 0,3 C 6,4 km/h (2 Bft) 100,00 %
26.02.2016 04:53 0,3 C 93 % 1014,4 hPa 0,0 l/m 4,7 km/h (1 Bft) SW 214 0 min 0,000 mm 0,0 UV-I 0 W/m -0,7 C 0,3 C 6,4 km/h (2 Bft) 100,00 %
26.02.2016 04:54 0,3 C 93 % 1014,4 hPa 0,0 l/m 4,6 km/h (1 Bft) S-SW 206 0 min 0,000 mm 0,0 UV-I 0 W/m -0,7 C 0,3 C 6,4 km/h (2 Bft) 100,00 %
26.02.2016 04:55 0,3 C 93 % 1014,5 hPa 0,0 l/m 4,4 km/h (1 Bft) S-SW 194 0 min 0,000 mm 0,0 UV-I 0 W/m -0,7 C 0,3 C 6,4 km/h (2 Bft) 100,00 %
26.02.2016 04:56 0,3 C 93 % 1014,5 hPa 0,0 l/m 4,5 km/h (1 Bft) S-SW 211 0 min 0,000 mm 0,0 UV-I 0 W/m -0,7 C 0,3 C 6,4 km/h (2 Bft) 100,00 %
26.02.2016 04:57 0,3 C 93 % 1014,5 hPa 0,0 l/m 4,5 km/h (1 Bft) S 191 0 min 0,000 mm 0,0 UV-I 0 W/m -0,7 C 0,3 C 6,4 km/h (2 Bft) 95,65 %
26.02.2016 04:58 0,3 C 93 % 1014,5 hPa 0,0 l/m 6,2 km/h (2 Bft) S-SW 205 0 min 0,000 mm 0,0 UV-I 0 W/m -0,7 C 0,3 C 8,0 km/h (2 Bft) 100,00 %
26.02.2016 04:59 0,3 C 93 % 1014,5 hPa 0,0 l/m 5,4 km/h (1 Bft) SW 217 0 min 0,000 mm 0,0 UV-I 0 W/m -0,7 C 0,3 C 8,0 km/h (2 Bft) 100,00 %
26.02.2016 05:00 0,3 C 93 % 1014,5 hPa 0,0 l/m 4,5 km/h (1 Bft) SW 214 0 min 0,000 mm 0,0 UV-I 0 W/m -0,7 C 0,3 C 6,4 km/h (2 Bft) 100,00 %
26.02.2016 05:01 0,3 C 93 % 1014,5 hPa 0,0 l/m 6,2 km/h (2 Bft) S-SW 202 0 min 0,000 mm 0,0 UV-I 0 W/m -0,7 C 0,3 C 8,0 km/h (2 Bft) 100,00 %
26.02.2016 05:02 0,3 C 93 % 1014,5 hPa 0,0 l/m 5,2 km/h (1 Bft) S-SW 194 0 min 0,000 mm 0,0 UV-I 0 W/m -0,7 C 0,3 C 8,0 km/h (2 Bft) 100,00 %
26.02.2016 05:03 0,3 C 94 % 1014,4 hPa 0,0 l/m 3,7 km/h (1 Bft) S 180 0 min 0,000 mm 0,0 UV-I 0 W/m -0,5 C 0,3 C 4,8 km/h (1 Bft) 100,00 %
26.02.2016 05:04 0,3 C 94 % 1014,5 hPa 0,0 l/m 5,2 km/h (1 Bft) S-SW 200 0 min 0,000 mm 0,0 UV-I 0 W/m -0,5 C 0,3 C 6,4 km/h (2 Bft) 100,00 %
26.02.2016 05:05 0,3 C 94 % 1014,4 hPa 0,0 l/m 4,7 km/h (1 Bft) S-SW 207 0 min 0,000 mm 0,0 UV-I 0 W/m -0,5 C 0,3 C 6,4 km/h (2 Bft) 100,00 %
26.02.2016 05:06 0,3 C 94 % 1014,5 hPa 0,0 l/m 4,5 km/h (1 Bft) S 176 0 min 0,000 mm 0,0 UV-I 0 W/m -0,5 C 0,3 C 6,4 km/h (2 Bft) 100,00 %
26.02.2016 05:07 0,3 C 94 % 1014,4 hPa 0,0 l/m 4,8 km/h (1 Bft) S 178 0 min 0,000 mm 0,0 UV-I 0 W/m -0,5 C 0,3 C 6,4 km/h (2 Bft) 100,00 %
26.02.2016 05:08 0,3 C 94 % 1014,4 hPa 0,0 l/m 4,5 km/h (1 Bft) S 179 0 min 0,000 mm 0,0 UV-I 0 W/m -0,5 C 0,3 C 6,4 km/h (2 Bft) 95,65 %
26.02.2016 05:09 0,3 C 94 % 1014,5 hPa 0,0 l/m 4,1 km/h (1 Bft) S-SO 167 0 min 0,000 mm 0,0 UV-I 0 W/m -0,5 C 0,3 C 6,4 km/h (2 Bft) 100,00 %
26.02.2016 05:10 0,3 C 94 % 1014,5 hPa 0,0 l/m 4,2 km/h (1 Bft) S 180 0 min 0,000 mm 0,0 UV-I 0 W/m -0,5 C 0,3 C 4,8 km/h (1 Bft) 100,00 %
26.02.2016 05:11 0,3 C 94 % 1014,4 hPa 0,0 l/m 4,8 km/h (1 Bft) S 178 0 min 0,000 mm 0,0 UV-I 0 W/m -0,5 C 0,3 C 6,4 km/h (2 Bft) 100,00 %
26.02.2016 05:12 0,3 C 94 % 1014,4 hPa 0,0 l/m 3,7 km/h (1 Bft) S 184 0 min 0,000 mm 0,0 UV-I 0 W/m -0,5 C 0,3 C 4,8 km/h (1 Bft) 100,00 %
26.02.2016 05:13 0,3 C 94 % 1014,4 hPa 0,0 l/m 4,8 km/h (1 Bft) S 169 0 min 0,000 mm 0,0 UV-I 0 W/m -0,5 C 0,3 C 8,0 km/h (2 Bft) 100,00 %
26.02.2016 05:14 0,3 C 94 % 1014,3 hPa 0,0 l/m 5,4 km/h (1 Bft) S-SW 195 0 min 0,000 mm 0,0 UV-I 0 W/m -0,5 C 0,3 C 6,4 km/h (2 Bft) 100,00 %
26.02.2016 05:15 0,3 C 94 % 1014,3 hPa 0,0 l/m 5,5 km/h (1 Bft) S 185 0 min 0,000 mm 0,0 UV-I 0 W/m -0,5 C 0,3 C 6,4 km/h (2 Bft) 100,00 %
26.02.2016 05:16 0,3 C 94 % 1014,3 hPa 0,0 l/m 3,4 km/h (1 Bft) S 185 0 min 0,000 mm 0,0 UV-I 0 W/m -0,5 C 0,3 C 4,8 km/h (1 Bft) 95,65 %
26.02.2016 05:17 0,3 C 94 % 1014,3 hPa 0,0 l/m 5,4 km/h (1 Bft) S-SW 195 0 min 0,000 mm 0,0 UV-I 0 W/m -0,5 C 0,3 C 6,4 km/h (2 Bft) 95,83 %
26.02.2016 05:18 0,3 C 94 % 1014,3 hPa 0,0 l/m 3,6 km/h (1 Bft) S-SW 194 0 min 0,000 mm 0,0 UV-I 0 W/m -0,5 C 0,3 C 4,8 km/h (1 Bft) 100,00 %
26.02.2016 05:19 0,3 C 94 % 1014,4 hPa 0,0 l/m 4,2 km/h (1 Bft) S-SW 194 0 min 0,000 mm 0,0 UV-I 0 W/m -0,5 C 0,3 C 4,8 km/h (1 Bft) 100,00 %
26.02.2016 05:20 0,3 C 94 % 1014,4 hPa 0,0 l/m 5,1 km/h (1 Bft) S-SW 192 0 min 0,000 mm 0,0 UV-I 0 W/m -0,5 C 0,3 C 6,4 km/h (2 Bft) 95,65 %
26.02.2016 05:21 0,3 C 94 % 1014,4 hPa 0,0 l/m 4,7 km/h (1 Bft) S 191 0 min 0,000 mm 0,0 UV-I 0 W/m -0,5 C 0,3 C 6,4 km/h (2 Bft) 100,00 %
26.02.2016 05:22 0,3 C 94 % 1014,4 hPa 0,0 l/m 5,0 km/h (1 Bft) S-SW 192 0 min 0,000 mm 0,0 UV-I 0 W/m -0,5 C 0,3 C 8,0 km/h (2 Bft) 91,30 %
26.02.2016 05:23 0,3 C 94 % 1014,4 hPa 0,0 l/m 3,8 km/h (1 Bft) S 191 0 min 0,000 mm 0,0 UV-I 0 W/m -0,5 C 0,3 C 4,8 km/h (1 Bft) 100,00 %
26.02.2016 05:24 0,2 C 94 % 1014,4 hPa 0,0 l/m 5,2 km/h (1 Bft) S 189 0 min 0,000 mm 0,0 UV-I 0 W/m -0,6 C 0,2 C 8,0 km/h (2 Bft) 95,65 %
26.02.2016 05:25 0,2 C 94 % 1014,4 hPa 0,0 l/m 4,4 km/h (1 Bft) S 180 0 min 0,000 mm 0,0 UV-I 0 W/m -0,6 C 0,2 C 6,4 km/h (2 Bft) 100,00 %
26.02.2016 05:26 0,2 C 94 % 1014,4 hPa 0,0 l/m 5,9 km/h (2 Bft) S 189 0 min 0,000 mm 0,0 UV-I 0 W/m -0,6 C 0,2 C 8,0 km/h (2 Bft) 95,65 %
26.02.2016 05:27 0,2 C 94 % 1014,4 hPa 0,0 l/m 4,8 km/h (1 Bft) S 170 0 min 0,000 mm 0,0 UV-I 0 W/m -0,6 C 0,2 C 6,4 km/h (2 Bft) 100,00 %
26.02.2016 05:28 0,2 C 94 % 1014,4 hPa 0,0 l/m 4,3 km/h (1 Bft) S 170 0 min 0,000 mm 0,0 UV-I 0 W/m -0,6 C 0,2 C 8,0 km/h (2 Bft) 100,00 %
26.02.2016 05:29 0,2 C 94 % 1014,4 hPa 0,0 l/m 5,1 km/h (1 Bft) S 180 0 min 0,000 mm 0,0 UV-I 0 W/m -0,6 C 0,2 C 6,4 km/h (2 Bft) 100,00 %
26.02.2016 05:30 0,2 C 94 % 1014,4 hPa 0,0 l/m 4,6 km/h (1 Bft) S 178 0 min 0,000 mm 0,0 UV-I 0 W/m -0,6 C 0,2 C 6,4 km/h (2 Bft) 100,00 %
26.02.2016 05:31 0,2 C 94 % 1014,4 hPa 0,0 l/m 5,5 km/h (1 Bft) SW 214 0 min 0,000 mm 0,0 UV-I 0 W/m -0,6 C 0,2 C 8,0 km/h (2 Bft) 100,00 %
26.02.2016 05:32 0,2 C 94 % 1014,4 hPa 0,0 l/m 6,0 km/h (2 Bft) S-SW 196 0 min 0,000 mm 0,0 UV-I 0 W/m -0,6 C 0,2 C 8,0 km/h (2 Bft) 100,00 %
26.02.2016 05:33 0,2 C 94 % 1014,4 hPa 0,0 l/m 5,4 km/h (1 Bft) S-SW 204 0 min 0,000 mm 0,0 UV-I 0 W/m -0,6 C 0,2 C 6,4 km/h (2 Bft) 95,65 %
26.02.2016 05:34 0,2 C 94 % 1014,4 hPa 0,0 l/m 4,5 km/h (1 Bft) S 189 0 min 0,000 mm 0,0 UV-I 0 W/m -0,6 C 0,2 C 6,4 km/h (2 Bft) 95,83 %
26.02.2016 05:35 0,2 C 94 % 1014,4 hPa 0,0 l/m 4,3 km/h (1 Bft) S 186 0 min 0,000 mm 0,0 UV-I 0 W/m -0,6 C 0,2 C 6,4 km/h (2 Bft) 91,30 %
26.02.2016 05:36 0,2 C 94 % 1014,4 hPa 0,0 l/m 4,1 km/h (1 Bft) S 186 0 min 0,000 mm 0,0 UV-I 0 W/m -0,6 C 0,2 C 6,4 km/h (2 Bft) 95,83 %
26.02.2016 05:37 0,2 C 94 % 1014,4 hPa 0,0 l/m 4,6 km/h (1 Bft) S-SW 211 0 min 0,000 mm 0,0 UV-I 0 W/m -0,6 C 0,2 C 6,4 km/h (2 Bft) 100,00 %
26.02.2016 05:38 0,2 C 94 % 1014,4 hPa 0,0 l/m 5,0 km/h (1 Bft) S 181 0 min 0,000 mm 0,0 UV-I 0 W/m -0,6 C 0,2 C 6,4 km/h (2 Bft) 91,67 %
26.02.2016 05:39 0,1 C 94 % 1014,5 hPa 0,0 l/m 5,0 km/h (1 Bft) S-SW 192 0 min 0,000 mm 0,0 UV-I 0 W/m -0,7 C 0,1 C 8,0 km/h (2 Bft) 95,65 %
26.02.2016 05:40 0,2 C 93 % 1014,5 hPa 0,0 l/m 4,6 km/h (1 Bft) S-SO 167 0 min 0,000 mm 0,0 UV-I 0 W/m -0,8 C 0,2 C 8,0 km/h (2 Bft) 95,83 %
26.02.2016 05:41 0,1 C 93 % 1014,5 hPa 0,0 l/m 8,5 km/h (2 Bft) S 184 0 min 0,000 mm 0,0 UV-I 0 W/m -0,9 C -2,0 C 11,3 km/h (2 Bft) 100,00 %
26.02.2016 05:42 0,2 C 93 % 1014,5 hPa 0,0 l/m 4,8 km/h (1 Bft) S-SW 196 0 min 0,000 mm 0,0 UV-I 0 W/m -0,8 C 0,2 C 6,4 km/h (2 Bft) 95,83 %
26.02.2016 05:43 0,2 C 93 % 1014,5 hPa 0,0 l/m 6,8 km/h (2 Bft) S-SW 207 0 min 0,000 mm 0,0 UV-I 0 W/m -0,8 C -0,2 C 9,7 km/h (2 Bft) 95,65 %
26.02.2016 05:44 0,2 C 94 % 1014,5 hPa 0,0 l/m 4,8 km/h (1 Bft) SW 218 0 min 0,000 mm 0,0 UV-I 0 W/m -0,6 C 0,2 C 6,4 km/h (2 Bft) 91,67 %
26.02.2016 05:45 0,1 C 93 % 1014,5 hPa 0,0 l/m 3,7 km/h (1 Bft) S 188 0 min 0,000 mm 0,0 UV-I 0 W/m -0,9 C 0,1 C 4,8 km/h (1 Bft) 100,00 %
26.02.2016 05:46 0,2 C 93 % 1014,5 hPa 0,0 l/m 5,8 km/h (2 Bft) S 172 0 min 0,000 mm 0,0 UV-I 0 W/m -0,8 C 0,2 C 8,0 km/h (2 Bft) 96,15 %
26.02.2016 05:47 0,1 C 94 % 1014,5 hPa 0,0 l/m 4,2 km/h (1 Bft) S-SW 200 0 min 0,000 mm 0,0 UV-I 0 W/m -0,7 C 0,1 C 6,4 km/h (2 Bft) 95,83 %
26.02.2016 05:48 0,2 C 93 % 1014,5 hPa 0,0 l/m 6,6 km/h (2 Bft) S-SW 192 0 min 0,000 mm 0,0 UV-I 0 W/m -0,8 C 0,0 C 8,0 km/h (2 Bft) 100,00 %
26.02.2016 05:49 0,1 C 93 % 1014,5 hPa 0,0 l/m 4,3 km/h (1 Bft) S 173 0 min 0,000 mm 0,0 UV-I 0 W/m -0,9 C 0,1 C 6,4 km/h (2 Bft) 95,83 %
26.02.2016 05:50 0,2 C 93 % 1014,5 hPa 0,0 l/m 5,8 km/h (2 Bft) S 188 0 min 0,000 mm 0,0 UV-I 0 W/m -0,8 C 0,2 C 9,7 km/h (2 Bft) 95,65 %
26.02.2016 05:51 0,1 C 93 % 1014,5 hPa 0,0 l/m 5,3 km/h (1 Bft) S 183 0 min 0,000 mm 0,0 UV-I 0 W/m -0,9 C 0,1 C 6,4 km/h (2 Bft) 95,83 %
26.02.2016 05:52 0,1 C 93 % 1014,5 hPa 0,0 l/m 7,2 km/h (2 Bft) S-SW 192 0 min 0,000 mm 0,0 UV-I 0 W/m -0,9 C -0,7 C 9,7 km/h (2 Bft) 95,65 %
26.02.2016 05:53 0,1 C 93 % 1014,5 hPa 0,0 l/m 5,7 km/h (1 Bft) S-SW 205 0 min 0,000 mm 0,0 UV-I 0 W/m -0,9 C 0,1 C 6,4 km/h (2 Bft) 95,83 %
26.02.2016 05:54 0,1 C 93 % 1014,5 hPa 0,0 l/m 3,9 km/h (1 Bft) SW 217 0 min 0,000 mm 0,0 UV-I 0 W/m -0,9 C 0,1 C 6,4 km/h (2 Bft) 100,00 %
26.02.2016 05:55 0,1 C 93 % 1014,6 hPa 0,0 l/m 6,3 km/h (2 Bft) S-SW 200 0 min 0,000 mm 0,0 UV-I 0 W/m -0,9 C 0,1 C 9,7 km/h (2 Bft) 95,83 %
26.02.2016 05:56 0,1 C 94 % 1014,6 hPa 0,0 l/m 5,1 km/h (1 Bft) S 188 0 min 0,000 mm 0,0 UV-I 0 W/m -0,7 C 0,1 C 6,4 km/h (2 Bft) 91,30 %
26.02.2016 05:57 0,1 C 94 % 1014,6 hPa 0,0 l/m 4,2 km/h (1 Bft) S 179 0 min 0,000 mm 0,0 UV-I 0 W/m -0,7 C 0,1 C 6,4 km/h (2 Bft) 100,00 %
26.02.2016 05:58 0,1 C 93 % 1014,5 hPa 0,0 l/m 5,1 km/h (1 Bft) SW 230 0 min 0,000 mm 0,0 UV-I 0 W/m -0,9 C 0,1 C 6,4 km/h (2 Bft) 95,65 %
26.02.2016 05:59 0,1 C 93 % 1014,5 hPa 0,0 l/m 4,0 km/h (1 Bft) S 191 0 min 0,000 mm 0,0 UV-I 0 W/m -0,9 C 0,1 C 4,8 km/h (1 Bft) 100,00 %
26.02.2016 06:00 0,1 C 93 % 1014,5 hPa 0,0 l/m 5,6 km/h (1 Bft) W-SW 258 0 min 0,000 mm 0,0 UV-I 0 W/m -0,9 C 0,1 C 6,4 km/h (2 Bft) 95,65 %
26.02.2016 06:01 0,1 C 93 % 1014,6 hPa 0,0 l/m 4,6 km/h (1 Bft) SW 231 0 min 0,000 mm 0,0 UV-I 0 W/m -0,9 C 0,1 C 6,4 km/h (2 Bft) 95,83 %
26.02.2016 06:02 0,1 C 93 % 1014,6 hPa 0,0 l/m 4,6 km/h (1 Bft) W-SW 240 0 min 0,000 mm 0,0 UV-I 0 W/m -0,9 C 0,1 C 6,4 km/h (2 Bft) 95,65 %
26.02.2016 06:03 0,1 C 93 % 1014,6 hPa 0,0 l/m 5,6 km/h (1 Bft) SW 232 0 min 0,000 mm 0,0 UV-I 0 W/m -0,9 C 0,1 C 8,0 km/h (2 Bft) 95,83 %
26.02.2016 06:04 0,1 C 93 % 1014,6 hPa 0,0 l/m 3,8 km/h (1 Bft) SW 229 0 min 0,000 mm 0,0 UV-I 0 W/m -0,9 C 0,1 C 6,4 km/h (2 Bft) 100,00 %
26.02.2016 06:05 0,1 C 93 % 1014,5 hPa 0,0 l/m 4,1 km/h (1 Bft) S-SW 205 0 min 0,000 mm 0,0 UV-I 0 W/m -0,9 C 0,1 C 6,4 km/h (2 Bft) 91,30 %
26.02.2016 06:06 0,1 C 93 % 1014,5 hPa 0,0 l/m 3,4 km/h (1 Bft) S-SW 209 0 min 0,000 mm 0,0 UV-I 0 W/m -0,9 C 0,1 C 4,8 km/h (1 Bft) 95,83 %
26.02.2016 06:07 0,1 C 93 % 1014,5 hPa 0,0 l/m 4,5 km/h (1 Bft) S-SW 196 0 min 0,000 mm 0,0 UV-I 0 W/m -0,9 C 0,1 C 6,4 km/h (2 Bft) 91,30 %
26.02.2016 06:08 0,1 C 93 % 1014,5 hPa 0,0 l/m 6,0 km/h (2 Bft) S-SW 199 0 min 0,000 mm 0,0 UV-I 0 W/m -0,9 C 0,1 C 8,0 km/h (2 Bft) 100,00 %
26.02.2016 06:09 0,1 C 93 % 1014,5 hPa 0,0 l/m 5,7 km/h (1 Bft) S 179 0 min 0,000 mm 0,0 UV-I 0 W/m -0,9 C 0,1 C 8,0 km/h (2 Bft) 95,65 %
26.02.2016 06:10 0,1 C 93 % 1014,6 hPa 0,0 l/m 5,8 km/h (2 Bft) S-SW 201 0 min 0,000 mm 0,0 UV-I 0 W/m -0,9 C 0,1 C 8,0 km/h (2 Bft) 100,00 %
26.02.2016 06:11 0,1 C 93 % 1014,6 hPa 0,0 l/m 7,2 km/h (2 Bft) S 173 0 min 0,000 mm 0,0 UV-I 0 W/m -0,9 C -0,7 C 9,7 km/h (2 Bft) 95,65 %
26.02.2016 06:12 0,1 C 93 % 1014,6 hPa 0,0 l/m 8,2 km/h (2 Bft) S-SW 207 0 min 0,000 mm 0,0 UV-I 0 W/m -0,9 C -1,7 C 9,7 km/h (2 Bft) 100,00 %
26.02.2016 06:13 0,1 C 93 % 1014,6 hPa 0,0 l/m 6,5 km/h (2 Bft) SW 215 0 min 0,000 mm 0,0 UV-I 0 W/m -0,9 C 0,0 C 9,7 km/h (2 Bft) 100,00 %
26.02.2016 06:14 0,1 C 93 % 1014,6 hPa 0,0 l/m 7,2 km/h (2 Bft) S-SW 205 0 min 0,000 mm 0,0 UV-I 0 W/m -0,9 C -0,7 C 9,7 km/h (2 Bft) 100,00 %
26.02.2016 06:15 0,1 C 93 % 1014,5 hPa 0,0 l/m 6,1 km/h (2 Bft) S-SW 209 0 min 0,000 mm 0,0 UV-I 0 W/m -0,9 C 0,1 C 8,0 km/h (2 Bft) 100,00 %
26.02.2016 06:16 0,1 C 93 % 1014,5 hPa 0,0 l/m 6,5 km/h (2 Bft) S-SW 202 0 min 0,000 mm 0,0 UV-I 0 W/m -0,9 C 0,0 C 8,0 km/h (2 Bft) 91,67 %
26.02.2016 06:17 0,1 C 93 % 1014,6 hPa 0,0 l/m 5,8 km/h (2 Bft) S-SW 204 0 min 0,000 mm 0,0 UV-I 0 W/m -0,9 C 0,1 C 8,0 km/h (2 Bft) 100,00 %
26.02.2016 06:18 0,1 C 93 % 1014,5 hPa 0,0 l/m 6,4 km/h (2 Bft) S 187 0 min 0,000 mm 0,0 UV-I 0 W/m -0,9 C 0,1 C 8,0 km/h (2 Bft) 95,83 %
26.02.2016 06:19 0,1 C 93 % 1014,5 hPa 0,0 l/m 7,7 km/h (2 Bft) S-SW 192 0 min 0,000 mm 0,0 UV-I 0 W/m -0,9 C -1,2 C 9,7 km/h (2 Bft) 100,00 %
26.02.2016 06:20 0,1 C 93 % 1014,5 hPa 0,0 l/m 8,2 km/h (2 Bft) S-SW 203 0 min 0,000 mm 0,0 UV-I 0 W/m -0,9 C -1,7 C 9,7 km/h (2 Bft) 97,37 %
26.02.2016 06:21 0,0 C 93 % 1014,5 hPa 0,0 l/m 8,1 km/h (2 Bft) S 182 0 min 0,000 mm 0,0 UV-I 0 W/m -1,0 C -1,7 C 11,3 km/h (2 Bft) 100,00 %
26.02.2016 06:22 0,1 C 93 % 1014,5 hPa 0,0 l/m 9,3 km/h (2 Bft) S-SW 206 0 min 0,000 mm 0,0 UV-I 0 W/m -0,9 C -2,7 C 12,9 km/h (3 Bft) 100,00 %
26.02.2016 06:23 0,1 C 93 % 1014,5 hPa 0,0 l/m 9,8 km/h (2 Bft) SW 215 0 min 0,000 mm 0,0 UV-I 0 W/m -0,9 C -3,2 C 11,3 km/h (2 Bft) 96,15 %
26.02.2016 06:24 0,1 C 93 % 1014,5 hPa 0,0 l/m 8,9 km/h (2 Bft) S-SW 205 0 min 0,000 mm 0,0 UV-I 0 W/m -0,9 C -2,4 C 12,9 km/h (3 Bft) 100,00 %
26.02.2016 06:25 0,1 C 93 % 1014,5 hPa 0,0 l/m 7,0 km/h (2 Bft) S 188 0 min 0,000 mm 0,0 UV-I 0 W/m -0,9 C -0,5 C 9,7 km/h (2 Bft) 95,65 %
26.02.2016 06:26 0,1 C 93 % 1014,5 hPa 0,0 l/m 8,1 km/h (2 Bft) S-SW 198 0 min 0,000 mm 0,0 UV-I 0 W/m -0,9 C -1,6 C 12,9 km/h (3 Bft) 95,83 %
26.02.2016 06:27 0,1 C 94 % 1014,5 hPa 0,0 l/m 8,4 km/h (2 Bft) SW 221 0 min 0,000 mm 0,0 UV-I 0 W/m -0,7 C -1,9 C 11,3 km/h (2 Bft) 100,00 %
26.02.2016 06:28 0,1 C 94 % 1014,5 hPa 0,0 l/m 6,0 km/h (2 Bft) S 178 0 min 0,000 mm 0,0 UV-I 0 W/m -0,7 C 0,1 C 9,7 km/h (2 Bft) 100,00 %
26.02.2016 06:29 0,0 C 94 % 1014,5 hPa 0,0 l/m 5,2 km/h (1 Bft) S 190 0 min 0,000 mm 0,0 UV-I 0 W/m -0,8 C 0,0 C 8,0 km/h (2 Bft) 100,00 %
26.02.2016 06:30 0,1 C 94 % 1014,6 hPa 0,0 l/m 3,5 km/h (1 Bft) S 190 0 min 0,000 mm 0,0 UV-I 0 W/m -0,7 C 0,1 C 6,4 km/h (2 Bft) 100,00 %
26.02.2016 06:31 0,1 C 94 % 1014,6 hPa 0,0 l/m 4,9 km/h (1 Bft) SW 215 0 min 0,000 mm 0,0 UV-I 0 W/m -0,7 C 0,1 C 9,7 km/h (2 Bft) 100,00 %
26.02.2016 06:32 0,1 C 94 % 1014,6 hPa 0,0 l/m 5,5 km/h (1 Bft) S 172 0 min 0,000 mm 0,0 UV-I 0 W/m -0,7 C 0,1 C 8,0 km/h (2 Bft) 100,00 %
26.02.2016 06:33 0,1 C 94 % 1014,6 hPa 0,0 l/m 7,2 km/h (2 Bft) SW 221 0 min 0,000 mm 0,0 UV-I 0 W/m -0,7 C -0,7 C 9,7 km/h (2 Bft) 100,00 %
26.02.2016 06:34 0,1 C 94 % 1014,6 hPa 0,0 l/m 6,4 km/h (2 Bft) S 182 0 min 0,000 mm 0,0 UV-I 0 W/m -0,7 C 0,1 C 9,7 km/h (2 Bft) 100,00 %
26.02.2016 06:35 0,1 C 94 % 1014,6 hPa 0,0 l/m 10,5 km/h (2 Bft) S 183 0 min 0,000 mm 0,0 UV-I 0 W/m -0,7 C -3,7 C 14,5 km/h (3 Bft) 95,83 %
26.02.2016 06:36 0,1 C 94 % 1014,5 hPa 0,0 l/m 8,6 km/h (2 Bft) S-SW 206 0 min 0,000 mm 0,0 UV-I 0 W/m -0,7 C -2,1 C 12,9 km/h (3 Bft) 100,00 %
26.02.2016 06:37 0,1 C 94 % 1014,5 hPa 0,0 l/m 7,0 km/h (2 Bft) S 182 0 min 0,000 mm 0,0 UV-I 0 W/m -0,7 C -0,5 C 9,7 km/h (2 Bft) 100,00 %
26.02.2016 06:38 0,1 C 94 % 1014,5 hPa 0,0 l/m 8,3 km/h (2 Bft) SW 222 0 min 0,000 mm 0,0 UV-I 0 W/m -0,7 C -1,8 C 11,3 km/h (2 Bft) 95,65 %
26.02.2016 06:39 0,1 C 94 % 1014,6 hPa 0,0 l/m 7,0 km/h (2 Bft) S-SW 210 0 min 0,000 mm 0,0 UV-I 0 W/m -0,7 C -0,5 C 11,3 km/h (2 Bft) 100,00 %
26.02.2016 06:40 0,1 C 94 % 1014,6 hPa 0,0 l/m 8,6 km/h (2 Bft) S-SW 211 0 min 0,000 mm 0,0 UV-I 0 W/m -0,7 C -2,1 C 16,1 km/h (3 Bft) 100,00 %
26.02.2016 06:41 0,1 C 94 % 1014,6 hPa 0,0 l/m 6,9 km/h (2 Bft) S 182 0 min 0,000 mm 0,0 UV-I 0 W/m -0,7 C -0,4 C 11,3 km/h (2 Bft) 95,65 %
26.02.2016 06:42 0,1 C 94 % 1014,5 hPa 0,0 l/m 8,9 km/h (2 Bft) SW 224 0 min 0,000 mm 0,0 UV-I 0 W/m -0,7 C -2,4 C 12,9 km/h (3 Bft) 100,00 %
26.02.2016 06:43 0,1 C 94 % 1014,6 hPa 0,0 l/m 7,8 km/h (2 Bft) SW 223 0 min 0,000 mm 0,0 UV-I 0 W/m -0,7 C -1,3 C 9,7 km/h (2 Bft) 95,83 %
26.02.2016 06:44 0,1 C 94 % 1014,5 hPa 0,0 l/m 6,6 km/h (2 Bft) SW 219 0 min 0,000 mm 0,0 UV-I 0 W/m -0,7 C -0,1 C 9,7 km/h (2 Bft) 100,00 %
26.02.2016 06:45 0,1 C 94 % 1014,6 hPa 0,0 l/m 8,5 km/h (2 Bft) S 173 0 min 0,000 mm 0,0 UV-I 0 W/m -0,7 C -2,0 C 11,3 km/h (2 Bft) 100,00 %
26.02.2016 06:46 0,1 C 94 % 1014,6 hPa 0,0 l/m 7,6 km/h (2 Bft) S-SW 209 0 min 0,000 mm 0,0 UV-I 0 W/m -0,7 C -1,1 C 11,3 km/h (2 Bft) 100,00 %
26.02.2016 06:47 0,1 C 94 % 1014,6 hPa 0,0 l/m 6,1 km/h (2 Bft) S-SW 213 0 min 0,000 mm 0,0 UV-I 0 W/m -0,7 C 0,1 C 8,0 km/h (2 Bft) 100,00 %
26.02.2016 06:48 0,1 C 94 % 1014,6 hPa 0,0 l/m 8,5 km/h (2 Bft) S-SW 213 0 min 0,000 mm 0,0 UV-I 0 W/m -0,7 C -2,0 C 11,3 km/h (2 Bft) 100,00 %
26.02.2016 06:49 0,1 C 94 % 1014,6 hPa 0,0 l/m 7,3 km/h (2 Bft) S 186 0 min 0,000 mm 0,0 UV-I 0 W/m -0,7 C -0,8 C 9,7 km/h (2 Bft) 100,00 %
26.02.2016 06:50 0,1 C 94 % 1014,6 hPa 0,0 l/m 8,7 km/h (2 Bft) W-SW 248 0 min 0,000 mm 0,0 UV-I 0 W/m -0,7 C -2,2 C 12,9 km/h (3 Bft) 100,00 %
26.02.2016 06:51 0,2 C 94 % 1014,6 hPa 0,0 l/m 6,7 km/h (2 Bft) SW 235 0 min 0,000 mm 0,0 UV-I 0 W/m -0,6 C -0,1 C 11,3 km/h (2 Bft) 100,00 %
26.02.2016 06:52 0,2 C 94 % 1014,6 hPa 0,0 l/m 7,4 km/h (2 Bft) S-SW 213 0 min 0,000 mm 0,0 UV-I 0 W/m -0,6 C -0,8 C 9,7 km/h (2 Bft) 95,83 %
26.02.2016 06:53 0,2 C 93 % 1014,6 hPa 0,0 l/m 6,2 km/h (2 Bft) SW 229 0 min 0,000 mm 0,0 UV-I 0 W/m -0,8 C 0,2 C 9,7 km/h (2 Bft) 100,00 %
26.02.2016 06:54 0,2 C 94 % 1014,6 hPa 0,0 l/m 8,0 km/h (2 Bft) SW 215 0 min 0,000 mm 0,0 UV-I 0 W/m -0,6 C -1,4 C 12,9 km/h (3 Bft) 100,00 %
26.02.2016 06:55 0,2 C 93 % 1014,6 hPa 0,0 l/m 6,9 km/h (2 Bft) W-SW 238 0 min 0,000 mm 0,0 UV-I 0 W/m -0,8 C -0,3 C 11,3 km/h (2 Bft) 100,00 %
26.02.2016 06:56 0,2 C 93 % 1014,6 hPa 0,0 l/m 10,7 km/h (2 Bft) SW 227 0 min 0,000 mm 0,0 UV-I 0 W/m -0,8 C -3,8 C 17,7 km/h (3 Bft) 100,00 %
26.02.2016 06:57 0,2 C 93 % 1014,6 hPa 0,0 l/m 10,3 km/h (2 Bft) S-SO 167 0 min 0,000 mm 0,0 UV-I 0 W/m -0,8 C -3,5 C 16,1 km/h (3 Bft) 100,00 %
26.02.2016 06:58 0,2 C 93 % 1014,6 hPa 0,0 l/m 8,7 km/h (2 Bft) S-SW 195 0 min 0,000 mm 0,0 UV-I 0 W/m -0,8 C -2,1 C 12,9 km/h (3 Bft) 100,00 %
26.02.2016 06:59 0,2 C 93 % 1014,6 hPa 0,0 l/m 9,1 km/h (2 Bft) S 169 0 min 0,000 mm 0,0 UV-I 0 W/m -0,8 C -2,5 C 12,9 km/h (3 Bft) 100,00 %
26.02.2016 07:00 0,2 C 93 % 1014,6 hPa 0,0 l/m 5,3 km/h (1 Bft) W-SW 244 0 min 0,000 mm 0,0 UV-I 2 W/m -0,8 C 0,2 C 11,3 km/h (2 Bft) 100,00 %
26.02.2016 07:01 0,2 C 93 % 1014,6 hPa 0,0 l/m 8,0 km/h (2 Bft) SW 228 0 min 0,000 mm 0,0 UV-I 5 W/m -0,8 C -1,4 C 11,3 km/h (2 Bft) 100,00 %
26.02.2016 07:02 0,2 C 93 % 1014,7 hPa 0,0 l/m 6,1 km/h (2 Bft) S 190 0 min 0,000 mm 0,0 UV-I 5 W/m -0,8 C 0,2 C 9,7 km/h (2 Bft) 100,00 %
26.02.2016 07:03 0,2 C 93 % 1014,6 hPa 0,0 l/m 6,8 km/h (2 Bft) SW 223 0 min 0,000 mm 0,0 UV-I 5 W/m -0,8 C -0,2 C 8,0 km/h (2 Bft) 100,00 %
26.02.2016 07:04 0,2 C 93 % 1014,6 hPa 0,0 l/m 6,7 km/h (2 Bft) SW 232 0 min 0,000 mm 0,0 UV-I 5 W/m -0,8 C -0,1 C 9,7 km/h (2 Bft) 100,00 %
26.02.2016 07:05 0,2 C 93 % 1014,6 hPa 0,0 l/m 5,6 km/h (1 Bft) S 190 0 min 0,000 mm 0,0 UV-I 5 W/m -0,8 C 0,2 C 8,0 km/h (2 Bft) 100,00 %
26.02.2016 07:06 0,2 C 93 % 1014,6 hPa 0,0 l/m 7,6 km/h (2 Bft) S-SW 202 0 min 0,000 mm 0,0 UV-I 5 W/m -0,8 C -1,0 C 9,7 km/h (2 Bft) 100,00 %
26.02.2016 07:07 0,2 C 93 % 1014,6 hPa 0,0 l/m 7,4 km/h (2 Bft) S 191 0 min 0,000 mm 0,0 UV-I 6 W/m -0,8 C -0,8 C 11,3 km/h (2 Bft) 100,00 %
26.02.2016 07:08 0,2 C 93 % 1014,7 hPa 0,0 l/m 8,1 km/h (2 Bft) SW 214 0 min 0,000 mm 0,0 UV-I 7 W/m -0,8 C -1,5 C 11,3 km/h (2 Bft) 100,00 %
26.02.2016 07:09 0,2 C 93 % 1014,6 hPa 0,0 l/m 7,8 km/h (2 Bft) S 182 0 min 0,000 mm 0,0 UV-I 7 W/m -0,8 C -1,2 C 11,3 km/h (2 Bft) 95,83 %
26.02.2016 07:10 0,3 C 92 % 1014,7 hPa 0,0 l/m 6,6 km/h (2 Bft) S-SW 198 0 min 0,000 mm 0,0 UV-I 7 W/m -0,8 C 0,1 C 9,7 km/h (2 Bft) 100,00 %
26.02.2016 07:11 0,2 C 92 % 1014,7 hPa 0,0 l/m 7,8 km/h (2 Bft) S 175 0 min 0,000 mm 0,0 UV-I 9 W/m -0,9 C -1,2 C 12,9 km/h (3 Bft) 100,00 %
26.02.2016 07:12 0,2 C 93 % 1014,7 hPa 0,0 l/m 8,8 km/h (2 Bft) SW 215 0 min 0,000 mm 0,0 UV-I 9 W/m -0,8 C -2,2 C 11,3 km/h (2 Bft) 100,00 %
26.02.2016 07:13 0,3 C 93 % 1014,7 hPa 0,0 l/m 8,2 km/h (2 Bft) S 191 0 min 0,000 mm 0,0 UV-I 9 W/m -0,7 C -1,5 C 9,7 km/h (2 Bft) 100,00 %
26.02.2016 07:14 0,2 C 93 % 1014,7 hPa 0,0 l/m 8,9 km/h (2 Bft) S 182 0 min 0,000 mm 0,0 UV-I 10 W/m -0,8 C -2,3 C 11,3 km/h (2 Bft) 95,65 %
26.02.2016 07:15 0,3 C 93 % 1014,7 hPa 0,0 l/m 9,2 km/h (2 Bft) S 188 0 min 0,000 mm 0,0 UV-I 11 W/m -0,7 C -2,4 C 12,9 km/h (3 Bft) 95,83 %
26.02.2016 07:16 0,3 C 92 % 1014,7 hPa 0,0 l/m 8,5 km/h (2 Bft) SW 229 0 min 0,000 mm 0,0 UV-I 11 W/m -0,8 C -1,8 C 12,9 km/h (3 Bft) 100,00 %
26.02.2016 07:17 0,3 C 92 % 1014,7 hPa 0,0 l/m 6,6 km/h (2 Bft) S-SW 201 0 min 0,000 mm 0,0 UV-I 11 W/m -0,8 C 0,1 C 9,7 km/h (2 Bft) 100,00 %
26.02.2016 07:18 0,2 C 92 % 1014,8 hPa 0,0 l/m 8,2 km/h (2 Bft) S-SW 209 0 min 0,000 mm 0,0 UV-I 12 W/m -0,9 C -1,6 C 11,3 km/h (2 Bft) 100,00 %
26.02.2016 07:19 0,3 C 92 % 1014,8 hPa 0,0 l/m 6,6 km/h (2 Bft) S 191 0 min 0,000 mm 0,0 UV-I 12 W/m -0,8 C 0,1 C 8,0 km/h (2 Bft) 100,00 %
26.02.2016 07:20 0,2 C 93 % 1014,8 hPa 0,0 l/m 6,0 km/h (2 Bft) W-SW 238 0 min 0,000 mm 0,0 UV-I 12 W/m -0,8 C 0,2 C 8,0 km/h (2 Bft) 100,00 %
26.02.2016 07:21 0,3 C 93 % 1014,8 hPa 0,0 l/m 5,8 km/h (2 Bft) S 183 0 min 0,000 mm 0,0 UV-I 14 W/m -0,7 C 0,3 C 9,7 km/h (2 Bft) 95,83 %
26.02.2016 07:22 0,2 C 93 % 1014,8 hPa 0,0 l/m 4,8 km/h (1 Bft) S 181 0 min 0,000 mm 0,0 UV-I 14 W/m -0,8 C 0,2 C 6,4 km/h (2 Bft) 100,00 %
26.02.2016 07:23 0,3 C 92 % 1014,8 hPa 0,0 l/m 6,7 km/h (2 Bft) S-SW 211 0 min 0,000 mm 0,0 UV-I 16 W/m -0,8 C 0,0 C 9,7 km/h (2 Bft) 91,67 %
26.02.2016 07:24 0,3 C 92 % 1014,8 hPa 0,0 l/m 7,5 km/h (2 Bft) S-SW 213 0 min 0,000 mm 0,0 UV-I 16 W/m -0,8 C -0,8 C 9,7 km/h (2 Bft) 100,00 %
26.02.2016 07:25 0,3 C 92 % 1014,8 hPa 0,0 l/m 7,6 km/h (2 Bft) S-SW 213 0 min 0,000 mm 0,0 UV-I 17 W/m -0,8 C -0,9 C 9,7 km/h (2 Bft) 100,00 %
26.02.2016 07:26 0,3 C 92 % 1014,8 hPa 0,0 l/m 8,6 km/h (2 Bft) S-SW 195 0 min 0,000 mm 0,0 UV-I 18 W/m -0,8 C -1,9 C 12,9 km/h (3 Bft) 100,00 %
26.02.2016 07:27 0,3 C 92 % 1014,8 hPa 0,0 l/m 7,2 km/h (2 Bft) S 185 0 min 0,000 mm 0,0 UV-I 18 W/m -0,8 C -0,5 C 9,7 km/h (2 Bft) 100,00 %
26.02.2016 07:28 0,3 C 92 % 1014,8 hPa 0,0 l/m 7,0 km/h (2 Bft) S-SW 202 0 min 0,000 mm 0,0 UV-I 18 W/m -0,8 C -0,3 C 8,0 km/h (2 Bft) 100,00 %
26.02.2016 07:29 0,3 C 92 % 1014,8 hPa 0,0 l/m 8,5 km/h (2 Bft) SW 229 0 min 0,000 mm 0,0 UV-I 18 W/m -0,8 C -1,8 C 12,9 km/h (3 Bft) 91,30 %
26.02.2016 07:30 0,3 C 92 % 1014,8 hPa 0,0 l/m 5,2 km/h (1 Bft) S-SW 200 0 min 0,000 mm 0,0 UV-I 19 W/m -0,8 C 0,3 C 6,4 km/h (2 Bft) 100,00 %
26.02.2016 07:31 0,3 C 92 % 1014,8 hPa 0,0 l/m 5,6 km/h (1 Bft) S-SW 199 0 min 0,000 mm 0,0 UV-I 20 W/m -0,8 C 0,3 C 9,7 km/h (2 Bft) 95,65 %
26.02.2016 07:32 0,3 C 92 % 1014,8 hPa 0,0 l/m 7,6 km/h (2 Bft) SW 230 0 min 0,000 mm 0,0 UV-I 21 W/m -0,8 C -0,9 C 11,3 km/h (2 Bft) 95,83 %
26.02.2016 07:33 0,3 C 92 % 1014,8 hPa 0,0 l/m 6,2 km/h (2 Bft) S-SW 202 0 min 0,000 mm 0,0 UV-I 24 W/m -0,8 C 0,3 C 8,0 km/h (2 Bft) 100,00 %
26.02.2016 07:34 0,3 C 92 % 1014,8 hPa 0,0 l/m 6,8 km/h (2 Bft) W 259 0 min 0,000 mm 0,0 UV-I 23 W/m -0,8 C -0,1 C 9,7 km/h (2 Bft) 100,00 %
26.02.2016 07:35 0,3 C 92 % 1014,8 hPa 0,0 l/m 6,4 km/h (2 Bft) W-SW 243 0 min 0,000 mm 0,0 UV-I 25 W/m -0,8 C 0,3 C 9,7 km/h (2 Bft) 95,65 %
26.02.2016 07:36 0,3 C 91 % 1014,8 hPa 0,0 l/m 7,4 km/h (2 Bft) S-SW 192 0 min 0,000 mm 0,0 UV-I 26 W/m -1,0 C -0,7 C 11,3 km/h (2 Bft) 100,00 %
26.02.2016 07:37 0,3 C 91 % 1014,8 hPa 0,0 l/m 10,1 km/h (2 Bft) SW 232 0 min 0,000 mm 0,0 UV-I 27 W/m -1,0 C -3,2 C 14,5 km/h (3 Bft) 95,65 %
26.02.2016 07:38 0,3 C 91 % 1014,8 hPa 0,0 l/m 7,0 km/h (2 Bft) S-SW 197 0 min 0,000 mm 0,0 UV-I 29 W/m -1,0 C -0,3 C 9,7 km/h (2 Bft) 95,83 %
26.02.2016 07:39 0,3 C 91 % 1014,8 hPa 0,0 l/m 6,5 km/h (2 Bft) S-SW 204 0 min 0,000 mm 0,0 UV-I 32 W/m -1,0 C 0,2 C 9,7 km/h (2 Bft) 95,83 %
26.02.2016 07:40 0,3 C 91 % 1014,8 hPa 0,0 l/m 6,9 km/h (2 Bft) W-SW 242 0 min 0,000 mm 0,0 UV-I 33 W/m -1,0 C -0,2 C 9,7 km/h (2 Bft) 95,65 %
26.02.2016 07:41 0,3 C 91 % 1014,8 hPa 0,0 l/m 6,8 km/h (2 Bft) S-SW 208 0 min 0,000 mm 0,0 UV-I 34 W/m -1,0 C -0,1 C 11,3 km/h (2 Bft) 100,00 %
26.02.2016 07:42 0,3 C 91 % 1014,8 hPa 0,0 l/m 6,6 km/h (2 Bft) W-SW 246 0 min 0,000 mm 0,0 UV-I 35 W/m -1,0 C 0,1 C 11,3 km/h (2 Bft) 95,65 %
26.02.2016 07:43 0,3 C 91 % 1014,8 hPa 0,0 l/m 8,3 km/h (2 Bft) S 190 0 min 0,000 mm 0,0 UV-I 37 W/m -1,0 C -1,6 C 11,3 km/h (2 Bft) 100,00 %
26.02.2016 07:44 0,3 C 91 % 1014,8 hPa 0,0 l/m 6,7 km/h (2 Bft) S-SW 205 0 min 0,000 mm 0,0 UV-I 40 W/m -1,0 C 0,0 C 9,7 km/h (2 Bft) 86,96 %
26.02.2016 07:45 0,3 C 91 % 1014,8 hPa 0,0 l/m 7,5 km/h (2 Bft) S 182 0 min 0,000 mm 0,0 UV-I 42 W/m -1,0 C -0,8 C 9,7 km/h (2 Bft) 100,00 %
26.02.2016 07:46 0,3 C 91 % 1014,9 hPa 0,0 l/m 5,4 km/h (1 Bft) S 186 0 min 0,000 mm 0,0 UV-I 44 W/m -1,0 C 0,3 C 8,0 km/h (2 Bft) 95,65 %
26.02.2016 07:47 0,4 C 91 % 1014,9 hPa 0,0 l/m 6,2 km/h (2 Bft) SW 226 0 min 0,000 mm 0,0 UV-I 46 W/m -0,9 C 0,4 C 8,0 km/h (2 Bft) 95,83 %
26.02.2016 07:48 0,4 C 90 % 1014,9 hPa 0,0 l/m 4,8 km/h (1 Bft) SW 220 0 min 0,000 mm 0,0 UV-I 50 W/m -1,0 C 0,4 C 8,0 km/h (2 Bft) 100,00 %
26.02.2016 07:49 0,4 C 90 % 1014,9 hPa 0,0 l/m 7,0 km/h (2 Bft) S 174 0 min 0,000 mm 0,0 UV-I 49 W/m -1,0 C -0,2 C 9,7 km/h (2 Bft) 95,83 %
26.02.2016 07:50 0,4 C 90 % 1014,9 hPa 0,0 l/m 7,3 km/h (2 Bft) S-SW 202 0 min 0,000 mm 0,0 UV-I 48 W/m -1,0 C -0,5 C 9,7 km/h (2 Bft) 100,00 %
26.02.2016 07:51 0,4 C 90 % 1014,9 hPa 0,0 l/m 6,6 km/h (2 Bft) W-SW 244 0 min 0,000 mm 0,0 UV-I 49 W/m -1,0 C 0,2 C 9,7 km/h (2 Bft) 95,83 %
26.02.2016 07:52 0,4 C 90 % 1014,9 hPa 0,0 l/m 5,9 km/h (2 Bft) W-SW 246 0 min 0,000 mm 0,0 UV-I 49 W/m -1,0 C 0,4 C 8,0 km/h (2 Bft) 95,65 %
26.02.2016 07:53 0,4 C 90 % 1014,9 hPa 0,0 l/m 5,5 km/h (1 Bft) S 182 0 min 0,000 mm 0,0 UV-I 51 W/m -1,0 C 0,4 C 8,0 km/h (2 Bft) 95,83 %
26.02.2016 07:54 0,4 C 90 % 1014,9 hPa 0,0 l/m 4,8 km/h (1 Bft) SW 227 0 min 0,000 mm 0,0 UV-I 52 W/m -1,0 C 0,4 C 6,4 km/h (2 Bft) 100,00 %
26.02.2016 07:55 0,4 C 90 % 1014,9 hPa 0,0 l/m 3,5 km/h (1 Bft) SW 225 0 min 0,000 mm 0,0 UV-I 53 W/m -1,0 C 0,4 C 6,4 km/h (2 Bft) 96,30 %
26.02.2016 07:56 0,4 C 90 % 1015,0 hPa 0,0 l/m 5,0 km/h (1 Bft) SW 227 0 min 0,000 mm 0,0 UV-I 54 W/m -1,0 C 0,4 C 6,4 km/h (2 Bft) 96,15 %
26.02.2016 07:57 0,4 C 90 % 1015,0 hPa 0,0 l/m 4,2 km/h (1 Bft) S-SW 212 0 min 0,000 mm 0,0 UV-I 54 W/m -1,0 C 0,4 C 6,4 km/h (2 Bft) 100,00 %
26.02.2016 07:58 0,4 C 90 % 1015,0 hPa 0,0 l/m 5,6 km/h (1 Bft) S-SW 211 0 min 0,000 mm 0,0 UV-I 56 W/m -1,0 C 0,4 C 8,0 km/h (2 Bft) 95,65 %
26.02.2016 07:59 0,4 C 90 % 1015,0 hPa 0,0 l/m 4,3 km/h (1 Bft) SW 234 0 min 0,000 mm 0,0 UV-I 58 W/m -1,0 C 0,4 C 8,0 km/h (2 Bft) 95,83 %
26.02.2016 08:00 0,4 C 90 % 1015,0 hPa 0,0 l/m 6,4 km/h (2 Bft) SW 234 0 min 0,000 mm 0,0 UV-I 58 W/m -1,0 C 0,4 C 8,0 km/h (2 Bft) 91,30 %
26.02.2016 08:01 0,4 C 90 % 1015,0 hPa 0,0 l/m 5,0 km/h (1 Bft) SW 229 0 min 0,025 mm 0,0 UV-I 57 W/m -1,0 C 0,4 C 8,0 km/h (2 Bft) 91,67 %
26.02.2016 08:02 0,4 C 90 % 1015,1 hPa 0,0 l/m 5,6 km/h (1 Bft) SW 214 0 min 0,000 mm 0,0 UV-I 54 W/m -1,0 C 0,4 C 8,0 km/h (2 Bft) 91,30 %
26.02.2016 08:03 0,4 C 90 % 1015,0 hPa 0,0 l/m 3,4 km/h (1 Bft) SW 221 0 min 0,000 mm 0,0 UV-I 56 W/m -1,0 C 0,4 C 6,4 km/h (2 Bft) 95,83 %
26.02.2016 08:04 0,4 C 90 % 1015,1 hPa 0,0 l/m 6,3 km/h (2 Bft) W-SW 240 0 min 0,000 mm 0,0 UV-I 59 W/m -1,0 C 0,4 C 12,9 km/h (3 Bft) 95,65 %
26.02.2016 08:05 0,4 C 90 % 1015,1 hPa 0,0 l/m 5,0 km/h (1 Bft) SW 221 0 min 0,000 mm 0,0 UV-I 63 W/m -1,0 C 0,4 C 9,7 km/h (2 Bft) 95,83 %
26.02.2016 08:06 0,4 C 90 % 1015,1 hPa 0,0 l/m 4,5 km/h (1 Bft) SW 227 0 min 0,000 mm 0,0 UV-I 66 W/m -1,0 C 0,4 C 6,4 km/h (2 Bft) 100,00 %
26.02.2016 08:07 0,4 C 90 % 1015,1 hPa 0,0 l/m 4,7 km/h (1 Bft) SW 223 0 min 0,000 mm 0,0 UV-I 68 W/m -1,0 C 0,4 C 8,0 km/h (2 Bft) 96,15 %
26.02.2016 08:08 0,4 C 90 % 1015,1 hPa 0,0 l/m 7,1 km/h (2 Bft) S-SW 213 0 min 0,000 mm 0,0 UV-I 69 W/m -1,0 C -0,3 C 9,7 km/h (2 Bft) 100,00 %
26.02.2016 08:09 0,4 C 90 % 1015,1 hPa 0,0 l/m 6,5 km/h (2 Bft) SW 221 0 min 0,000 mm 0,0 UV-I 70 W/m -1,0 C 0,3 C 8,0 km/h (2 Bft) 91,30 %
26.02.2016 08:10 0,4 C 90 % 1015,1 hPa 0,0 l/m 5,1 km/h (1 Bft) W-SW 242 0 min 0,000 mm 0,0 UV-I 73 W/m -1,0 C 0,4 C 6,4 km/h (2 Bft) 100,00 %
26.02.2016 08:11 0,5 C 90 % 1015,1 hPa 0,0 l/m 7,1 km/h (2 Bft) W-SW 248 0 min 0,000 mm 0,0 UV-I 75 W/m -0,9 C -0,2 C 11,3 km/h (2 Bft) 95,65 %
26.02.2016 08:12 0,5 C 90 % 1015,1 hPa 0,0 l/m 4,8 km/h (1 Bft) SW 228 0 min 0,000 mm 0,0 UV-I 76 W/m -0,9 C 0,5 C 6,4 km/h (2 Bft) 100,00 %
26.02.2016 08:13 0,5 C 90 % 1015,1 hPa 0,0 l/m 4,2 km/h (1 Bft) W-SW 240 0 min 0,000 mm 0,0 UV-I 75 W/m -0,9 C 0,5 C 6,4 km/h (2 Bft) 96,15 %
26.02.2016 08:14 0,5 C 90 % 1015,1 hPa 0,0 l/m 5,9 km/h (2 Bft) SW 232 0 min 0,000 mm 0,0 UV-I 71 W/m -0,9 C 0,5 C 6,4 km/h (2 Bft) 95,83 %
26.02.2016 08:15 0,6 C 90 % 1015,2 hPa 0,0 l/m 6,0 km/h (2 Bft) W-SW 252 0 min 0,000 mm 0,0 UV-I 65 W/m -0,8 C 0,6 C 8,0 km/h (2 Bft) 100,00 %
26.02.2016 08:16 0,6 C 90 % 1015,1 hPa 0,0 l/m 5,0 km/h (1 Bft) W-SW 244 0 min 0,000 mm 0,0 UV-I 61 W/m -0,8 C 0,6 C 8,0 km/h (2 Bft) 100,00 %
26.02.2016 08:17 0,6 C 90 % 1015,2 hPa 0,0 l/m 6,6 km/h (2 Bft) SW 236 0 min 0,000 mm 0,0 UV-I 57 W/m -0,8 C 0,4 C 9,7 km/h (2 Bft) 95,65 %
26.02.2016 08:18 0,6 C 90 % 1015,2 hPa 0,0 l/m 6,5 km/h (2 Bft) SW 233 0 min 0,000 mm 0,0 UV-I 56 W/m -0,8 C 0,5 C 9,7 km/h (2 Bft) 100,00 %
26.02.2016 08:19 0,6 C 90 % 1015,2 hPa 0,0 l/m 6,9 km/h (2 Bft) SW 236 0 min 0,000 mm 0,0 UV-I 59 W/m -0,8 C 0,1 C 9,7 km/h (2 Bft) 100,00 %
26.02.2016 08:20 0,6 C 90 % 1015,2 hPa 0,0 l/m 7,2 km/h (2 Bft) SW 214 0 min 0,000 mm 0,0 UV-I 62 W/m -0,8 C -0,2 C 9,7 km/h (2 Bft) 100,00 %
26.02.2016 08:21 0,6 C 90 % 1015,2 hPa 0,0 l/m 6,8 km/h (2 Bft) SW 225 0 min 0,000 mm 0,0 UV-I 66 W/m -0,8 C 0,2 C 8,0 km/h (2 Bft) 95,65 %
26.02.2016 08:22 0,6 C 90 % 1015,2 hPa 0,0 l/m 6,4 km/h (2 Bft) SW 228 0 min 0,000 mm 0,0 UV-I 71 W/m -0,8 C 0,6 C 8,0 km/h (2 Bft) 100,00 %
26.02.2016 08:23 0,6 C 89 % 1015,3 hPa 0,0 l/m 6,5 km/h (2 Bft) SW 220 0 min 0,000 mm 0,0 UV-I 71 W/m -1,0 C 0,5 C 8,0 km/h (2 Bft) 91,30 %
26.02.2016 08:24 0,6 C 90 % 1015,2 hPa 0,0 l/m 6,0 km/h (2 Bft) W-SW 241 0 min 0,000 mm 0,0 UV-I 70 W/m -0,8 C 0,6 C 8,0 km/h (2 Bft) 100,00 %
26.02.2016 08:25 0,6 C 90 % 1015,3 hPa 0,0 l/m 6,0 km/h (2 Bft) S-SW 206 0 min 0,000 mm 0,0 UV-I 68 W/m -0,8 C 0,6 C 9,7 km/h (2 Bft) 100,00 %
26.02.2016 08:26 0,6 C 90 % 1015,3 hPa 0,0 l/m 5,4 km/h (1 Bft) W-SW 240 0 min 0,000 mm 0,0 UV-I 63 W/m -0,8 C 0,6 C 6,4 km/h (2 Bft) 100,00 %
26.02.2016 08:27 0,6 C 89 % 1015,3 hPa 0,0 l/m 5,3 km/h (1 Bft) SW 234 0 min 0,000 mm 0,0 UV-I 53 W/m -1,0 C 0,6 C 6,4 km/h (2 Bft) 95,83 %
26.02.2016 08:28 0,6 C 89 % 1015,3 hPa 0,0 l/m 5,2 km/h (1 Bft) SW 234 0 min 0,000 mm 0,0 UV-I 49 W/m -1,0 C 0,6 C 6,4 km/h (2 Bft) 100,00 %
26.02.2016 08:29 0,6 C 89 % 1015,3 hPa 0,0 l/m 5,0 km/h (1 Bft) SW 215 0 min 0,000 mm 0,0 UV-I 49 W/m -1,0 C 0,6 C 8,0 km/h (2 Bft) 100,00 %
26.02.2016 08:30 0,6 C 89 % 1015,3 hPa 0,0 l/m 5,3 km/h (1 Bft) SW 229 0 min 0,000 mm 0,0 UV-I 50 W/m -1,0 C 0,6 C 6,4 km/h (2 Bft) 100,00 %
26.02.2016 08:31 0,6 C 89 % 1015,3 hPa 0,0 l/m 4,8 km/h (1 Bft) SW 229 0 min 0,000 mm 0,0 UV-I 52 W/m -1,0 C 0,6 C 6,4 km/h (2 Bft) 100,00 %
26.02.2016 08:32 0,6 C 89 % 1015,3 hPa 0,0 l/m 4,4 km/h (1 Bft) W-SW 248 0 min 0,000 mm 0,0 UV-I 54 W/m -1,0 C 0,6 C 6,4 km/h (2 Bft) 91,30 %
26.02.2016 08:33 0,6 C 89 % 1015,3 hPa 0,0 l/m 5,0 km/h (1 Bft) SW 234 0 min 0,000 mm 0,0 UV-I 54 W/m -1,0 C 0,6 C 6,4 km/h (2 Bft) 100,00 %
26.02.2016 08:34 0,7 C 89 % 1015,3 hPa 0,0 l/m 4,8 km/h (1 Bft) SW 226 0 min 0,000 mm 0,0 UV-I 57 W/m -0,9 C 0,7 C 6,4 km/h (2 Bft) 95,65 %
26.02.2016 08:35 0,7 C 89 % 1015,3 hPa 0,0 l/m 2,7 km/h (1 Bft) W-SW 238 0 min 0,000 mm 0,0 UV-I 58 W/m -0,9 C 0,7 C 6,4 km/h (2 Bft) 100,00 %
26.02.2016 08:36 0,6 C 89 % 1015,3 hPa 0,0 l/m 4,1 km/h (1 Bft) SW 236 0 min 0,000 mm 0,0 UV-I 57 W/m -1,0 C 0,6 C 6,4 km/h (2 Bft) 100,00 %
26.02.2016 08:37 0,7 C 89 % 1015,3 hPa 0,0 l/m 5,6 km/h (1 Bft) SW 229 0 min 0,000 mm 0,0 UV-I 54 W/m -0,9 C 0,7 C 8,0 km/h (2 Bft) 100,00 %
26.02.2016 08:38 0,7 C 89 % 1015,3 hPa 0,0 l/m 4,9 km/h (1 Bft) SW 227 0 min 0,000 mm 0,0 UV-I 49 W/m -0,9 C 0,7 C 8,0 km/h (2 Bft) 95,65 %
26.02.2016 08:39 0,7 C 89 % 1015,3 hPa 0,0 l/m 3,8 km/h (1 Bft) W-SW 240 0 min 0,000 mm 0,0 UV-I 45 W/m -0,9 C 0,7 C 6,4 km/h (2 Bft) 100,00 %
26.02.2016 08:40 0,7 C 89 % 1015,3 hPa 0,0 l/m 5,0 km/h (1 Bft) W-SW 242 0 min 0,000 mm 0,0 UV-I 41 W/m -0,9 C 0,7 C 6,4 km/h (2 Bft) 100,00 %
26.02.2016 08:41 0,7 C 89 % 1015,3 hPa 0,0 l/m 4,4 km/h (1 Bft) SW 235 0 min 0,000 mm 0,0 UV-I 39 W/m -0,9 C 0,7 C 6,4 km/h (2 Bft) 100,00 %
26.02.2016 08:42 0,7 C 89 % 1015,3 hPa 0,0 l/m 2,7 km/h (1 Bft) SW 235 0 min 0,000 mm 0,0 UV-I 40 W/m -0,9 C 0,7 C 3,2 km/h (1 Bft) 100,00 %
26.02.2016 08:43 0,7 C 89 % 1015,3 hPa 0,0 l/m 3,4 km/h (1 Bft) S-SW 198 0 min 0,000 mm 0,0 UV-I 46 W/m -0,9 C 0,7 C 4,8 km/h (1 Bft) 100,00 %
26.02.2016 08:44 0,7 C 89 % 1015,3 hPa 0,0 l/m 4,8 km/h (1 Bft) S 175 0 min 0,000 mm 0,0 UV-I 60 W/m -0,9 C 0,7 C 8,0 km/h (2 Bft) 100,00 %
26.02.2016 08:45 0,7 C 88 % 1015,3 hPa 0,0 l/m 3,8 km/h (1 Bft) S 186 0 min 0,000 mm 0,0 UV-I 86 W/m -1,1 C 0,7 C 6,4 km/h (2 Bft) 95,65 %
26.02.2016 08:46 0,7 C 89 % 1015,3 hPa 0,0 l/m 2,3 km/h (1 Bft) S 186 0 min 0,000 mm 0,0 UV-I 93 W/m -0,9 C 0,7 C 3,2 km/h (1 Bft) 100,00 %
26.02.2016 08:47 0,7 C 89 % 1015,3 hPa 0,0 l/m 3,6 km/h (1 Bft) SW 221 0 min 0,000 mm 0,0 UV-I 87 W/m -0,9 C 0,7 C 6,4 km/h (2 Bft) 100,00 %
26.02.2016 08:50 0,7 C 89 % 1015,3 hPa 0,0 l/m 4,4 km/h (1 Bft) SW 225 0 min 0,000 mm 0,0 UV-I 65 W/m -0,9 C 0,7 C 6,4 km/h (2 Bft) 100,00 %
26.02.2016 08:51 0,7 C 89 % 1015,3 hPa 0,0 l/m 5,3 km/h (1 Bft) SW 234 0 min 0,000 mm 0,0 UV-I 72 W/m -0,9 C 0,7 C 6,4 km/h (2 Bft) 100,00 %
26.02.2016 08:52 0,8 C 89 % 1015,3 hPa 0,0 l/m 5,6 km/h (1 Bft) SW 232 0 min 0,000 mm 0,0 UV-I 76 W/m -0,8 C 0,8 C 6,4 km/h (2 Bft) 100,00 %
26.02.2016 08:53 0,8 C 89 % 1015,2 hPa 0,0 l/m 4,9 km/h (1 Bft) SW 234 0 min 0,000 mm 0,0 UV-I 76 W/m -0,8 C 0,8 C 6,4 km/h (2 Bft) 100,00 %
26.02.2016 08:54 0,8 C 89 % 1015,3 hPa 0,0 l/m 5,1 km/h (1 Bft) S-SW 211 0 min 0,000 mm 0,0 UV-I 74 W/m -0,8 C 0,8 C 6,4 km/h (2 Bft) 100,00 %
26.02.2016 08:55 0,8 C 89 % 1015,3 hPa 0,0 l/m 4,7 km/h (1 Bft) SW 224 0 min 0,000 mm 0,0 UV-I 78 W/m -0,8 C 0,8 C 6,4 km/h (2 Bft) 100,00 %
26.02.2016 08:56 0,8 C 89 % 1015,3 hPa 0,0 l/m 4,1 km/h (1 Bft) SW 224 0 min 0,000 mm 0,0 UV-I 94 W/m -0,8 C 0,8 C 4,8 km/h (1 Bft) 100,00 %
26.02.2016 08:57 0,8 C 89 % 1015,3 hPa 0,0 l/m 4,8 km/h (1 Bft) W-SW 253 0 min 0,000 mm 0,0 UV-I 103 W/m -0,8 C 0,8 C 6,4 km/h (2 Bft) 100,00 %
26.02.2016 08:58 0,8 C 89 % 1015,2 hPa 0,0 l/m 4,1 km/h (1 Bft) W-SW 242 0 min 0,000 mm 0,0 UV-I 113 W/m -0,8 C 0,8 C 6,4 km/h (2 Bft) 96,30 %
26.02.2016 08:59 0,8 C 89 % 1015,2 hPa 0,0 l/m 3,9 km/h (1 Bft) W-SW 255 0 min 0,000 mm 0,0 UV-I 123 W/m -0,8 C 0,8 C 6,4 km/h (2 Bft) 95,65 %
26.02.2016 09:00 0,9 C 89 % 1015,3 hPa 0,0 l/m 4,8 km/h (1 Bft) W-SW 256 0 min 0,026 mm 0,0 UV-I 132 W/m -0,7 C 0,9 C 6,4 km/h (2 Bft) 100,00 %
26.02.2016 09:02 0,9 C 89 % 1015,3 hPa 0,2 l/m 4,2 km/h (1 Bft) W 263 0 min 0,000 mm 0,0 UV-I 133 W/m -0,7 C 0,9 C 6,4 km/h (2 Bft) 98,00 %
26.02.2016 09:03 0,9 C 89 % 1015,3 hPa 0,0 l/m 1,8 km/h (1 Bft) W 263 0 min 0,000 mm 0,0 UV-I 128 W/m -0,7 C 0,9 C 4,8 km/h (1 Bft) 100,00 %
26.02.2016 09:04 1,0 C 89 % 1015,3 hPa 0,0 l/m 3,2 km/h (1 Bft) W-SW 258 0 min 0,000 mm 0,0 UV-I 120 W/m -0,6 C 1,0 C 4,8 km/h (1 Bft) 100,00 %
26.02.2016 09:05 1,0 C 89 % 1015,2 hPa 0,0 l/m 4,0 km/h (1 Bft) SW 235 0 min 0,000 mm 0,0 UV-I 118 W/m -0,6 C 1,0 C 4,8 km/h (1 Bft) 100,00 %
26.02.2016 09:06 1,1 C 89 % 1015,2 hPa 0,0 l/m 3,1 km/h (1 Bft) W-SW 239 0 min 0,000 mm 0,0 UV-I 126 W/m -0,5 C 1,1 C 4,8 km/h (1 Bft) 96,15 %
26.02.2016 09:07 1,1 C 89 % 1015,2 hPa 0,0 l/m 3,8 km/h (1 Bft) W-SW 239 0 min 0,000 mm 0,0 UV-I 128 W/m -0,5 C 1,1 C 4,8 km/h (1 Bft) 96,30 %
26.02.2016 09:08 1,1 C 89 % 1015,2 hPa 0,0 l/m 2,4 km/h (1 Bft) W-SW 239 0 min 0,000 mm 0,0 UV-I 125 W/m -0,5 C 1,1 C 4,8 km/h (1 Bft) 100,00 %
26.02.2016 09:09 1,1 C 89 % 1015,2 hPa 0,0 l/m 3,6 km/h (1 Bft) W 266 0 min 0,000 mm 0,5 UV-I 134 W/m -0,5 C 1,1 C 4,8 km/h (1 Bft) 95,83 %
26.02.2016 09:10 1,1 C 89 % 1015,2 hPa 0,0 l/m 3,2 km/h (1 Bft) W 279 0 min 0,000 mm 0,5 UV-I 140 W/m -0,5 C 1,1 C 4,8 km/h (1 Bft) 100,00 %
26.02.2016 09:11 1,1 C 88 % 1015,2 hPa 0,0 l/m 1,2 km/h (1 Bft) W 279 0 min 0,000 mm 0,5 UV-I 142 W/m -0,7 C 1,1 C 3,2 km/h (1 Bft) 100,00 %
26.02.2016 09:12 1,2 C 88 % 1015,2 hPa 0,0 l/m 1,9 km/h (1 Bft) W 279 0 min 0,000 mm 0,5 UV-I 146 W/m -0,6 C 1,2 C 3,2 km/h (1 Bft) 100,00 %
26.02.2016 09:13 1,2 C 89 % 1015,2 hPa 0,0 l/m 0,5 km/h (0 Bft) W 279 0 min 0,000 mm 0,6 UV-I 157 W/m -0,4 C 1,2 C 1,6 km/h (1 Bft) 100,00 %
26.02.2016 09:14 1,2 C 88 % 1015,2 hPa 0,0 l/m 1,8 km/h (1 Bft) W 279 1 min 0,000 mm 0,6 UV-I 276 W/m -0,6 C 1,2 C 3,2 km/h (1 Bft) 100,00 %
26.02.2016 09:15 1,2 C 88 % 1015,2 hPa 0,0 l/m 0,7 km/h (0 Bft) W 272 1 min 0,000 mm 0,6 UV-I 221 W/m -0,6 C 1,2 C 1,6 km/h (1 Bft) 100,00 %
26.02.2016 09:16 1,2 C 88 % 1015,2 hPa 0,0 l/m 0,8 km/h (0 Bft) W 272 0 min 0,000 mm 0,6 UV-I 181 W/m -0,6 C 1,2 C 1,6 km/h (1 Bft) 100,00 %
26.02.2016 09:17 1,2 C 87 % 1015,1 hPa 0,0 l/m 2,1 km/h (1 Bft) W 272 0 min 0,000 mm 0,6 UV-I 169 W/m -0,7 C 1,2 C 3,2 km/h (1 Bft) 100,00 %
26.02.2016 09:18 1,3 C 88 % 1015,1 hPa 0,0 l/m 2,3 km/h (1 Bft) W 271 1 min 0,000 mm 0,6 UV-I 294 W/m -0,5 C 1,3 C 3,2 km/h (1 Bft) 100,00 %
26.02.2016 09:19 1,3 C 89 % 1015,1 hPa 0,0 l/m 1,4 km/h (1 Bft) W 271 1 min 0,000 mm 0,6 UV-I 272 W/m -0,3 C 1,3 C 3,2 km/h (1 Bft) 93,75 %
26.02.2016 09:20 1,4 C 88 % 1015,1 hPa 0,0 l/m 2,8 km/h (1 Bft) W-SW 255 1 min 0,000 mm 0,6 UV-I 304 W/m -0,4 C 1,4 C 4,8 km/h (1 Bft) 100,00 %
26.02.2016 09:21 1,4 C 88 % 1015,1 hPa 0,0 l/m 3,0 km/h (1 Bft) SW 217 1 min 0,000 mm 0,6 UV-I 295 W/m -0,4 C 1,4 C 4,8 km/h (1 Bft) 100,00 %
26.02.2016 09:22 1,5 C 88 % 1015,1 hPa 0,0 l/m 2,0 km/h (1 Bft) W-SW 238 1 min 0,000 mm 0,6 UV-I 257 W/m -0,3 C 1,5 C 3,2 km/h (1 Bft) 100,00 %
26.02.2016 09:23 1,6 C 88 % 1015,1 hPa 0,0 l/m 5,8 km/h (2 Bft) SW 236 1 min 0,000 mm 0,6 UV-I 271 W/m -0,2 C 1,6 C 8,0 km/h (2 Bft) 100,00 %
26.02.2016 09:24 1,7 C 87 % 1015,1 hPa 0,0 l/m 6,0 km/h (2 Bft) SW 222 1 min 0,000 mm 0,7 UV-I 320 W/m -0,2 C 1,7 C 8,0 km/h (2 Bft) 100,00 %
26.02.2016 09:25 1,7 C 86 % 1015,1 hPa 0,0 l/m 5,7 km/h (1 Bft) W-SW 244 1 min 0,000 mm 0,7 UV-I 327 W/m -0,4 C 1,7 C 8,0 km/h (2 Bft) 100,00 %
26.02.2016 09:26 1,7 C 85 % 1015,1 hPa 0,0 l/m 4,0 km/h (1 Bft) W-SW 253 1 min 0,000 mm 0,7 UV-I 328 W/m -0,5 C 1,7 C 6,4 km/h (2 Bft) 100,00 %
26.02.2016 09:27 1,7 C 86 % 1015,0 hPa 0,0 l/m 3,5 km/h (1 Bft) W-SW 242 1 min 0,000 mm 0,7 UV-I 341 W/m -0,4 C 1,7 C 9,7 km/h (2 Bft) 100,00 %
26.02.2016 09:28 1,8 C 87 % 1015,0 hPa 0,0 l/m 8,9 km/h (2 Bft) W-SW 242 1 min 0,000 mm 0,7 UV-I 349 W/m -0,1 C -0,6 C 11,3 km/h (2 Bft) 100,00 %
26.02.2016 09:29 1,7 C 85 % 1015,1 hPa 0,0 l/m 7,1 km/h (2 Bft) SW 229 1 min 0,000 mm 0,7 UV-I 337 W/m -0,5 C 1,0 C 9,7 km/h (2 Bft) 100,00 %
26.02.2016 09:30 1,8 C 85 % 1015,0 hPa 0,0 l/m 7,0 km/h (2 Bft) S-SW 209 1 min 0,000 mm 0,7 UV-I 331 W/m -0,4 C 1,2 C 9,7 km/h (2 Bft) 96,30 %
26.02.2016 09:31 1,8 C 85 % 1015,0 hPa 0,0 l/m 5,3 km/h (1 Bft) W 259 1 min 0,000 mm 0,8 UV-I 340 W/m -0,4 C 1,8 C 6,4 km/h (2 Bft) 100,00 %
26.02.2016 09:32 1,9 C 87 % 1015,0 hPa 0,0 l/m 8,7 km/h (2 Bft) W-SW 244 1 min 0,000 mm 0,8 UV-I 337 W/m -0,0 C -0,3 C 14,5 km/h (3 Bft) 100,00 %
26.02.2016 09:33 1,9 C 85 % 1015,0 hPa 0,0 l/m 8,1 km/h (2 Bft) W 259 1 min 0,000 mm 0,8 UV-I 341 W/m -0,3 C 0,3 C 11,3 km/h (2 Bft) 96,15 %
26.02.2016 09:34 1,8 C 83 % 1015,0 hPa 0,0 l/m 4,8 km/h (1 Bft) W-SW 244 1 min 0,000 mm 0,7 UV-I 349 W/m -0,8 C 1,8 C 6,4 km/h (2 Bft) 100,00 %
26.02.2016 09:35 1,8 C 84 % 1015,0 hPa 0,0 l/m 3,9 km/h (1 Bft) SW 223 1 min 0,000 mm 0,7 UV-I 352 W/m -0,6 C 1,8 C 6,4 km/h (2 Bft) 96,15 %
26.02.2016 09:36 1,8 C 85 % 1015,0 hPa 0,0 l/m 6,5 km/h (2 Bft) W-SW 238 0 min 0,000 mm 0,7 UV-I 154 W/m -0,4 C 1,7 C 9,7 km/h (2 Bft) 100,00 %
26.02.2016 09:37 1,8 C 84 % 1015,0 hPa 0,0 l/m 4,5 km/h (1 Bft) SW 219 0 min 0,000 mm 0,8 UV-I 130 W/m -0,6 C 1,8 C 6,4 km/h (2 Bft) 91,30 %
26.02.2016 09:38 1,8 C 84 % 1015,0 hPa 0,0 l/m 2,5 km/h (1 Bft) W-SW 254 1 min 0,000 mm 0,8 UV-I 367 W/m -0,6 C 1,8 C 3,2 km/h (1 Bft) 96,30 %
26.02.2016 09:39 1,8 C 84 % 1014,9 hPa 0,0 l/m 4,5 km/h (1 Bft) S 171 1 min 0,000 mm 0,8 UV-I 338 W/m -0,6 C 1,8 C 6,4 km/h (2 Bft) 100,00 %
26.02.2016 09:40 1,8 C 85 % 1014,9 hPa 0,0 l/m 5,2 km/h (1 Bft) W-SW 255 1 min 0,000 mm 0,8 UV-I 347 W/m -0,4 C 1,8 C 8,0 km/h (2 Bft) 96,15 %
26.02.2016 09:41 1,9 C 86 % 1014,9 hPa 0,0 l/m 3,5 km/h (1 Bft) W 265 1 min 0,000 mm 0,9 UV-I 389 W/m -0,2 C 1,9 C 8,0 km/h (2 Bft) 100,00 %
26.02.2016 09:42 2,0 C 85 % 1014,9 hPa 0,0 l/m 1,6 km/h (1 Bft) W 264 1 min 0,000 mm 0,9 UV-I 380 W/m -0,3 C 2,0 C 4,8 km/h (1 Bft) 96,88 %
26.02.2016 09:43 2,1 C 85 % 1014,9 hPa 0,0 l/m 3,8 km/h (1 Bft) W-NW 288 1 min 0,000 mm 0,9 UV-I 375 W/m -0,2 C 2,1 C 4,8 km/h (1 Bft) 100,00 %
26.02.2016 09:44 2,2 C 85 % 1014,9 hPa 0,0 l/m 2,1 km/h (1 Bft) W-NW 286 1 min 0,000 mm 0,9 UV-I 387 W/m -0,1 C 2,2 C 3,2 km/h (1 Bft) 91,67 %
26.02.2016 09:45 2,2 C 84 % 1014,9 hPa 0,0 l/m 4,1 km/h (1 Bft) W-NW 287 1 min 0,000 mm 0,9 UV-I 384 W/m -0,2 C 2,2 C 6,4 km/h (2 Bft) 96,30 %
26.02.2016 09:46 2,3 C 82 % 1015,0 hPa 0,0 l/m 3,2 km/h (1 Bft) W-NW 287 1 min 0,000 mm 0,9 UV-I 384 W/m -0,4 C 2,3 C 4,8 km/h (1 Bft) 91,30 %
26.02.2016 09:47 2,3 C 82 % 1015,0 hPa 0,0 l/m 4,9 km/h (1 Bft) W-NW 284 1 min 0,000 mm 0,9 UV-I 390 W/m -0,4 C 2,3 C 6,4 km/h (2 Bft) 100,00 %
26.02.2016 09:48 2,2 C 82 % 1014,9 hPa 0,0 l/m 4,7 km/h (1 Bft) W 269 1 min 0,000 mm 0,9 UV-I 394 W/m -0,5 C 2,2 C 6,4 km/h (2 Bft) 96,55 %
26.02.2016 09:49 2,2 C 81 % 1014,9 hPa 0,0 l/m 2,1 km/h (1 Bft) W-SW 238 1 min 0,000 mm 1,0 UV-I 407 W/m -0,7 C 2,2 C 8,0 km/h (2 Bft) 96,30 %
26.02.2016 09:50 2,2 C 81 % 1014,9 hPa 0,0 l/m 4,6 km/h (1 Bft) W 267 1 min 0,000 mm 1,0 UV-I 406 W/m -0,7 C 2,2 C 6,4 km/h (2 Bft) 90,91 %
26.02.2016 09:51 2,3 C 81 % 1014,9 hPa 0,0 l/m 3,8 km/h (1 Bft) W-NW 296 1 min 0,000 mm 1,0 UV-I 414 W/m -0,6 C 2,3 C 9,7 km/h (2 Bft) 96,30 %
26.02.2016 09:52 2,3 C 82 % 1014,9 hPa 0,0 l/m 2,5 km/h (1 Bft) W-NW 290 1 min 0,000 mm 1,0 UV-I 408 W/m -0,4 C 2,3 C 4,8 km/h (1 Bft) 100,00 %
26.02.2016 09:53 2,4 C 80 % 1014,8 hPa 0,0 l/m 4,0 km/h (1 Bft) W-NW 286 1 min 0,000 mm 0,9 UV-I 404 W/m -0,7 C 2,4 C 8,0 km/h (2 Bft) 97,56 %
26.02.2016 09:54 2,3 C 78 % 1014,8 hPa 0,0 l/m 5,3 km/h (1 Bft) W-NW 293 1 min 0,000 mm 1,0 UV-I 405 W/m -1,1 C 2,3 C 6,4 km/h (2 Bft) 92,86 %
26.02.2016 09:55 2,3 C 79 % 1014,8 hPa 0,0 l/m 3,8 km/h (1 Bft) W 273 1 min 0,000 mm 1,0 UV-I 417 W/m -1,0 C 2,3 C 6,4 km/h (2 Bft) 95,83 %
26.02.2016 09:56 2,3 C 79 % 1014,9 hPa 0,0 l/m 11,1 km/h (2 Bft) W 270 1 min 0,000 mm 1,0 UV-I 376 W/m -1,0 C -1,7 C 12,9 km/h (3 Bft) 100,00 %
26.02.2016 09:57 2,3 C 79 % 1014,9 hPa 0,0 l/m 6,8 km/h (2 Bft) W-SW 257 1 min 0,000 mm 1,0 UV-I 316 W/m -1,0 C 1,9 C 12,9 km/h (3 Bft) 100,00 %
26.02.2016 09:58 2,3 C 79 % 1014,9 hPa 0,0 l/m 2,5 km/h (1 Bft) W 259 1 min 0,000 mm 1,0 UV-I 316 W/m -1,0 C 2,3 C 4,8 km/h (1 Bft) 100,00 %
26.02.2016 09:59 2,3 C 79 % 1014,8 hPa 0,0 l/m 2,9 km/h (1 Bft) W 274 1 min 0,000 mm 1,0 UV-I 316 W/m -1,0 C 2,3 C 4,8 km/h (1 Bft) 100,00 %
26.02.2016 10:00 2,3 C 79 % 1014,8 hPa 0,0 l/m 3,5 km/h (1 Bft) W-NW 296 1 min 0,101 mm 0,9 UV-I 382 W/m -1,0 C 2,3 C 4,8 km/h (1 Bft) 100,00 %
26.02.2016 10:01 2,3 C 79 % 1014,8 hPa 0,0 l/m 4,8 km/h (1 Bft) W-NW 289 1 min 0,000 mm 0,9 UV-I 387 W/m -1,0 C 2,3 C 9,7 km/h (2 Bft) 96,55 %
26.02.2016 10:02 2,3 C 78 % 1014,8 hPa 0,0 l/m 2,2 km/h (1 Bft) W 266 1 min 0,000 mm 1,0 UV-I 387 W/m -1,1 C 2,3 C 4,8 km/h (1 Bft) 95,83 %
26.02.2016 10:03 2,4 C 80 % 1014,9 hPa 0,0 l/m 3,5 km/h (1 Bft) W 267 1 min 0,000 mm 0,9 UV-I 260 W/m -0,7 C 2,4 C 4,8 km/h (1 Bft) 100,00 %
26.02.2016 10:04 2,4 C 80 % 1014,9 hPa 0,0 l/m 3,6 km/h (1 Bft) W-SW 256 0 min 0,000 mm 1,0 UV-I 176 W/m -0,7 C 2,4 C 4,8 km/h (1 Bft) 100,00 %
26.02.2016 10:05 2,4 C 80 % 1014,8 hPa 0,0 l/m 2,8 km/h (1 Bft) W-SW 256 1 min 0,000 mm 1,0 UV-I 381 W/m -0,7 C 2,4 C 4,8 km/h (1 Bft) 100,00 %
26.02.2016 10:06 2,5 C 79 % 1014,9 hPa 0,0 l/m 3,0 km/h (1 Bft) W-SW 256 1 min 0,000 mm 0,9 UV-I 410 W/m -0,8 C 2,5 C 4,8 km/h (1 Bft) 96,30 %
26.02.2016 10:07 2,5 C 81 % 1014,9 hPa 0,0 l/m 5,6 km/h (1 Bft) SW 229 1 min 0,000 mm 0,9 UV-I 343 W/m -0,4 C 2,5 C 9,7 km/h (2 Bft) 100,00 %
26.02.2016 10:08 2,4 C 80 % 1014,8 hPa 0,0 l/m 4,0 km/h (1 Bft) W-SW 239 0 min 0,000 mm 0,9 UV-I 116 W/m -0,7 C 2,4 C 6,4 km/h (2 Bft) 100,00 %
26.02.2016 10:09 2,4 C 80 % 1014,8 hPa 0,0 l/m 5,5 km/h (1 Bft) S-SW 192 1 min 0,000 mm 1,1 UV-I 301 W/m -0,7 C 2,4 C 8,0 km/h (2 Bft) 100,00 %
26.02.2016 10:10 2,3 C 79 % 1014,8 hPa 0,0 l/m 7,8 km/h (2 Bft) S-SW 211 1 min 0,000 mm 1,1 UV-I 419 W/m -1,0 C 1,0 C 11,3 km/h (2 Bft) 100,00 %
26.02.2016 10:11 2,3 C 79 % 1014,8 hPa 0,0 l/m 4,6 km/h (1 Bft) S-SW 206 1 min 0,000 mm 1,1 UV-I 424 W/m -1,0 C 2,3 C 6,4 km/h (2 Bft) 100,00 %
26.02.2016 10:12 2,2 C 79 % 1014,8 hPa 0,0 l/m 3,5 km/h (1 Bft) SW 234 1 min 0,000 mm 1,1 UV-I 427 W/m -1,1 C 2,2 C 4,8 km/h (1 Bft) 100,00 %
26.02.2016 10:13 2,2 C 80 % 1014,8 hPa 0,0 l/m 1,5 km/h (1 Bft) SW 234 1 min 0,000 mm 0,9 UV-I 427 W/m -0,9 C 2,2 C 3,2 km/h (1 Bft) 100,00 %
26.02.2016 10:14 2,3 C 81 % 1014,8 hPa 0,0 l/m 2,2 km/h (1 Bft) S-SO 162 1 min 0,000 mm 1,2 UV-I 433 W/m -0,6 C 2,3 C 6,4 km/h (2 Bft) 100,00 %
26.02.2016 10:15 2,3 C 80 % 1014,8 hPa 0,0 l/m 2,2 km/h (1 Bft) S-SO 165 1 min 0,000 mm 1,2 UV-I 448 W/m -0,8 C 2,3 C 3,2 km/h (1 Bft) 100,00 %
26.02.2016 10:16 2,3 C 79 % 1014,8 hPa 0,0 l/m 5,2 km/h (1 Bft) W-NW 284 1 min 0,000 mm 1,2 UV-I 451 W/m -1,0 C 2,3 C 6,4 km/h (2 Bft) 100,00 %
26.02.2016 10:17 2,4 C 80 % 1014,8 hPa 0,0 l/m 3,8 km/h (1 Bft) W-SW 250 1 min 0,000 mm 1,2 UV-I 452 W/m -0,7 C 2,4 C 6,4 km/h (2 Bft) 96,15 %
26.02.2016 10:18 2,5 C 80 % 1014,8 hPa 0,0 l/m 8,7 km/h (2 Bft) S-SW 194 1 min 0,000 mm 1,2 UV-I 454 W/m -0,6 C 0,4 C 11,3 km/h (2 Bft) 100,00 %
26.02.2016 10:19 2,5 C 78 % 1014,8 hPa 0,0 l/m 10,4 km/h (2 Bft) S-SW 209 1 min 0,000 mm 1,2 UV-I 500 W/m -0,9 C -1,0 C 12,9 km/h (3 Bft) 100,00 %
26.02.2016 10:20 2,5 C 77 % 1014,8 hPa 0,0 l/m 7,0 km/h (2 Bft) S-SO 168 1 min 0,000 mm 1,2 UV-I 524 W/m -1,1 C 1,9 C 9,7 km/h (2 Bft) 100,00 %
26.02.2016 10:21 2,4 C 77 % 1014,8 hPa 0,0 l/m 7,1 km/h (2 Bft) S 188 1 min 0,000 mm 1,2 UV-I 534 W/m -1,2 C 1,7 C 9,7 km/h (2 Bft) 91,67 %
26.02.2016 10:22 2,4 C 77 % 1014,8 hPa 0,0 l/m 4,0 km/h (1 Bft) S-SW 199 1 min 0,000 mm 1,2 UV-I 529 W/m -1,2 C 2,4 C 9,7 km/h (2 Bft) 100,00 %
26.02.2016 10:23 2,4 C 77 % 1014,9 hPa 0,0 l/m 9,7 km/h (2 Bft) S-SW 196 1 min 0,000 mm 1,2 UV-I 529 W/m -1,2 C -0,6 C 12,9 km/h (3 Bft) 100,00 %
26.02.2016 10:24 2,4 C 78 % 1014,8 hPa 0,0 l/m 6,4 km/h (2 Bft) S 189 1 min 0,000 mm 1,2 UV-I 542 W/m -1,0 C 2,4 C 12,9 km/h (3 Bft) 100,00 %
26.02.2016 10:25 2,4 C 77 % 1014,8 hPa 0,0 l/m 3,2 km/h (1 Bft) S 173 1 min 0,000 mm 1,2 UV-I 553 W/m -1,2 C 2,4 C 6,4 km/h (2 Bft) 100,00 %
26.02.2016 10:26 2,5 C 79 % 1014,8 hPa 0,0 l/m 2,7 km/h (1 Bft) S-SO 159 1 min 0,000 mm 1,2 UV-I 566 W/m -0,8 C 2,5 C 6,4 km/h (2 Bft) 95,65 %
26.02.2016 10:27 2,6 C 79 % 1014,8 hPa 0,0 l/m 2,7 km/h (1 Bft) S-SO 149 1 min 0,000 mm 1,3 UV-I 576 W/m -0,7 C 2,6 C 3,2 km/h (1 Bft) 96,30 %
26.02.2016 10:28 2,7 C 79 % 1014,8 hPa 0,0 l/m 1,3 km/h (1 Bft) W 265 1 min 0,000 mm 1,3 UV-I 583 W/m -0,6 C 2,7 C 1,6 km/h (1 Bft) 100,00 %
26.02.2016 10:29 2,7 C 78 % 1014,8 hPa 0,0 l/m 4,3 km/h (1 Bft) N-NW 328 1 min 0,000 mm 1,3 UV-I 582 W/m -0,7 C 2,7 C 6,4 km/h (2 Bft) 100,00 %
26.02.2016 10:30 2,8 C 79 % 1014,8 hPa 0,0 l/m 3,0 km/h (1 Bft) W-NW 298 1 min 0,000 mm 1,3 UV-I 584 W/m -0,5 C 2,8 C 4,8 km/h (1 Bft) 100,00 %
26.02.2016 10:31 2,8 C 78 % 1014,8 hPa 0,0 l/m 1,6 km/h (1 Bft) W-NW 298 1 min 0,000 mm 1,3 UV-I 583 W/m -0,6 C 2,8 C 3,2 km/h (1 Bft) 100,00 %
26.02.2016 10:32 2,9 C 78 % 1014,8 hPa 0,0 l/m 2,8 km/h (1 Bft) W 273 1 min 0,000 mm 1,3 UV-I 586 W/m -0,5 C 2,9 C 4,8 km/h (1 Bft) 100,00 %
26.02.2016 10:33 2,9 C 79 % 1014,8 hPa 0,0 l/m 2,1 km/h (1 Bft) W 279 1 min 0,000 mm 1,3 UV-I 586 W/m -0,4 C 2,9 C 6,4 km/h (2 Bft) 96,30 %
26.02.2016 10:34 3,0 C 79 % 1014,8 hPa 0,0 l/m 1,8 km/h (1 Bft) W-NW 288 1 min 0,000 mm 1,3 UV-I 577 W/m -0,3 C 3,0 C 3,2 km/h (1 Bft) 100,00 %
26.02.2016 10:35 3,1 C 78 % 1014,8 hPa 0,0 l/m 3,5 km/h (1 Bft) W-SW 253 1 min 0,000 mm 1,2 UV-I 572 W/m -0,4 C 3,1 C 4,8 km/h (1 Bft) 96,30 %
26.02.2016 10:36 3,2 C 77 % 1014,8 hPa 0,0 l/m 3,0 km/h (1 Bft) W 280 1 min 0,000 mm 1,2 UV-I 544 W/m -0,4 C 3,2 C 9,7 km/h (2 Bft) 100,00 %
26.02.2016 10:37 3,2 C 77 % 1014,8 hPa 0,0 l/m 5,5 km/h (1 Bft) W 261 1 min 0,000 mm 1,2 UV-I 537 W/m -0,4 C 3,2 C 9,7 km/h (2 Bft) 100,00 %
26.02.2016 10:38 3,2 C 79 % 1014,7 hPa 0,0 l/m 5,2 km/h (1 Bft) W-SW 238 1 min 0,000 mm 1,1 UV-I 536 W/m -0,1 C 3,2 C 6,4 km/h (2 Bft) 100,00 %
26.02.2016 10:39 3,2 C 78 % 1014,7 hPa 0,0 l/m 5,8 km/h (2 Bft) W-SW 241 1 min 0,000 mm 1,0 UV-I 536 W/m -0,3 C 3,2 C 8,0 km/h (2 Bft) 100,00 %
26.02.2016 10:40 3,2 C 75 % 1014,7 hPa 0,0 l/m 6,8 km/h (2 Bft) W-SW 238 1 min 0,000 mm 1,2 UV-I 519 W/m -0,8 C 2,8 C 11,3 km/h (2 Bft) 100,00 %
26.02.2016 10:41 3,2 C 75 % 1014,7 hPa 0,0 l/m 5,1 km/h (1 Bft) W 274 1 min 0,000 mm 1,2 UV-I 514 W/m -0,8 C 3,2 C 11,3 km/h (2 Bft) 100,00 %
26.02.2016 10:42 3,2 C 74 % 1014,7 hPa 0,0 l/m 3,8 km/h (1 Bft) NW 312 1 min 0,000 mm 1,2 UV-I 519 W/m -1,0 C 3,2 C 6,4 km/h (2 Bft) 100,00 %
26.02.2016 10:43 3,2 C 77 % 1014,7 hPa 0,0 l/m 3,4 km/h (1 Bft) W-SW 252 1 min 0,000 mm 0,9 UV-I 519 W/m -0,4 C 3,2 C 6,4 km/h (2 Bft) 100,00 %
26.02.2016 10:44 3,2 C 73 % 1014,7 hPa 0,0 l/m 1,5 km/h (1 Bft) W-SW 252 1 min 0,000 mm 0,9 UV-I 354 W/m -1,2 C 3,2 C 4,8 km/h (1 Bft) 95,65 %
26.02.2016 10:45 3,1 C 75 % 1014,7 hPa 0,0 l/m 0,3 km/h (0 Bft) W-SW 252 0 min 0,000 mm 1,1 UV-I 188 W/m -0,9 C 3,1 C 1,6 km/h (1 Bft) 100,00 %
26.02.2016 10:46 3,1 C 75 % 1014,7 hPa 0,0 l/m 2,8 km/h (1 Bft) W-NW 296 0 min 0,000 mm 1,1 UV-I 188 W/m -0,9 C 3,1 C 4,8 km/h (1 Bft) 100,00 %
26.02.2016 10:47 3,1 C 75 % 1014,7 hPa 0,0 l/m 2,9 km/h (1 Bft) W 281 0 min 0,000 mm 1,3 UV-I 188 W/m -0,9 C 3,1 C 4,8 km/h (1 Bft) 100,00 %
26.02.2016 10:48 3,1 C 74 % 1014,7 hPa 0,0 l/m 0,7 km/h (0 Bft) W 281 1 min 0,000 mm 1,4 UV-I 580 W/m -1,1 C 3,1 C 1,6 km/h (1 Bft) 100,00 %
26.02.2016 10:49 3,2 C 79 % 1014,6 hPa 0,0 l/m 2,3 km/h (1 Bft) W-SW 257 1 min 0,000 mm 1,4 UV-I 594 W/m -0,1 C 3,2 C 4,8 km/h (1 Bft) 100,00 %
26.02.2016 10:50 3,3 C 73 % 1014,6 hPa 0,0 l/m 4,3 km/h (1 Bft) S-SW 196 1 min 0,000 mm 1,4 UV-I 595 W/m -1,1 C 3,3 C 8,0 km/h (2 Bft) 100,00 %
26.02.2016 10:51 3,2 C 74 % 1014,6 hPa 0,0 l/m 4,6 km/h (1 Bft) S-SW 194 1 min 0,000 mm 1,4 UV-I 592 W/m -1,0 C 3,2 C 8,0 km/h (2 Bft) 100,00 %
26.02.2016 10:52 3,2 C 72 % 1014,6 hPa 0,0 l/m 2,0 km/h (1 Bft) W-SW 250 1 min 0,000 mm 1,5 UV-I 580 W/m -1,3 C 3,2 C 8,0 km/h (2 Bft) 100,00 %
26.02.2016 10:53 3,3 C 73 % 1014,6 hPa 0,0 l/m 9,7 km/h (2 Bft) S-SW 211 1 min 0,000 mm 1,5 UV-I 613 W/m -1,1 C 0,4 C 12,9 km/h (3 Bft) 100,00 %
26.02.2016 10:54 3,2 C 71 % 1014,6 hPa 0,0 l/m 8,7 km/h (2 Bft) S-SW 212 1 min 0,000 mm 1,6 UV-I 612 W/m -1,5 C 1,1 C 11,3 km/h (2 Bft) 95,83 %
26.02.2016 10:55 3,2 C 68 % 1014,6 hPa 0,0 l/m 2,2 km/h (1 Bft) SW 217 1 min 0,000 mm 1,5 UV-I 594 W/m -2,1 C 3,2 C 6,4 km/h (2 Bft) 100,00 %
26.02.2016 10:56 3,2 C 71 % 1014,6 hPa 0,0 l/m 4,9 km/h (1 Bft) S-SW 196 1 min 0,000 mm 1,6 UV-I 598 W/m -1,5 C 3,2 C 6,4 km/h (2 Bft) 95,83 %
26.02.2016 10:57 3,2 C 71 % 1014,6 hPa 0,0 l/m 6,1 km/h (2 Bft) SW 236 1 min 0,000 mm 1,6 UV-I 582 W/m -1,5 C 3,2 C 9,7 km/h (2 Bft) 96,15 %
26.02.2016 10:58 3,3 C 73 % 1014,6 hPa 0,0 l/m 6,0 km/h (2 Bft) S 175 1 min 0,000 mm 1,5 UV-I 573 W/m -1,1 C 3,3 C 8,0 km/h (2 Bft) 100,00 %
26.02.2016 10:59 3,5 C 73 % 1014,6 hPa 0,0 l/m 3,1 km/h (1 Bft) S-SO 153 1 min 0,000 mm 1,6 UV-I 579 W/m -0,9 C 3,5 C 4,8 km/h (1 Bft) 96,15 %
26.02.2016 11:00 3,7 C 75 % 1014,6 hPa 0,0 l/m 6,5 km/h (2 Bft) S-SW 213 1 min 0,178 mm 1,6 UV-I 594 W/m -0,3 C 3,6 C 9,7 km/h (2 Bft) 100,00 %
26.02.2016 11:01 3,7 C 71 % 1014,6 hPa 0,0 l/m 6,1 km/h (2 Bft) SO 132 1 min 0,000 mm 1,6 UV-I 601 W/m -1,1 C 3,7 C 8,0 km/h (2 Bft) 91,67 %
26.02.2016 11:02 3,7 C 69 % 1014,5 hPa 0,0 l/m 4,6 km/h (1 Bft) S-SO 167 1 min 0,000 mm 1,6 UV-I 613 W/m -1,4 C 3,7 C 8,0 km/h (2 Bft) 100,00 %
26.02.2016 11:03 3,6 C 69 % 1014,5 hPa 0,0 l/m 3,4 km/h (1 Bft) S 173 1 min 0,000 mm 1,6 UV-I 626 W/m -1,5 C 3,6 C 8,0 km/h (2 Bft) 95,83 %
26.02.2016 11:04 3,7 C 70 % 1014,5 hPa 0,0 l/m 7,6 km/h (2 Bft) SO 130 1 min 0,000 mm 1,6 UV-I 629 W/m -1,3 C 2,6 C 12,9 km/h (3 Bft) 100,00 %
26.02.2016 11:05 3,7 C 69 % 1014,5 hPa 0,0 l/m 8,9 km/h (2 Bft) S-SW 199 1 min 0,000 mm 1,6 UV-I 636 W/m -1,4 C 1,5 C 14,5 km/h (3 Bft) 96,30 %
26.02.2016 11:06 3,7 C 70 % 1014,5 hPa 0,0 l/m 9,9 km/h (2 Bft) S-SW 200 1 min 0,000 mm 1,6 UV-I 649 W/m -1,3 C 0,7 C 16,1 km/h (3 Bft) 94,12 %
26.02.2016 11:07 3,7 C 69 % 1014,5 hPa 0,0 l/m 9,5 km/h (2 Bft) SW 234 1 min 0,000 mm 1,6 UV-I 656 W/m -1,4 C 1,0 C 12,9 km/h (3 Bft) 96,30 %
26.02.2016 11:08 3,6 C 64 % 1014,5 hPa 0,0 l/m 7,3 km/h (2 Bft) S-SW 204 1 min 0,000 mm 1,6 UV-I 653 W/m -2,6 C 2,8 C 11,3 km/h (2 Bft) 95,65 %
26.02.2016 11:09 3,5 C 65 % 1014,5 hPa 0,0 l/m 8,0 km/h (2 Bft) SW 225 1 min 0,000 mm 1,7 UV-I 642 W/m -2,4 C 2,0 C 9,7 km/h (2 Bft) 100,00 %
26.02.2016 11:10 3,6 C 68 % 1014,5 hPa 0,0 l/m 7,9 km/h (2 Bft) SW 227 1 min 0,000 mm 1,7 UV-I 640 W/m -1,7 C 2,2 C 11,3 km/h (2 Bft) 91,30 %
26.02.2016 11:11 3,6 C 68 % 1014,5 hPa 0,0 l/m 4,8 km/h (1 Bft) S 183 1 min 0,000 mm 1,7 UV-I 631 W/m -1,7 C 3,6 C 8,0 km/h (2 Bft) 100,00 %
26.02.2016 11:12 3,6 C 68 % 1014,5 hPa 0,0 l/m 3,7 km/h (1 Bft) SW 223 1 min 0,000 mm 1,7 UV-I 630 W/m -1,7 C 3,6 C 6,4 km/h (2 Bft) 95,65 %
26.02.2016 11:13 3,6 C 66 % 1014,5 hPa 0,0 l/m 5,2 km/h (1 Bft) S 171 1 min 0,000 mm 1,7 UV-I 627 W/m -2,1 C 3,6 C 8,0 km/h (2 Bft) 96,30 %
26.02.2016 11:14 3,5 C 66 % 1014,5 hPa 0,0 l/m 3,8 km/h (1 Bft) SO 134 1 min 0,000 mm 1,7 UV-I 628 W/m -2,2 C 3,5 C 6,4 km/h (2 Bft) 92,86 %
26.02.2016 11:15 3,6 C 69 % 1014,5 hPa 0,0 l/m 4,0 km/h (1 Bft) S-SO 160 1 min 0,000 mm 1,7 UV-I 634 W/m -1,5 C 3,6 C 8,0 km/h (2 Bft) 95,83 %
26.02.2016 11:16 3,7 C 72 % 1014,5 hPa 0,0 l/m 4,2 km/h (1 Bft) S-SW 197 1 min 0,000 mm 1,6 UV-I 593 W/m -0,9 C 3,7 C 6,4 km/h (2 Bft) 100,00 %
26.02.2016 11:17 3,8 C 68 % 1014,5 hPa 0,0 l/m 7,2 km/h (2 Bft) W-SW 250 1 min 0,000 mm 1,3 UV-I 519 W/m -1,6 C 3,1 C 11,3 km/h (2 Bft) 95,83 %
26.02.2016 11:18 3,7 C 65 % 1014,5 hPa 0,0 l/m 4,5 km/h (1 Bft) W-SW 250 0 min 0,000 mm 1,3 UV-I 255 W/m -2,3 C 3,7 C 8,0 km/h (2 Bft) 100,00 %
26.02.2016 11:19 3,6 C 65 % 1014,5 hPa 0,0 l/m 6,7 km/h (2 Bft) S-SW 211 0 min 0,000 mm 1,4 UV-I 255 W/m -2,4 C 3,3 C 11,3 km/h (2 Bft) 100,00 %
26.02.2016 11:20 3,5 C 64 % 1014,5 hPa 0,0 l/m 7,1 km/h (2 Bft) S-SW 202 1 min 0,000 mm 1,7 UV-I 500 W/m -2,7 C 2,8 C 9,7 km/h (2 Bft) 96,67 %
26.02.2016 11:21 3,3 C 64 % 1014,5 hPa 0,0 l/m 2,5 km/h (1 Bft) S 190 1 min 0,000 mm 1,7 UV-I 638 W/m -2,8 C 3,3 C 4,8 km/h (1 Bft) 100,00 %
26.02.2016 11:22 3,3 C 64 % 1014,4 hPa 0,0 l/m 3,9 km/h (1 Bft) W 270 1 min 0,000 mm 1,7 UV-I 640 W/m -2,8 C 3,3 C 4,8 km/h (1 Bft) 96,30 %
26.02.2016 11:23 3,4 C 66 % 1014,4 hPa 0,0 l/m 3,8 km/h (1 Bft) W 270 1 min 0,000 mm 1,7 UV-I 674 W/m -2,3 C 3,4 C 4,8 km/h (1 Bft) 100,00 %
26.02.2016 11:24 3,4 C 64 % 1014,4 hPa 0,0 l/m 2,1 km/h (1 Bft) S 181 1 min 0,000 mm 1,7 UV-I 651 W/m -2,7 C 3,4 C 4,8 km/h (1 Bft) 100,00 %
26.02.2016 11:25 3,4 C 64 % 1014,4 hPa 0,0 l/m 2,1 km/h (1 Bft) W-SW 242 1 min 0,000 mm 1,6 UV-I 631 W/m -2,7 C 3,4 C 6,4 km/h (2 Bft) 100,00 %
26.02.2016 11:26 3,4 C 65 % 1014,4 hPa 0,0 l/m 6,0 km/h (2 Bft) W-SW 250 1 min 0,000 mm 1,4 UV-I 631 W/m -2,5 C 3,4 C 9,7 km/h (2 Bft) 100,00 %
26.02.2016 11:27 3,4 C 65 % 1014,4 hPa 0,0 l/m 6,1 km/h (2 Bft) W-SW 247 0 min 0,000 mm 1,3 UV-I 291 W/m -2,5 C 3,4 C 8,0 km/h (2 Bft) 100,00 %
26.02.2016 11:28 3,4 C 65 % 1014,3 hPa 0,0 l/m 4,3 km/h (1 Bft) W 266 0 min 0,000 mm 1,2 UV-I 177 W/m -2,5 C 3,4 C 4,8 km/h (1 Bft) 100,00 %
26.02.2016 11:29 3,4 C 68 % 1014,3 hPa 0,0 l/m 7,2 km/h (2 Bft) W 266 0 min 0,000 mm 1,2 UV-I 156 W/m -1,9 C 2,7 C 9,7 km/h (2 Bft) 96,15 %
26.02.2016 11:30 3,4 C 66 % 1014,4 hPa 0,0 l/m 4,9 km/h (1 Bft) W-NW 292 0 min 0,000 mm 1,2 UV-I 141 W/m -2,3 C 3,4 C 9,7 km/h (2 Bft) 100,00 %
26.02.2016 11:31 3,3 C 66 % 1014,4 hPa 0,0 l/m 5,2 km/h (1 Bft) W 259 0 min 0,000 mm 1,2 UV-I 131 W/m -2,4 C 3,3 C 8,0 km/h (2 Bft) 100,00 %
26.02.2016 11:32 3,3 C 67 % 1014,4 hPa 0,0 l/m 7,6 km/h (2 Bft) W-SW 257 0 min 0,000 mm 1,2 UV-I 123 W/m -2,2 C 2,2 C 11,3 km/h (2 Bft) 100,00 %
26.02.2016 11:33 3,2 C 67 % 1014,4 hPa 0,0 l/m 7,0 km/h (2 Bft) W 259 0 min 0,000 mm 1,2 UV-I 120 W/m -2,3 C 2,6 C 11,3 km/h (2 Bft) 100,00 %
26.02.2016 11:34 3,2 C 67 % 1014,4 hPa 0,0 l/m 4,5 km/h (1 Bft) W 269 0 min 0,000 mm 1,2 UV-I 120 W/m -2,3 C 3,2 C 6,4 km/h (2 Bft) 100,00 %
26.02.2016 11:35 3,2 C 67 % 1014,3 hPa 0,0 l/m 2,9 km/h (1 Bft) S 187 0 min 0,000 mm 1,2 UV-I 119 W/m -2,3 C 3,2 C 6,4 km/h (2 Bft) 100,00 %
26.02.2016 11:36 3,1 C 67 % 1014,3 hPa 0,0 l/m 5,9 km/h (2 Bft) S-SW 199 0 min 0,000 mm 1,2 UV-I 116 W/m -2,4 C 3,1 C 8,0 km/h (2 Bft) 100,00 %
26.02.2016 11:40 2,9 C 66 % 1014,3 hPa 0,0 l/m 3,2 km/h (1 Bft) S 180 0 min 0,000 mm 1,1 UV-I 112 W/m -2,8 C 2,9 C 8,0 km/h (2 Bft) 98,25 %
26.02.2016 11:44 2,8 C 68 % 1014,2 hPa 0,0 l/m 4,2 km/h (1 Bft) W-SW 250 0 min 0,000 mm 1,1 UV-I 111 W/m -2,5 C 2,8 C 6,4 km/h (2 Bft) 100,00 %
26.02.2016 11:45 2,9 C 68 % 1014,2 hPa 0,0 l/m 2,1 km/h (1 Bft) W-SW 250 0 min 0,000 mm 1,1 UV-I 114 W/m -2,4 C 2,9 C 3,2 km/h (1 Bft) 98,04 %
26.02.2016 11:46 2,9 C 66 % 1014,2 hPa 0,0 l/m 0,5 km/h (0 Bft) W-SW 251 0 min 0,000 mm 1,2 UV-I 117 W/m -2,8 C 2,9 C 1,6 km/h (1 Bft) 100,00 %
26.02.2016 11:47 2,9 C 66 % 1014,2 hPa 0,0 l/m 2,9 km/h (1 Bft) W-SW 250 0 min 0,000 mm 1,2 UV-I 122 W/m -2,8 C 2,9 C 4,8 km/h (1 Bft) 100,00 %
26.02.2016 11:48 2,8 C 67 % 1014,2 hPa 0,0 l/m 3,4 km/h (1 Bft) W-SW 257 0 min 0,000 mm 1,2 UV-I 123 W/m -2,7 C 2,8 C 4,8 km/h (1 Bft) 100,00 %
26.02.2016 11:49 2,9 C 66 % 1014,2 hPa 0,0 l/m 4,9 km/h (1 Bft) W 265 0 min 0,000 mm 1,2 UV-I 123 W/m -2,8 C 2,9 C 6,4 km/h (2 Bft) 100,00 %
26.02.2016 11:50 2,9 C 67 % 1014,2 hPa 0,0 l/m 5,0 km/h (1 Bft) SW 234 0 min 0,000 mm 1,2 UV-I 123 W/m -2,6 C 2,9 C 6,4 km/h (2 Bft) 100,00 %
26.02.2016 11:51 2,9 C 64 % 1014,2 hPa 0,0 l/m 3,6 km/h (1 Bft) W 266 0 min 0,000 mm 1,2 UV-I 121 W/m -3,2 C 2,9 C 4,8 km/h (1 Bft) 100,00 %
26.02.2016 11:52 3,0 C 65 % 1014,2 hPa 0,0 l/m 3,5 km/h (1 Bft) S 174 0 min 0,000 mm 1,1 UV-I 118 W/m -2,9 C 3,0 C 4,8 km/h (1 Bft) 100,00 %
26.02.2016 11:53 2,9 C 61 % 1014,1 hPa 0,0 l/m 4,1 km/h (1 Bft) S-SW 201 0 min 0,000 mm 1,1 UV-I 119 W/m -3,9 C 2,9 C 4,8 km/h (1 Bft) 100,00 %
26.02.2016 11:54 2,9 C 61 % 1014,1 hPa 0,0 l/m 3,1 km/h (1 Bft) W-SW 249 0 min 0,000 mm 1,1 UV-I 122 W/m -3,9 C 2,9 C 4,8 km/h (1 Bft) 100,00 %
26.02.2016 11:55 3,0 C 63 % 1014,1 hPa 0,0 l/m 3,0 km/h (1 Bft) W-SW 250 0 min 0,000 mm 1,1 UV-I 126 W/m -3,3 C 3,0 C 4,8 km/h (1 Bft) 100,00 %
26.02.2016 11:56 2,9 C 58 % 1014,1 hPa 0,0 l/m 2,0 km/h (1 Bft) SW 220 0 min 0,000 mm 1,1 UV-I 133 W/m -4,5 C 2,9 C 3,2 km/h (1 Bft) 100,00 %
26.02.2016 11:57 2,9 C 60 % 1014,1 hPa 0,0 l/m 2,8 km/h (1 Bft) SW 224 0 min 0,000 mm 1,1 UV-I 139 W/m -4,1 C 2,9 C 4,8 km/h (1 Bft) 100,00 %
26.02.2016 11:58 2,9 C 60 % 1014,1 hPa 0,0 l/m 4,0 km/h (1 Bft) W-SW 256 0 min 0,000 mm 1,1 UV-I 147 W/m -4,1 C 2,9 C 4,8 km/h (1 Bft) 95,83 %
26.02.2016 11:59 2,9 C 59 % 1014,1 hPa 0,0 l/m 2,3 km/h (1 Bft) W-SW 256 0 min 0,000 mm 1,2 UV-I 151 W/m -4,3 C 2,9 C 3,2 km/h (1 Bft) 100,00 %
26.02.2016 12:00 2,9 C 59 % 1014,1 hPa 0,0 l/m 1,0 km/h (0 Bft) W-SW 256 0 min 0,127 mm 1,2 UV-I 152 W/m -4,3 C 2,9 C 3,2 km/h (1 Bft) 100,00 %
26.02.2016 12:01 2,9 C 63 % 1014,1 hPa 0,0 l/m 0,0 km/h (0 Bft) W-SW 256 0 min 0,000 mm 1,2 UV-I 152 W/m -3,4 C 2,9 C 0,0 km/h (0 Bft) 100,00 %
26.02.2016 12:02 2,9 C 62 % 1014,0 hPa 0,0 l/m 0,0 km/h (0 Bft) W-SW 256 0 min 0,000 mm 1,2 UV-I 152 W/m -3,6 C 2,9 C 0,0 km/h (0 Bft) 100,00 %
26.02.2016 12:03 2,9 C 63 % 1014,0 hPa 0,0 l/m 0,8 km/h (0 Bft) W-SW 256 0 min 0,000 mm 1,2 UV-I 157 W/m -3,4 C 2,9 C 1,6 km/h (1 Bft) 100,00 %
26.02.2016 12:04 2,9 C 61 % 1014,0 hPa 0,0 l/m 2,4 km/h (1 Bft) S-SW 207 0 min 0,000 mm 1,3 UV-I 183 W/m -3,9 C 2,9 C 4,8 km/h (1 Bft) 92,86 %
26.02.2016 12:05 2,9 C 61 % 1014,0 hPa 0,0 l/m 0,7 km/h (0 Bft) S-SW 207 0 min 0,000 mm 1,3 UV-I 197 W/m -3,9 C 2,9 C 1,6 km/h (1 Bft) 100,00 %
26.02.2016 12:06 2,9 C 61 % 1013,9 hPa 0,0 l/m 0,1 km/h (0 Bft) S-SW 207 0 min 0,000 mm 1,4 UV-I 222 W/m -3,9 C 2,9 C 1,6 km/h (1 Bft) 100,00 %
26.02.2016 12:07 2,9 C 63 % 1013,9 hPa 0,0 l/m 0,7 km/h (0 Bft) S-SW 207 0 min 0,000 mm 1,6 UV-I 250 W/m -3,4 C 2,9 C 1,6 km/h (1 Bft) 100,00 %
26.02.2016 12:08 3,1 C 63 % 1013,9 hPa 0,0 l/m 1,0 km/h (0 Bft) S-SW 207 1 min 0,000 mm 1,9 UV-I 564 W/m -3,2 C 3,1 C 1,6 km/h (1 Bft) 96,15 %
26.02.2016 12:09 3,3 C 62 % 1013,9 hPa 0,0 l/m 0,8 km/h (0 Bft) W-SW 248 1 min 0,000 mm 1,9 UV-I 688 W/m -3,3 C 3,3 C 4,8 km/h (1 Bft) 100,00 %
26.02.2016 12:10 3,4 C 63 % 1013,9 hPa 0,0 l/m 3,8 km/h (1 Bft) W-SW 248 1 min 0,000 mm 1,9 UV-I 689 W/m -3,0 C 3,4 C 4,8 km/h (1 Bft) 100,00 %
26.02.2016 12:11 3,5 C 62 % 1013,8 hPa 0,0 l/m 3,1 km/h (1 Bft) S-SW 192 1 min 0,000 mm 1,9 UV-I 673 W/m -3,1 C 3,5 C 4,8 km/h (1 Bft) 100,00 %
26.02.2016 12:12 3,5 C 60 % 1013,8 hPa 0,0 l/m 3,0 km/h (1 Bft) S 187 1 min 0,000 mm 1,7 UV-I 624 W/m -3,5 C 3,5 C 4,8 km/h (1 Bft) 100,00 %
26.02.2016 12:13 3,4 C 60 % 1013,8 hPa 0,0 l/m 0,9 km/h (0 Bft) S 187 1 min 0,000 mm 1,5 UV-I 624 W/m -3,6 C 3,4 C 1,6 km/h (1 Bft) 95,83 %
26.02.2016 12:14 3,4 C 59 % 1013,8 hPa 0,0 l/m 1,6 km/h (1 Bft) S 181 1 min 0,000 mm 1,4 UV-I 325 W/m -3,8 C 3,4 C 3,2 km/h (1 Bft) 100,00 %
26.02.2016 12:15 3,3 C 61 % 1013,7 hPa 0,0 l/m 2,8 km/h (1 Bft) SO 136 0 min 0,000 mm 1,5 UV-I 248 W/m -3,5 C 3,3 C 4,8 km/h (1 Bft) 100,00 %
26.02.2016 12:16 3,3 C 60 % 1013,7 hPa 0,0 l/m 1,7 km/h (1 Bft) SO 138 0 min 0,000 mm 1,4 UV-I 243 W/m -3,7 C 3,3 C 3,2 km/h (1 Bft) 100,00 %
26.02.2016 12:17 3,2 C 61 % 1013,7 hPa 0,0 l/m 0,7 km/h (0 Bft) SO 138 0 min 0,000 mm 1,4 UV-I 217 W/m -3,6 C 3,2 C 1,6 km/h (1 Bft) 100,00 %
26.02.2016 12:18 3,2 C 62 % 1013,7 hPa 0,0 l/m 1,7 km/h (1 Bft) S-SW 195 0 min 0,000 mm 1,4 UV-I 232 W/m -3,4 C 3,2 C 4,8 km/h (1 Bft) 100,00 %
26.02.2016 12:19 3,3 C 61 % 1013,7 hPa 0,0 l/m 3,6 km/h (1 Bft) W-SW 241 0 min 0,000 mm 1,4 UV-I 237 W/m -3,5 C 3,3 C 4,8 km/h (1 Bft) 100,00 %
26.02.2016 12:20 3,3 C 63 % 1013,7 hPa 0,0 l/m 3,8 km/h (1 Bft) W-SW 241 0 min 0,000 mm 1,4 UV-I 232 W/m -3,1 C 3,3 C 4,8 km/h (1 Bft) 100,00 %
26.02.2016 12:21 3,3 C 61 % 1013,6 hPa 0,0 l/m 1,9 km/h (1 Bft) W-SW 241 0 min 0,000 mm 1,4 UV-I 231 W/m -3,5 C 3,3 C 3,2 km/h (1 Bft) 100,00 %
26.02.2016 12:22 3,3 C 59 % 1013,6 hPa 0,0 l/m 0,3 km/h (0 Bft) W-SW 241 0 min 0,000 mm 1,4 UV-I 239 W/m -3,9 C 3,3 C 1,6 km/h (1 Bft) 100,00 %
26.02.2016 12:23 3,3 C 59 % 1013,6 hPa 0,0 l/m 1,7 km/h (1 Bft) W-SW 241 0 min 0,000 mm 1,4 UV-I 233 W/m -3,9 C 3,3 C 3,2 km/h (1 Bft) 100,00 %
26.02.2016 12:24 3,3 C 59 % 1013,6 hPa 0,0 l/m 0,4 km/h (0 Bft) W-SW 241 0 min 0,000 mm 1,4 UV-I 227 W/m -3,9 C 3,3 C 1,6 km/h (1 Bft) 100,00 %
26.02.2016 12:25 3,3 C 58 % 1013,6 hPa 0,0 l/m 0,0 km/h (0 Bft) W-SW 241 0 min 0,000 mm 1,3 UV-I 223 W/m -4,2 C 3,3 C 0,0 km/h (0 Bft) 100,00 %
26.02.2016 12:26 3,3 C 57 % 1013,6 hPa 0,0 l/m 0,1 km/h (0 Bft) W-SW 241 0 min 0,000 mm 1,3 UV-I 225 W/m -4,4 C 3,3 C 1,6 km/h (1 Bft) 100,00 %
26.02.2016 12:27 3,3 C 57 % 1013,6 hPa 0,0 l/m 0,5 km/h (0 Bft) W-SW 241 0 min 0,000 mm 1,3 UV-I 227 W/m -4,4 C 3,3 C 1,6 km/h (1 Bft) 100,00 %
26.02.2016 12:28 3,3 C 59 % 1013,6 hPa 0,0 l/m 2,9 km/h (1 Bft) W-NW 287 0 min 0,000 mm 1,3 UV-I 222 W/m -3,9 C 3,3 C 4,8 km/h (1 Bft) 95,83 %
26.02.2016 12:29 3,4 C 60 % 1013,6 hPa 0,0 l/m 0,3 km/h (0 Bft) W-NW 287 0 min 0,000 mm 1,3 UV-I 212 W/m -3,6 C 3,4 C 1,6 km/h (1 Bft) 100,00 %
26.02.2016 12:30 3,4 C 60 % 1013,5 hPa 0,0 l/m 3,0 km/h (1 Bft) W-SW 255 0 min 0,000 mm 1,3 UV-I 202 W/m -3,6 C 3,4 C 4,8 km/h (1 Bft) 100,00 %
26.02.2016 12:31 3,4 C 59 % 1013,5 hPa 0,0 l/m 3,1 km/h (1 Bft) W-SW 248 0 min 0,000 mm 1,3 UV-I 199 W/m -3,8 C 3,4 C 4,8 km/h (1 Bft) 100,00 %
26.02.2016 12:32 3,5 C 61 % 1013,6 hPa 0,0 l/m 4,5 km/h (1 Bft) S 189 0 min 0,000 mm 1,3 UV-I 202 W/m -3,3 C 3,5 C 6,4 km/h (2 Bft) 100,00 %
26.02.2016 12:33 3,6 C 62 % 1013,5 hPa 0,0 l/m 6,3 km/h (2 Bft) S 191 0 min 0,000 mm 1,3 UV-I 202 W/m -3,0 C 3,6 C 8,0 km/h (2 Bft) 95,65 %
26.02.2016 12:34 3,6 C 61 % 1013,6 hPa 0,0 l/m 6,1 km/h (2 Bft) S-SW 195 0 min 0,000 mm 1,3 UV-I 197 W/m -3,2 C 3,6 C 8,0 km/h (2 Bft) 95,83 %
26.02.2016 12:35 3,4 C 59 % 1013,5 hPa 0,0 l/m 4,5 km/h (1 Bft) S-SW 196 0 min 0,000 mm 1,3 UV-I 192 W/m -3,8 C 3,4 C 6,4 km/h (2 Bft) 100,00 %
26.02.2016 12:36 3,4 C 59 % 1013,5 hPa 0,0 l/m 2,0 km/h (1 Bft) S 186 0 min 0,000 mm 1,3 UV-I 191 W/m -3,8 C 3,4 C 3,2 km/h (1 Bft) 95,83 %
26.02.2016 12:37 3,3 C 58 % 1013,5 hPa 0,0 l/m 1,0 km/h (0 Bft) S 186 0 min 0,000 mm 1,3 UV-I 197 W/m -4,2 C 3,3 C 1,6 km/h (1 Bft) 100,00 %
26.02.2016 12:38 3,3 C 59 % 1013,5 hPa 0,0 l/m 0,6 km/h (0 Bft) S 186 0 min 0,000 mm 1,4 UV-I 200 W/m -3,9 C 3,3 C 3,2 km/h (1 Bft) 96,15 %
26.02.2016 12:39 3,3 C 59 % 1013,4 hPa 0,0 l/m 1,1 km/h (1 Bft) S 186 0 min 0,000 mm 1,4 UV-I 214 W/m -3,9 C 3,3 C 3,2 km/h (1 Bft) 100,00 %
26.02.2016 12:40 3,3 C 59 % 1013,5 hPa 0,0 l/m 0,6 km/h (0 Bft) S 186 0 min 0,000 mm 1,4 UV-I 197 W/m -3,9 C 3,3 C 3,2 km/h (1 Bft) 91,67 %
26.02.2016 12:41 3,3 C 59 % 1013,4 hPa 0,0 l/m 1,1 km/h (1 Bft) S 171 0 min 0,000 mm 1,3 UV-I 153 W/m -3,9 C 3,3 C 3,2 km/h (1 Bft) 96,15 %
26.02.2016 12:42 3,3 C 62 % 1013,4 hPa 0,0 l/m 2,3 km/h (1 Bft) S-SO 155 0 min 0,000 mm 1,3 UV-I 146 W/m -3,3 C 3,3 C 3,2 km/h (1 Bft) 100,00 %
26.02.2016 12:43 3,4 C 62 % 1013,4 hPa 0,0 l/m 4,8 km/h (1 Bft) O-SO 121 0 min 0,000 mm 1,3 UV-I 142 W/m -3,2 C 3,4 C 6,4 km/h (2 Bft) 95,83 %
26.02.2016 12:44 3,4 C 63 % 1013,4 hPa 0,0 l/m 4,8 km/h (1 Bft) SO 138 0 min 0,000 mm 1,3 UV-I 141 W/m -3,0 C 3,4 C 6,4 km/h (2 Bft) 100,00 %
26.02.2016 12:45 3,4 C 63 % 1013,4 hPa 0,0 l/m 4,1 km/h (1 Bft) S 170 0 min 0,000 mm 1,3 UV-I 141 W/m -3,0 C 3,4 C 6,4 km/h (2 Bft) 91,67 %
26.02.2016 12:46 3,4 C 60 % 1013,4 hPa 0,0 l/m 3,0 km/h (1 Bft) S-SO 163 0 min 0,000 mm 1,4 UV-I 142 W/m -3,6 C 3,4 C 6,4 km/h (2 Bft) 100,00 %
26.02.2016 12:47 3,4 C 61 % 1013,4 hPa 0,0 l/m 1,8 km/h (1 Bft) S-SO 163 0 min 0,000 mm 1,6 UV-I 144 W/m -3,4 C 3,4 C 3,2 km/h (1 Bft) 98,44 %
26.02.2016 12:48 3,4 C 61 % 1013,4 hPa 0,0 l/m 2,1 km/h (1 Bft) S-SO 157 0 min 0,000 mm 1,8 UV-I 144 W/m -3,4 C 3,4 C 4,8 km/h (1 Bft) 97,73 %
26.02.2016 12:49 3,5 C 63 % 1013,4 hPa 0,0 l/m 3,2 km/h (1 Bft) S-SW 201 1 min 0,000 mm 1,8 UV-I 458 W/m -2,9 C 3,5 C 4,8 km/h (1 Bft) 95,83 %
26.02.2016 12:50 3,7 C 61 % 1013,3 hPa 0,0 l/m 2,3 km/h (1 Bft) S 183 1 min 0,000 mm 1,8 UV-I 564 W/m -3,1 C 3,7 C 4,8 km/h (1 Bft) 96,15 %
26.02.2016 12:51 3,8 C 59 % 1013,3 hPa 0,0 l/m 1,9 km/h (1 Bft) S 188 1 min 0,000 mm 1,9 UV-I 564 W/m -3,5 C 3,8 C 3,2 km/h (1 Bft) 100,00 %
26.02.2016 12:52 3,9 C 63 % 1013,3 hPa 0,0 l/m 4,1 km/h (1 Bft) S 186 1 min 0,000 mm 1,9 UV-I 564 W/m -2,5 C 3,9 C 8,0 km/h (2 Bft) 96,15 %
26.02.2016 12:53 4,1 C 60 % 1013,4 hPa 0,0 l/m 1,5 km/h (1 Bft) S 186 1 min 0,000 mm 1,9 UV-I 568 W/m -3,0 C 4,1 C 4,8 km/h (1 Bft) 100,00 %
26.02.2016 12:54 4,1 C 59 % 1013,3 hPa 0,0 l/m 1,6 km/h (1 Bft) S 186 1 min 0,000 mm 1,9 UV-I 570 W/m -3,2 C 4,1 C 3,2 km/h (1 Bft) 95,65 %
26.02.2016 12:55 4,2 C 60 % 1013,3 hPa 0,0 l/m 1,3 km/h (1 Bft) S-SO 157 1 min 0,000 mm 1,9 UV-I 565 W/m -2,9 C 4,2 C 4,8 km/h (1 Bft) 100,00 %
26.02.2016 12:56 4,2 C 57 % 1013,3 hPa 0,0 l/m 4,3 km/h (1 Bft) SO 133 1 min 0,000 mm 1,9 UV-I 561 W/m -3,5 C 4,2 C 6,4 km/h (2 Bft) 91,67 %
26.02.2016 12:57 4,1 C 57 % 1013,2 hPa 0,0 l/m 4,9 km/h (1 Bft) O 84 1 min 0,000 mm 1,9 UV-I 561 W/m -3,6 C 4,1 C 9,7 km/h (2 Bft) 100,00 %
26.02.2016 12:58 4,1 C 59 % 1013,2 hPa 0,0 l/m 4,1 km/h (1 Bft) O 98 1 min 0,000 mm 1,9 UV-I 559 W/m -3,2 C 4,1 C 6,4 km/h (2 Bft) 91,67 %
26.02.2016 12:59 4,1 C 58 % 1013,2 hPa 0,0 l/m 4,0 km/h (1 Bft) O-NO 69 1 min 0,000 mm 1,9 UV-I 553 W/m -3,4 C 4,1 C 4,8 km/h (1 Bft) 96,15 %
26.02.2016 13:00 4,1 C 57 % 1013,2 hPa 0,0 l/m 3,5 km/h (1 Bft) O-NO 69 1 min 0,000 mm 1,8 UV-I 549 W/m -3,6 C 4,1 C 4,8 km/h (1 Bft) 100,00 %
26.02.2016 13:01 4,1 C 57 % 1013,2 hPa 0,0 l/m 1,7 km/h (1 Bft) O-NO 69 1 min 0,127 mm 1,8 UV-I 547 W/m -3,6 C 4,1 C 3,2 km/h (1 Bft) 96,55 %
26.02.2016 13:02 4,1 C 58 % 1013,2 hPa 0,0 l/m 4,0 km/h (1 Bft) O-NO 57 1 min 0,000 mm 1,8 UV-I 545 W/m -3,4 C 4,1 C 6,4 km/h (2 Bft) 100,00 %
26.02.2016 13:03 4,2 C 61 % 1013,1 hPa 0,0 l/m 5,0 km/h (1 Bft) NO 51 1 min 0,000 mm 1,8 UV-I 544 W/m -2,6 C 4,2 C 6,4 km/h (2 Bft) 95,83 %
26.02.2016 13:04 4,3 C 59 % 1013,2 hPa 0,0 l/m 3,3 km/h (1 Bft) NO 51 1 min 0,000 mm 1,8 UV-I 542 W/m -3,0 C 4,3 C 4,8 km/h (1 Bft) 100,00 %
26.02.2016 13:05 4,3 C 55 % 1013,1 hPa 0,0 l/m 2,8 km/h (1 Bft) NO 51 1 min 0,000 mm 1,8 UV-I 541 W/m -3,9 C 4,3 C 4,8 km/h (1 Bft) 100,00 %
26.02.2016 13:06 4,4 C 61 % 1013,1 hPa 0,0 l/m 1,2 km/h (1 Bft) NO 51 1 min 0,000 mm 1,8 UV-I 541 W/m -2,4 C 4,4 C 3,2 km/h (1 Bft) 100,00 %
26.02.2016 13:07 4,5 C 61 % 1013,1 hPa 0,0 l/m 2,6 km/h (1 Bft) NO 51 1 min 0,000 mm 1,8 UV-I 540 W/m -2,4 C 4,5 C 4,8 km/h (1 Bft) 100,00 %
26.02.2016 13:08 4,5 C 58 % 1013,1 hPa 0,0 l/m 1,3 km/h (1 Bft) NO 51 1 min 0,000 mm 1,8 UV-I 540 W/m -3,0 C 4,5 C 3,2 km/h (1 Bft) 96,30 %
26.02.2016 13:09 4,4 C 55 % 1013,0 hPa 0,0 l/m 2,6 km/h (1 Bft) O-NO 67 1 min 0,000 mm 1,8 UV-I 538 W/m -3,8 C 4,4 C 4,8 km/h (1 Bft) 100,00 %
26.02.2016 13:10 4,5 C 56 % 1013,1 hPa 0,0 l/m 2,0 km/h (1 Bft) O-NO 76 1 min 0,000 mm 1,8 UV-I 535 W/m -3,5 C 4,5 C 4,8 km/h (1 Bft) 95,83 %
26.02.2016 13:11 4,6 C 58 % 1013,0 hPa 0,0 l/m 5,2 km/h (1 Bft) NO 46 1 min 0,000 mm 1,8 UV-I 535 W/m -2,9 C 4,6 C 6,4 km/h (2 Bft) 100,00 %
26.02.2016 13:12 4,7 C 55 % 1013,0 hPa 0,0 l/m 4,0 km/h (1 Bft) NO 46 1 min 0,000 mm 1,8 UV-I 533 W/m -3,6 C 4,7 C 6,4 km/h (2 Bft) 100,00 %
26.02.2016 13:13 4,8 C 58 % 1013,0 hPa 0,0 l/m 3,0 km/h (1 Bft) NO 40 1 min 0,000 mm 1,8 UV-I 533 W/m -2,7 C 4,8 C 6,4 km/h (2 Bft) 95,65 %
26.02.2016 13:14 4,9 C 60 % 1013,0 hPa 0,0 l/m 4,0 km/h (1 Bft) NO 40 1 min 0,000 mm 1,8 UV-I 527 W/m -2,2 C 4,9 C 6,4 km/h (2 Bft) 95,83 %
26.02.2016 13:15 4,8 C 54 % 1013,0 hPa 0,0 l/m 3,4 km/h (1 Bft) N-NO 32 1 min 0,000 mm 1,7 UV-I 528 W/m -3,7 C 4,8 C 4,8 km/h (1 Bft) 100,00 %
26.02.2016 13:16 4,8 C 55 % 1012,9 hPa 0,0 l/m 1,1 km/h (1 Bft) N-NO 32 1 min 0,000 mm 1,7 UV-I 527 W/m -3,5 C 4,8 C 1,6 km/h (1 Bft) 96,15 %
26.02.2016 13:17 4,8 C 56 % 1012,9 hPa 0,0 l/m 2,1 km/h (1 Bft) NO 35 1 min 0,000 mm 1,7 UV-I 526 W/m -3,2 C 4,8 C 4,8 km/h (1 Bft) 100,00 %
26.02.2016 13:18 4,7 C 54 % 1012,9 hPa 0,0 l/m 3,5 km/h (1 Bft) NO 35 1 min 0,000 mm 1,7 UV-I 526 W/m -3,8 C 4,7 C 6,4 km/h (2 Bft) 100,00 %
26.02.2016 13:19 4,7 C 55 % 1012,9 hPa 0,0 l/m 4,8 km/h (1 Bft) NO 34 1 min 0,000 mm 1,7 UV-I 526 W/m -3,6 C 4,7 C 6,4 km/h (2 Bft) 100,00 %
26.02.2016 13:20 4,8 C 59 % 1012,8 hPa 0,0 l/m 1,7 km/h (1 Bft) NO 34 1 min 0,000 mm 1,7 UV-I 526 W/m -2,5 C 4,8 C 3,2 km/h (1 Bft) 100,00 %
26.02.2016 13:21 4,7 C 56 % 1012,8 hPa 0,0 l/m 1,9 km/h (1 Bft) NO 34 1 min 0,000 mm 1,7 UV-I 525 W/m -3,3 C 4,7 C 3,2 km/h (1 Bft) 100,00 %
26.02.2016 13:22 4,7 C 56 % 1012,8 hPa 0,0 l/m 0,9 km/h (0 Bft) NO 34 1 min 0,000 mm 1,7 UV-I 524 W/m -3,3 C 4,7 C 3,2 km/h (1 Bft) 100,00 %
26.02.2016 13:23 4,5 C 53 % 1012,8 hPa 0,0 l/m 1,6 km/h (1 Bft) NO 34 1 min 0,000 mm 1,7 UV-I 524 W/m -4,2 C 4,5 C 3,2 km/h (1 Bft) 100,00 %
26.02.2016 13:24 4,4 C 54 % 1012,8 hPa 0,0 l/m 3,9 km/h (1 Bft) O 87 1 min 0,000 mm 1,7 UV-I 522 W/m -4,1 C 4,4 C 6,4 km/h (2 Bft) 96,15 %
26.02.2016 13:25 4,5 C 55 % 1012,8 hPa 0,0 l/m 7,4 km/h (2 Bft) SO 130 1 min 0,000 mm 1,7 UV-I 520 W/m -3,7 C 3,6 C 11,3 km/h (2 Bft) 100,00 %
26.02.2016 13:26 4,6 C 53 % 1012,8 hPa 0,0 l/m 5,4 km/h (1 Bft) SO 146 1 min 0,000 mm 1,7 UV-I 520 W/m -4,1 C 4,6 C 9,7 km/h (2 Bft) 100,00 %
26.02.2016 13:27 4,6 C 52 % 1012,8 hPa 0,0 l/m 4,0 km/h (1 Bft) SO 129 1 min 0,000 mm 1,7 UV-I 520 W/m -4,4 C 4,6 C 4,8 km/h (1 Bft) 100,00 %
26.02.2016 13:28 4,6 C 51 % 1012,8 hPa 0,0 l/m 3,6 km/h (1 Bft) O-SO 119 1 min 0,000 mm 1,6 UV-I 520 W/m -4,6 C 4,6 C 6,4 km/h (2 Bft) 100,00 %
26.02.2016 13:29 4,6 C 50 % 1012,8 hPa 0,0 l/m 3,6 km/h (1 Bft) O-NO 75 1 min 0,000 mm 1,6 UV-I 520 W/m -4,9 C 4,6 C 4,8 km/h (1 Bft) 100,00 %
26.02.2016 13:30 4,5 C 51 % 1012,7 hPa 0,0 l/m 4,6 km/h (1 Bft) O 95 1 min 0,000 mm 1,6 UV-I 520 W/m -4,7 C 4,5 C 6,4 km/h (2 Bft) 96,15 %
26.02.2016 13:31 4,6 C 52 % 1012,7 hPa 0,0 l/m 2,1 km/h (1 Bft) O 95 1 min 0,000 mm 1,6 UV-I 519 W/m -4,4 C 4,6 C 3,2 km/h (1 Bft) 100,00 %
26.02.2016 13:32 4,6 C 52 % 1012,7 hPa 0,0 l/m 3,0 km/h (1 Bft) O-SO 107 1 min 0,000 mm 1,6 UV-I 517 W/m -4,4 C 4,6 C 6,4 km/h (2 Bft) 100,00 %
26.02.2016 13:33 4,6 C 51 % 1012,7 hPa 0,0 l/m 2,3 km/h (1 Bft) O 98 1 min 0,000 mm 1,6 UV-I 517 W/m -4,6 C 4,6 C 4,8 km/h (1 Bft) 96,30 %
26.02.2016 13:34 4,7 C 53 % 1012,7 hPa 0,0 l/m 0,7 km/h (0 Bft) O 98 1 min 0,000 mm 1,6 UV-I 519 W/m -4,0 C 4,7 C 1,6 km/h (1 Bft) 98,43 %
26.02.2016 13:35 4,7 C 53 % 1012,7 hPa 0,0 l/m 1,2 km/h (1 Bft) NW 313 1 min 0,000 mm 1,6 UV-I 523 W/m -4,0 C 4,7 C 3,2 km/h (1 Bft) 100,00 %
26.02.2016 13:36 4,7 C 54 % 1012,7 hPa 0,0 l/m 2,3 km/h (1 Bft) W-NW 299 1 min 0,000 mm 1,6 UV-I 526 W/m -3,8 C 4,7 C 3,2 km/h (1 Bft) 100,00 %
26.02.2016 13:37 4,8 C 55 % 1012,7 hPa 0,0 l/m 2,5 km/h (1 Bft) NW 315 1 min 0,000 mm 1,6 UV-I 530 W/m -3,5 C 4,8 C 4,8 km/h (1 Bft) 92,31 %
26.02.2016 13:38 4,8 C 53 % 1012,6 hPa 0,0 l/m 2,3 km/h (1 Bft) W-NW 290 1 min 0,000 mm 1,6 UV-I 535 W/m -4,0 C 4,8 C 4,8 km/h (1 Bft) 100,00 %
26.02.2016 13:39 4,8 C 53 % 1012,6 hPa 0,0 l/m 5,1 km/h (1 Bft) S-SO 150 1 min 0,000 mm 1,6 UV-I 539 W/m -4,0 C 4,8 C 8,0 km/h (2 Bft) 96,15 %
26.02.2016 13:40 4,9 C 57 % 1012,7 hPa 0,0 l/m 2,6 km/h (1 Bft) SO 127 1 min 0,000 mm 1,6 UV-I 545 W/m -2,9 C 4,9 C 3,2 km/h (1 Bft) 100,00 %
26.02.2016 13:41 4,9 C 55 % 1012,7 hPa 0,0 l/m 3,1 km/h (1 Bft) O-NO 62 1 min 0,000 mm 1,6 UV-I 550 W/m -3,4 C 4,9 C 6,4 km/h (2 Bft) 100,00 %
26.02.2016 13:42 5,0 C 55 % 1012,6 hPa 0,0 l/m 3,1 km/h (1 Bft) NO 40 1 min 0,000 mm 1,6 UV-I 550 W/m -3,3 C 5,0 C 6,4 km/h (2 Bft) 100,00 %
26.02.2016 13:43 5,1 C 57 % 1012,6 hPa 0,0 l/m 5,7 km/h (1 Bft) O-NO 62 1 min 0,000 mm 1,6 UV-I 552 W/m -2,7 C 5,1 C 9,7 km/h (2 Bft) 96,55 %
26.02.2016 13:44 5,1 C 56 % 1012,6 hPa 0,0 l/m 6,3 km/h (2 Bft) NO 42 1 min 0,000 mm 1,6 UV-I 555 W/m -2,9 C 5,1 C 8,0 km/h (2 Bft) 95,83 %
26.02.2016 13:45 5,1 C 55 % 1012,6 hPa 0,0 l/m 4,2 km/h (1 Bft) N-NO 26 1 min 0,000 mm 1,6 UV-I 558 W/m -3,2 C 5,1 C 6,4 km/h (2 Bft) 100,00 %
26.02.2016 13:46 5,0 C 57 % 1012,6 hPa 0,0 l/m 2,9 km/h (1 Bft) N-NO 13 1 min 0,000 mm 1,5 UV-I 557 W/m -2,8 C 5,0 C 4,8 km/h (1 Bft) 100,00 %
26.02.2016 13:47 5,0 C 55 % 1012,6 hPa 0,0 l/m 1,5 km/h (1 Bft) N-NW 344 1 min 0,000 mm 1,5 UV-I 558 W/m -3,3 C 5,0 C 3,2 km/h (1 Bft) 100,00 %
26.02.2016 13:48 5,1 C 59 % 1012,5 hPa 0,0 l/m 1,0 km/h (0 Bft) N-NW 337 1 min 0,000 mm 1,5 UV-I 561 W/m -2,2 C 5,1 C 3,2 km/h (1 Bft) 100,00 %
26.02.2016 13:49 5,1 C 57 % 1012,5 hPa 0,0 l/m 1,2 km/h (1 Bft) N-NW 337 1 min 0,000 mm 1,5 UV-I 568 W/m -2,7 C 5,1 C 3,2 km/h (1 Bft) 100,00 %
26.02.2016 13:50 5,1 C 54 % 1012,5 hPa 0,0 l/m 2,1 km/h (1 Bft) NO 44 1 min 0,000 mm 1,5 UV-I 569 W/m -3,4 C 5,1 C 3,2 km/h (1 Bft) 100,00 %
26.02.2016 13:51 5,2 C 57 % 1012,5 hPa 0,0 l/m 7,2 km/h (2 Bft) O-NO 78 1 min 0,000 mm 1,5 UV-I 567 W/m -2,6 C 4,5 C 11,3 km/h (2 Bft) 100,00 %
26.02.2016 13:52 5,2 C 55 % 1012,5 hPa 0,0 l/m 5,1 km/h (1 Bft) NO 49 1 min 0,000 mm 1,5 UV-I 568 W/m -3,1 C 5,2 C 11,3 km/h (2 Bft) 100,00 %
26.02.2016 13:53 5,2 C 52 % 1012,5 hPa 0,0 l/m 5,1 km/h (1 Bft) O-SO 119 1 min 0,000 mm 1,5 UV-I 564 W/m -3,8 C 5,2 C 6,4 km/h (2 Bft) 100,00 %
26.02.2016 13:54 5,2 C 55 % 1012,5 hPa 0,0 l/m 6,4 km/h (2 Bft) O 87 1 min 0,000 mm 1,5 UV-I 558 W/m -3,1 C 5,2 C 11,3 km/h (2 Bft) 100,00 %
26.02.2016 13:55 5,1 C 52 % 1012,5 hPa 0,0 l/m 6,1 km/h (2 Bft) O-SO 104 1 min 0,000 mm 1,4 UV-I 557 W/m -3,9 C 5,1 C 11,3 km/h (2 Bft) 96,15 %
26.02.2016 13:56 4,9 C 52 % 1012,5 hPa 0,0 l/m 5,2 km/h (1 Bft) O-NO 74 1 min 0,000 mm 1,4 UV-I 565 W/m -4,1 C 4,9 C 6,4 km/h (2 Bft) 95,83 %
26.02.2016 13:57 5,0 C 55 % 1012,5 hPa 0,0 l/m 3,9 km/h (1 Bft) O-NO 73 1 min 0,000 mm 1,4 UV-I 569 W/m -3,3 C 5,0 C 8,0 km/h (2 Bft) 100,00 %
26.02.2016 13:58 4,9 C 51 % 1012,5 hPa 0,0 l/m 0,7 km/h (0 Bft) O-NO 73 1 min 0,000 mm 1,4 UV-I 572 W/m -4,4 C 4,9 C 1,6 km/h (1 Bft) 100,00 %
26.02.2016 13:59 4,9 C 51 % 1012,5 hPa 0,0 l/m 1,2 km/h (1 Bft) NO 47 1 min 0,000 mm 1,4 UV-I 576 W/m -4,4 C 4,9 C 3,2 km/h (1 Bft) 100,00 %
26.02.2016 14:00 4,8 C 51 % 1012,4 hPa 0,0 l/m 1,2 km/h (1 Bft) NO 34 1 min 0,000 mm 1,4 UV-I 583 W/m -4,5 C 4,8 C 6,4 km/h (2 Bft) 100,00 %
26.02.2016 14:01 4,9 C 57 % 1012,5 hPa 0,0 l/m 5,4 km/h (1 Bft) NO 40 1 min 0,229 mm 1,4 UV-I 584 W/m -2,9 C 4,9 C 8,0 km/h (2 Bft) 92,59 %
26.02.2016 14:02 5,2 C 56 % 1012,5 hPa 0,0 l/m 3,8 km/h (1 Bft) N 9 1 min 0,000 mm 1,4 UV-I 581 W/m -2,8 C 5,2 C 6,4 km/h (2 Bft) 100,00 %
26.02.2016 14:03 5,3 C 58 % 1012,4 hPa 0,0 l/m 2,2 km/h (1 Bft) N 350 1 min 0,000 mm 1,4 UV-I 576 W/m -2,3 C 5,3 C 4,8 km/h (1 Bft) 100,00 %
26.02.2016 14:04 5,5 C 56 % 1012,4 hPa 0,0 l/m 2,1 km/h (1 Bft) SO 133 1 min 0,000 mm 1,4 UV-I 567 W/m -2,6 C 5,5 C 4,8 km/h (1 Bft) 100,00 %
26.02.2016 14:05 5,6 C 55 % 1012,4 hPa 0,0 l/m 4,7 km/h (1 Bft) NO 38 1 min 0,000 mm 1,4 UV-I 557 W/m -2,7 C 5,6 C 6,4 km/h (2 Bft) 100,00 %
26.02.2016 14:06 5,5 C 54 % 1012,4 hPa 0,0 l/m 3,6 km/h (1 Bft) NO 53 1 min 0,000 mm 1,4 UV-I 547 W/m -3,1 C 5,5 C 6,4 km/h (2 Bft) 100,00 %
26.02.2016 14:07 5,4 C 52 % 1012,3 hPa 0,0 l/m 6,3 km/h (2 Bft) O-NO 69 1 min 0,000 mm 1,3 UV-I 537 W/m -3,7 C 5,4 C 9,7 km/h (2 Bft) 100,00 %
26.02.2016 14:08 5,3 C 53 % 1012,3 hPa 0,0 l/m 8,0 km/h (2 Bft) NO 52 1 min 0,000 mm 1,3 UV-I 530 W/m -3,5 C 3,9 C 16,1 km/h (3 Bft) 96,55 %
26.02.2016 14:09 5,3 C 56 % 1012,3 hPa 0,0 l/m 6,2 km/h (2 Bft) NO 37 1 min 0,000 mm 1,3 UV-I 529 W/m -2,8 C 5,3 C 16,1 km/h (3 Bft) 96,30 %
26.02.2016 14:10 5,3 C 59 % 1012,4 hPa 0,0 l/m 6,7 km/h (2 Bft) N-NO 27 1 min 0,000 mm 1,3 UV-I 533 W/m -2,0 C 5,1 C 9,7 km/h (2 Bft) 100,00 %
26.02.2016 14:11 5,4 C 59 % 1012,3 hPa 0,0 l/m 3,4 km/h (1 Bft) NO 48 1 min 0,000 mm 1,3 UV-I 534 W/m -2,0 C 5,4 C 8,0 km/h (2 Bft) 95,83 %
26.02.2016 14:12 5,5 C 61 % 1012,3 hPa 0,0 l/m 6,0 km/h (2 Bft) NW 309 1 min 0,000 mm 1,3 UV-I 538 W/m -1,4 C 5,5 C 12,9 km/h (3 Bft) 100,00 %
26.02.2016 14:13 5,5 C 60 % 1012,3 hPa 0,0 l/m 2,7 km/h (1 Bft) W-NW 296 1 min 0,000 mm 1,3 UV-I 541 W/m -1,6 C 5,5 C 4,8 km/h (1 Bft) 95,83 %
26.02.2016 14:14 5,5 C 60 % 1012,2 hPa 0,0 l/m 11,3 km/h (2 Bft) N-NO 25 1 min 0,000 mm 1,3 UV-I 544 W/m -1,6 C 1,8 C 20,9 km/h (4 Bft) 100,00 %
26.02.2016 14:15 5,6 C 62 % 1012,2 hPa 0,0 l/m 6,8 km/h (2 Bft) N 355 1 min 0,000 mm 1,3 UV-I 546 W/m -1,1 C 5,3 C 19,3 km/h (3 Bft) 96,67 %
26.02.2016 14:16 5,6 C 61 % 1012,2 hPa 0,0 l/m 10,1 km/h (2 Bft) N-NO 14 1 min 0,000 mm 1,3 UV-I 549 W/m -1,3 C 2,7 C 16,1 km/h (3 Bft) 100,00 %
26.02.2016 14:17 5,5 C 61 % 1012,2 hPa 0,0 l/m 8,8 km/h (2 Bft) N-NO 15 1 min 0,000 mm 1,3 UV-I 550 W/m -1,4 C 3,5 C 14,5 km/h (3 Bft) 96,15 %
26.02.2016 14:18 5,6 C 61 % 1012,3 hPa 0,0 l/m 7,9 km/h (2 Bft) N-NO 17 1 min 0,000 mm 1,3 UV-I 547 W/m -1,3 C 4,3 C 16,1 km/h (3 Bft) 96,67 %
26.02.2016 14:19 5,6 C 63 % 1012,3 hPa 0,0 l/m 2,8 km/h (1 Bft) W-NW 293 1 min 0,000 mm 1,2 UV-I 546 W/m -0,9 C 5,6 C 6,4 km/h (2 Bft) 100,00 %
26.02.2016 14:20 5,4 C 60 % 1012,2 hPa 0,0 l/m 3,6 km/h (1 Bft) N-NW 348 1 min 0,000 mm 1,2 UV-I 548 W/m -1,7 C 5,4 C 9,7 km/h (2 Bft) 91,67 %
26.02.2016 14:21 5,4 C 59 % 1012,3 hPa 0,0 l/m 3,1 km/h (1 Bft) N 5 1 min 0,000 mm 1,2 UV-I 551 W/m -2,0 C 5,4 C 8,0 km/h (2 Bft) 96,55 %
26.02.2016 14:22 5,3 C 59 % 1012,2 hPa 0,0 l/m 3,2 km/h (1 Bft) NW 319 1 min 0,000 mm 1,2 UV-I 551 W/m -2,0 C 5,3 C 6,4 km/h (2 Bft) 95,83 %
26.02.2016 14:23 5,3 C 60 % 1012,1 hPa 0,0 l/m 1,4 km/h (1 Bft) NW 315 1 min 0,000 mm 1,2 UV-I 548 W/m -1,8 C 5,3 C 3,2 km/h (1 Bft) 100,00 %
26.02.2016 14:24 5,4 C 65 % 1012,1 hPa 0,0 l/m 4,7 km/h (1 Bft) N-NO 24 1 min 0,000 mm 1,2 UV-I 539 W/m -0,6 C 5,4 C 6,4 km/h (2 Bft) 95,83 %
26.02.2016 14:25 5,5 C 62 % 1012,2 hPa 0,0 l/m 2,5 km/h (1 Bft) N-NO 28 1 min 0,000 mm 1,2 UV-I 533 W/m -1,2 C 5,5 C 4,8 km/h (1 Bft) 100,00 %
26.02.2016 14:26 5,6 C 61 % 1012,2 hPa 0,0 l/m 5,9 km/h (2 Bft) N-NO 17 1 min 0,000 mm 1,2 UV-I 532 W/m -1,3 C 5,6 C 9,7 km/h (2 Bft) 97,44 %
26.02.2016 14:27 5,6 C 61 % 1012,2 hPa 0,0 l/m 8,3 km/h (2 Bft) N-NO 32 1 min 0,000 mm 1,2 UV-I 531 W/m -1,3 C 4,0 C 17,7 km/h (3 Bft) 95,65 %
26.02.2016 14:28 5,7 C 61 % 1012,1 hPa 0,0 l/m 10,2 km/h (2 Bft) N-NO 32 1 min 0,000 mm 1,2 UV-I 525 W/m -1,2 C 2,7 C 17,7 km/h (3 Bft) 100,00 %
26.02.2016 14:29 5,7 C 61 % 1012,2 hPa 0,0 l/m 13,6 km/h (3 Bft) NO 34 1 min 0,000 mm 1,2 UV-I 516 W/m -1,2 C 0,7 C 20,9 km/h (4 Bft) 96,15 %
26.02.2016 14:30 5,7 C 61 % 1012,2 hPa 0,0 l/m 11,5 km/h (2 Bft) N-NO 26 1 min 0,000 mm 1,1 UV-I 502 W/m -1,2 C 1,9 C 16,1 km/h (3 Bft) 100,00 %
26.02.2016 14:31 5,6 C 59 % 1012,2 hPa 0,0 l/m 14,1 km/h (3 Bft) N-NO 19 1 min 0,000 mm 1,1 UV-I 488 W/m -1,8 C 0,3 C 19,3 km/h (3 Bft) 96,55 %
26.02.2016 14:32 5,6 C 60 % 1012,1 hPa 0,0 l/m 13,3 km/h (3 Bft) NO 36 1 min 0,000 mm 1,1 UV-I 476 W/m -1,5 C 0,7 C 17,7 km/h (3 Bft) 96,30 %
26.02.2016 14:33 5,6 C 62 % 1012,2 hPa 0,0 l/m 4,1 km/h (1 Bft) N-NW 345 1 min 0,000 mm 1,1 UV-I 466 W/m -1,1 C 5,6 C 6,4 km/h (2 Bft) 100,00 %
26.02.2016 14:34 5,6 C 61 % 1012,1 hPa 0,0 l/m 9,3 km/h (2 Bft) N 9 1 min 0,000 mm 1,1 UV-I 462 W/m -1,3 C 3,2 C 12,9 km/h (3 Bft) 96,67 %
26.02.2016 14:35 5,5 C 60 % 1012,0 hPa 0,0 l/m 2,9 km/h (1 Bft) O-NO 65 1 min 0,000 mm 1,1 UV-I 457 W/m -1,6 C 5,5 C 4,8 km/h (1 Bft) 100,00 %
26.02.2016 14:36 5,6 C 63 % 1012,1 hPa 0,0 l/m 5,5 km/h (1 Bft) N-NW 331 1 min 0,000 mm 1,1 UV-I 450 W/m -0,9 C 5,6 C 8,0 km/h (2 Bft) 100,00 %
26.02.2016 14:37 5,5 C 60 % 1012,1 hPa 0,0 l/m 6,6 km/h (2 Bft) N 5 1 min 0,000 mm 1,0 UV-I 441 W/m -1,6 C 5,3 C 12,9 km/h (3 Bft) 100,00 %
26.02.2016 14:38 5,4 C 60 % 1012,0 hPa 0,0 l/m 9,9 km/h (2 Bft) N-NO 26 1 min 0,000 mm 1,0 UV-I 429 W/m -1,7 C 2,6 C 14,5 km/h (3 Bft) 100,00 %
26.02.2016 14:39 5,4 C 59 % 1012,0 hPa 0,0 l/m 6,3 km/h (2 Bft) NO 38 1 min 0,000 mm 1,0 UV-I 423 W/m -2,0 C 5,4 C 11,3 km/h (2 Bft) 100,00 %
26.02.2016 14:40 5,3 C 61 % 1012,0 hPa 0,0 l/m 7,2 km/h (2 Bft) W-SW 257 1 min 0,000 mm 1,0 UV-I 420 W/m -1,6 C 4,6 C 14,5 km/h (3 Bft) 91,30 %
26.02.2016 14:41 5,4 C 62 % 1012,0 hPa 0,0 l/m 7,0 km/h (2 Bft) N-NO 18 1 min 0,000 mm 1,0 UV-I 413 W/m -1,3 C 4,9 C 12,9 km/h (3 Bft) 100,00 %
26.02.2016 14:42 5,4 C 62 % 1012,0 hPa 0,0 l/m 11,9 km/h (2 Bft) N-NO 26 1 min 0,000 mm 1,0 UV-I 410 W/m -1,3 C 1,3 C 17,7 km/h (3 Bft) 100,00 %
26.02.2016 14:43 5,3 C 60 % 1012,0 hPa 0,0 l/m 11,8 km/h (2 Bft) N-NW 345 1 min 0,000 mm 1,0 UV-I 414 W/m -1,8 C 1,2 C 17,7 km/h (3 Bft) 100,00 %
26.02.2016 14:44 5,3 C 59 % 1012,0 hPa 0,0 l/m 4,1 km/h (1 Bft) N-NW 348 1 min 0,000 mm 1,0 UV-I 426 W/m -2,0 C 5,3 C 8,0 km/h (2 Bft) 100,00 %
26.02.2016 14:45 5,2 C 60 % 1011,9 hPa 0,0 l/m 6,0 km/h (2 Bft) N 5 1 min 0,000 mm 1,0 UV-I 428 W/m -1,9 C 5,2 C 9,7 km/h (2 Bft) 100,00 %
26.02.2016 14:46 5,3 C 61 % 1011,9 hPa 0,0 l/m 10,1 km/h (2 Bft) NO 50 1 min 0,000 mm 0,9 UV-I 425 W/m -1,6 C 2,3 C 17,7 km/h (3 Bft) 100,00 %
26.02.2016 14:47 5,3 C 58 % 1012,0 hPa 0,0 l/m 10,1 km/h (2 Bft) N-NO 22 1 min 0,000 mm 0,9 UV-I 413 W/m -2,3 C 2,3 C 14,5 km/h (3 Bft) 100,00 %
26.02.2016 14:48 5,3 C 59 % 1011,9 hPa 0,0 l/m 5,7 km/h (1 Bft) N-NO 19 1 min 0,000 mm 0,9 UV-I 407 W/m -2,0 C 5,3 C 11,3 km/h (2 Bft) 100,00 %
26.02.2016 14:49 5,2 C 58 % 1011,9 hPa 0,0 l/m 4,1 km/h (1 Bft) NW 313 1 min 0,000 mm 0,9 UV-I 403 W/m -2,4 C 5,2 C 6,4 km/h (2 Bft) 98,42 %
26.02.2016 14:50 5,1 C 58 % 1011,9 hPa 0,0 l/m 4,3 km/h (1 Bft) N 5 1 min 0,000 mm 0,8 UV-I 286 W/m -2,5 C 5,1 C 8,0 km/h (2 Bft) 100,00 %
26.02.2016 14:51 5,1 C 61 % 1011,9 hPa 0,0 l/m 3,7 km/h (1 Bft) O-NO 57 0 min 0,000 mm 0,8 UV-I 113 W/m -1,8 C 5,1 C 9,7 km/h (2 Bft) 100,00 %
26.02.2016 14:52 4,9 C 57 % 1011,9 hPa 0,0 l/m 4,2 km/h (1 Bft) N 355 0 min 0,000 mm 0,8 UV-I 119 W/m -2,9 C 4,9 C 8,0 km/h (2 Bft) 98,43 %
26.02.2016 14:53 4,8 C 59 % 1011,9 hPa 0,0 l/m 3,0 km/h (1 Bft) N 5 0 min 0,000 mm 0,8 UV-I 120 W/m -2,5 C 4,8 C 8,0 km/h (2 Bft) 100,00 %
26.02.2016 14:54 4,7 C 57 % 1011,9 hPa 0,0 l/m 3,1 km/h (1 Bft) N 9 0 min 0,000 mm 0,9 UV-I 176 W/m -3,1 C 4,7 C 4,8 km/h (1 Bft) 100,00 %
26.02.2016 14:55 4,7 C 58 % 1011,9 hPa 0,0 l/m 0,6 km/h (0 Bft) N 10 1 min 0,000 mm 0,9 UV-I 385 W/m -2,8 C 4,7 C 1,6 km/h (1 Bft) 100,00 %
26.02.2016 14:56 4,7 C 60 % 1011,9 hPa 0,0 l/m 0,9 km/h (0 Bft) W-NW 290 1 min 0,000 mm 0,9 UV-I 380 W/m -2,4 C 4,7 C 1,6 km/h (1 Bft) 96,55 %
26.02.2016 14:57 4,8 C 61 % 1011,9 hPa 0,0 l/m 2,8 km/h (1 Bft) N-NW 333 1 min 0,000 mm 0,8 UV-I 366 W/m -2,1 C 4,8 C 4,8 km/h (1 Bft) 100,00 %
26.02.2016 14:58 4,9 C 60 % 1011,9 hPa 0,0 l/m 4,1 km/h (1 Bft) N 11 1 min 0,000 mm 0,8 UV-I 358 W/m -2,2 C 4,9 C 6,4 km/h (2 Bft) 100,00 %
26.02.2016 14:59 5,1 C 62 % 1011,9 hPa 0,0 l/m 9,0 km/h (2 Bft) N 11 1 min 0,000 mm 0,8 UV-I 368 W/m -1,6 C 2,9 C 12,9 km/h (3 Bft) 100,00 %
26.02.2016 15:00 5,1 C 60 % 1011,9 hPa 0,0 l/m 10,3 km/h (2 Bft) N-NO 21 1 min 0,000 mm 0,8 UV-I 364 W/m -2,0 C 2,0 C 14,5 km/h (3 Bft) 100,00 %
26.02.2016 15:02 5,1 C 59 % 1011,9 hPa 0,0 l/m 9,1 km/h (2 Bft) N-NO 27 2 min 0,203 mm 0,7 UV-I 280 W/m -2,2 C 2,8 C 14,5 km/h (3 Bft) 100,00 %
26.02.2016 15:03 4,9 C 59 % 1011,9 hPa 0,0 l/m 11,5 km/h (2 Bft) N-NO 20 0 min 0,000 mm 0,7 UV-I 104 W/m -2,4 C 1,0 C 14,5 km/h (3 Bft) 100,00 %
26.02.2016 15:04 4,8 C 57 % 1011,9 hPa 0,0 l/m 7,6 km/h (2 Bft) N 5 0 min 0,000 mm 0,7 UV-I 158 W/m -3,0 C 3,7 C 12,9 km/h (3 Bft) 100,00 %
26.02.2016 15:05 4,8 C 57 % 1011,9 hPa 0,0 l/m 6,5 km/h (2 Bft) N-NO 27 0 min 0,000 mm 0,7 UV-I 189 W/m -3,0 C 4,7 C 9,7 km/h (2 Bft) 100,00 %
26.02.2016 15:06 4,7 C 57 % 1011,9 hPa 0,0 l/m 4,0 km/h (1 Bft) N-NO 27 1 min 0,000 mm 0,8 UV-I 341 W/m -3,1 C 4,7 C 4,8 km/h (1 Bft) 100,00 %
26.02.2016 15:07 4,7 C 57 % 1011,8 hPa 0,0 l/m 1,5 km/h (1 Bft) N-NO 31 1 min 0,000 mm 0,8 UV-I 345 W/m -3,1 C 4,7 C 3,2 km/h (1 Bft) 100,00 %
26.02.2016 15:08 4,7 C 56 % 1011,9 hPa 0,0 l/m 3,2 km/h (1 Bft) NO 42 1 min 0,000 mm 0,7 UV-I 345 W/m -3,3 C 4,7 C 8,0 km/h (2 Bft) 100,00 %
26.02.2016 15:09 4,7 C 58 % 1011,8 hPa 0,0 l/m 10,0 km/h (2 Bft) N-NO 24 1 min 0,000 mm 0,7 UV-I 336 W/m -2,8 C 1,7 C 14,5 km/h (3 Bft) 100,00 %
26.02.2016 15:10 4,8 C 60 % 1011,8 hPa 0,0 l/m 6,5 km/h (2 Bft) N-NW 335 1 min 0,000 mm 0,7 UV-I 324 W/m -2,3 C 4,7 C 16,1 km/h (3 Bft) 98,47 %
26.02.2016 15:11 4,9 C 60 % 1011,8 hPa 0,0 l/m 2,8 km/h (1 Bft) N-NO 24 1 min 0,000 mm 0,7 UV-I 316 W/m -2,2 C 4,9 C 3,2 km/h (1 Bft) 100,00 %
26.02.2016 15:12 4,9 C 55 % 1011,8 hPa 0,0 l/m 3,1 km/h (1 Bft) NO 41 1 min 0,000 mm 0,7 UV-I 315 W/m -3,4 C 4,9 C 9,7 km/h (2 Bft) 100,00 %
26.02.2016 15:13 4,9 C 57 % 1011,8 hPa 0,0 l/m 4,5 km/h (1 Bft) N-NO 27 1 min 0,000 mm 0,7 UV-I 318 W/m -2,9 C 4,9 C 9,7 km/h (2 Bft) 100,00 %
26.02.2016 15:14 5,0 C 59 % 1011,8 hPa 0,0 l/m 4,0 km/h (1 Bft) N 9 1 min 0,000 mm 0,7 UV-I 322 W/m -2,3 C 5,0 C 8,0 km/h (2 Bft) 97,73 %
26.02.2016 15:15 5,1 C 59 % 1011,8 hPa 0,0 l/m 2,7 km/h (1 Bft) N-NO 20 1 min 0,000 mm 0,7 UV-I 323 W/m -2,2 C 5,1 C 6,4 km/h (2 Bft) 100,00 %
26.02.2016 15:16 5,0 C 57 % 1011,8 hPa 0,0 l/m 0,6 km/h (0 Bft) N 355 1 min 0,000 mm 0,7 UV-I 329 W/m -2,8 C 5,0 C 3,2 km/h (1 Bft) 100,00 %
26.02.2016 15:17 5,0 C 57 % 1011,8 hPa 0,0 l/m 0,9 km/h (0 Bft) N-NW 336 1 min 0,000 mm 0,7 UV-I 323 W/m -2,8 C 5,0 C 1,6 km/h (1 Bft) 100,00 %
26.02.2016 15:18 5,1 C 60 % 1011,7 hPa 0,0 l/m 2,9 km/h (1 Bft) N 5 1 min 0,000 mm 0,7 UV-I 324 W/m -2,0 C 5,1 C 4,8 km/h (1 Bft) 100,00 %
26.02.2016 15:19 5,2 C 60 % 1011,8 hPa 0,0 l/m 1,6 km/h (1 Bft) N-NO 16 1 min 0,000 mm 0,7 UV-I 322 W/m -1,9 C 5,2 C 4,8 km/h (1 Bft) 100,00 %
26.02.2016 15:20 5,2 C 58 % 1011,8 hPa 0,0 l/m 5,5 km/h (1 Bft) N-NO 32 1 min 0,000 mm 0,7 UV-I 320 W/m -2,4 C 5,2 C 11,3 km/h (2 Bft) 100,00 %
26.02.2016 15:21 5,2 C 56 % 1011,8 hPa 0,0 l/m 5,2 km/h (1 Bft) N-NO 14 1 min 0,000 mm 0,7 UV-I 317 W/m -2,8 C 5,2 C 8,0 km/h (2 Bft) 100,00 %
26.02.2016 15:22 5,2 C 55 % 1011,7 hPa 0,0 l/m 3,1 km/h (1 Bft) NO 40 1 min 0,000 mm 0,6 UV-I 306 W/m -3,1 C 5,2 C 6,4 km/h (2 Bft) 95,65 %
26.02.2016 15:23 5,2 C 57 % 1011,7 hPa 0,0 l/m 2,9 km/h (1 Bft) N-NO 23 1 min 0,000 mm 0,6 UV-I 310 W/m -2,6 C 5,2 C 4,8 km/h (1 Bft) 100,00 %
26.02.2016 15:24 5,3 C 56 % 1011,7 hPa 0,0 l/m 0,5 km/h (0 Bft) N-NO 15 1 min 0,000 mm 0,6 UV-I 307 W/m -2,8 C 5,3 C 1,6 km/h (1 Bft) 100,00 %
26.02.2016 15:25 5,2 C 56 % 1011,7 hPa 0,0 l/m 1,9 km/h (1 Bft) N 11 1 min 0,000 mm 0,6 UV-I 304 W/m -2,8 C 5,2 C 4,8 km/h (1 Bft) 100,00 %
26.02.2016 15:26 5,2 C 51 % 1011,6 hPa 0,0 l/m 0,8 km/h (0 Bft) N 10 1 min 0,000 mm 0,6 UV-I 295 W/m -4,1 C 5,2 C 1,6 km/h (1 Bft) 100,00 %
26.02.2016 15:27 5,1 C 54 % 1011,7 hPa 0,0 l/m 2,1 km/h (1 Bft) N-NO 31 1 min 0,000 mm 0,6 UV-I 295 W/m -3,4 C 5,1 C 4,8 km/h (1 Bft) 100,00 %
26.02.2016 15:28 5,0 C 53 % 1011,7 hPa 0,0 l/m 3,1 km/h (1 Bft) O-NO 59 1 min 0,000 mm 0,6 UV-I 299 W/m -3,8 C 5,0 C 4,8 km/h (1 Bft) 95,65 %
26.02.2016 15:29 4,9 C 54 % 1011,6 hPa 0,0 l/m 5,4 km/h (1 Bft) NO 36 1 min 0,000 mm 0,6 UV-I 294 W/m -3,6 C 4,9 C 8,0 km/h (2 Bft) 100,00 %
26.02.2016 15:30 5,0 C 55 % 1011,6 hPa 0,0 l/m 3,3 km/h (1 Bft) NW 325 1 min 0,000 mm 0,6 UV-I 289 W/m -3,3 C 5,0 C 8,0 km/h (2 Bft) 100,00 %
26.02.2016 15:31 5,1 C 56 % 1011,6 hPa 0,0 l/m 4,2 km/h (1 Bft) N 9 1 min 0,000 mm 0,6 UV-I 288 W/m -2,9 C 5,1 C 9,7 km/h (2 Bft) 96,30 %
26.02.2016 15:32 5,1 C 59 % 1011,6 hPa 0,0 l/m 8,9 km/h (2 Bft) N-NO 31 1 min 0,000 mm 0,6 UV-I 284 W/m -2,2 C 3,0 C 12,9 km/h (3 Bft) 100,00 %
26.02.2016 15:33 5,1 C 58 % 1011,6 hPa 0,0 l/m 6,0 km/h (2 Bft) N-NO 24 1 min 0,000 mm 0,6 UV-I 281 W/m -2,5 C 5,1 C 9,7 km/h (2 Bft) 100,00 %
26.02.2016 15:34 5,1 C 59 % 1011,6 hPa 0,0 l/m 4,7 km/h (1 Bft) N-NO 17 1 min 0,000 mm 0,5 UV-I 281 W/m -2,2 C 5,1 C 8,0 km/h (2 Bft) 96,15 %
26.02.2016 15:35 5,2 C 57 % 1011,6 hPa 0,0 l/m 5,3 km/h (1 Bft) NO 38 1 min 0,000 mm 0,5 UV-I 280 W/m -2,6 C 5,2 C 6,4 km/h (2 Bft) 100,00 %
26.02.2016 15:36 5,1 C 57 % 1011,6 hPa 0,0 l/m 4,1 km/h (1 Bft) N-NO 18 1 min 0,000 mm 0,5 UV-I 275 W/m -2,7 C 5,1 C 6,4 km/h (2 Bft) 100,00 %
26.02.2016 15:37 5,1 C 57 % 1011,5 hPa 0,0 l/m 5,4 km/h (1 Bft) N-NO 28 1 min 0,000 mm 0,5 UV-I 276 W/m -2,7 C 5,1 C 9,7 km/h (2 Bft) 100,00 %
26.02.2016 15:38 5,1 C 57 % 1011,5 hPa 0,0 l/m 8,0 km/h (2 Bft) N-NO 22 1 min 0,000 mm 0,5 UV-I 277 W/m -2,7 C 3,7 C 11,3 km/h (2 Bft) 100,00 %
26.02.2016 15:39 5,1 C 57 % 1011,5 hPa 0,0 l/m 5,8 km/h (2 Bft) N-NO 17 1 min 0,000 mm 0,5 UV-I 272 W/m -2,7 C 5,1 C 11,3 km/h (2 Bft) 95,83 %
26.02.2016 15:40 5,1 C 58 % 1011,5 hPa 0,0 l/m 7,6 km/h (2 Bft) N-NO 24 1 min 0,000 mm 0,5 UV-I 261 W/m -2,5 C 4,0 C 9,7 km/h (2 Bft) 100,00 %
26.02.2016 15:41 5,1 C 56 % 1011,5 hPa 0,0 l/m 5,9 km/h (2 Bft) N-NO 24 1 min 0,000 mm 0,5 UV-I 259 W/m -2,9 C 5,1 C 8,0 km/h (2 Bft) 100,00 %
26.02.2016 15:42 5,1 C 57 % 1011,5 hPa 0,0 l/m 3,2 km/h (1 Bft) N-NO 24 1 min 0,000 mm 0,5 UV-I 248 W/m -2,7 C 5,1 C 4,8 km/h (1 Bft) 100,00 %
26.02.2016 15:43 5,1 C 54 % 1011,5 hPa 0,0 l/m 1,1 km/h (1 Bft) N-NO 24 1 min 0,000 mm 0,5 UV-I 245 W/m -3,4 C 5,1 C 3,2 km/h (1 Bft) 96,15 %
26.02.2016 15:44 5,0 C 56 % 1011,5 hPa 0,0 l/m 8,7 km/h (2 Bft) O-NO 63 1 min 0,000 mm 0,2 UV-I 253 W/m -3,0 C 3,0 C 14,5 km/h (3 Bft) 100,00 %
26.02.2016 15:45 5,0 C 53 % 1011,4 hPa 0,0 l/m 11,7 km/h (2 Bft) O-NO 70 1 min 0,000 mm 0,0 UV-I 253 W/m -3,8 C 0,9 C 16,1 km/h (3 Bft) 96,15 %
26.02.2016 15:46 4,9 C 54 % 1011,5 hPa 0,0 l/m 3,9 km/h (1 Bft) O-NO 72 1 min 0,000 mm 0,0 UV-I 250 W/m -3,6 C 4,9 C 8,0 km/h (2 Bft) 100,00 %
26.02.2016 15:47 5,0 C 55 % 1011,4 hPa 0,0 l/m 2,7 km/h (1 Bft) N-NO 24 1 min 0,000 mm 0,0 UV-I 248 W/m -3,3 C 5,0 C 6,4 km/h (2 Bft) 100,00 %
26.02.2016 15:48 5,1 C 56 % 1011,4 hPa 0,0 l/m 1,6 km/h (1 Bft) N-NO 14 1 min 0,000 mm 0,0 UV-I 247 W/m -2,9 C 5,1 C 3,2 km/h (1 Bft) 100,00 %
26.02.2016 15:49 5,2 C 57 % 1011,4 hPa 0,0 l/m 2,3 km/h (1 Bft) NO 38 1 min 0,000 mm 0,0 UV-I 242 W/m -2,6 C 5,2 C 3,2 km/h (1 Bft) 98,50 %
26.02.2016 15:50 5,2 C 55 % 1011,4 hPa 0,0 l/m 3,4 km/h (1 Bft) NO 35 1 min 0,000 mm 0,0 UV-I 240 W/m -3,1 C 5,2 C 4,8 km/h (1 Bft) 100,00 %
26.02.2016 15:51 5,2 C 57 % 1011,4 hPa 0,0 l/m 4,6 km/h (1 Bft) NO 56 1 min 0,000 mm 0,0 UV-I 235 W/m -2,6 C 5,2 C 6,4 km/h (2 Bft) 100,00 %
26.02.2016 15:52 5,2 C 57 % 1011,3 hPa 0,0 l/m 6,8 km/h (2 Bft) N-NO 29 1 min 0,000 mm 0,0 UV-I 225 W/m -2,6 C 4,9 C 12,9 km/h (3 Bft) 100,00 %
26.02.2016 15:53 5,2 C 55 % 1011,4 hPa 0,0 l/m 2,0 km/h (1 Bft) NO 56 1 min 0,000 mm 0,0 UV-I 224 W/m -3,1 C 5,2 C 4,8 km/h (1 Bft) 95,65 %
26.02.2016 15:54 5,1 C 56 % 1011,3 hPa 0,0 l/m 1,2 km/h (1 Bft) N-NO 24 1 min 0,000 mm 0,0 UV-I 221 W/m -2,9 C 5,1 C 3,2 km/h (1 Bft) 100,00 %
26.02.2016 15:55 5,1 C 54 % 1011,4 hPa 0,0 l/m 0,6 km/h (0 Bft) NO 43 1 min 0,000 mm 0,0 UV-I 213 W/m -3,4 C 5,1 C 3,2 km/h (1 Bft) 96,15 %
26.02.2016 15:56 5,1 C 55 % 1011,4 hPa 0,0 l/m 4,5 km/h (1 Bft) NO 49 1 min 0,000 mm 0,0 UV-I 202 W/m -3,2 C 5,1 C 8,0 km/h (2 Bft) 100,00 %
26.02.2016 15:57 5,1 C 57 % 1011,4 hPa 0,0 l/m 7,4 km/h (2 Bft) N-NO 27 1 min 0,000 mm 0,0 UV-I 205 W/m -2,7 C 4,2 C 11,3 km/h (2 Bft) 91,67 %
26.02.2016 15:58 5,1 C 56 % 1011,3 hPa 0,0 l/m 10,2 km/h (2 Bft) NO 34 1 min 0,000 mm 0,0 UV-I 213 W/m -2,9 C 2,0 C 14,5 km/h (3 Bft) 100,00 %
26.02.2016 15:59 5,1 C 60 % 1011,3 hPa 0,0 l/m 9,7 km/h (2 Bft) NO 40 1 min 0,000 mm 0,0 UV-I 211 W/m -2,0 C 2,4 C 16,1 km/h (3 Bft) 96,30 %
26.02.2016 16:00 5,1 C 60 % 1011,3 hPa 0,0 l/m 11,1 km/h (2 Bft) N-NO 28 1 min 0,127 mm 0,0 UV-I 206 W/m -2,0 C 1,4 C 16,1 km/h (3 Bft) 92,31 %
26.02.2016 16:02 5,0 C 59 % 1011,3 hPa 0,0 l/m 10,2 km/h (2 Bft) N-NO 18 2 min 0,000 mm 0,0 UV-I 206 W/m -2,3 C 1,9 C 14,5 km/h (3 Bft) 97,56 %
26.02.2016 16:03 4,9 C 58 % 1011,3 hPa 0,0 l/m 11,6 km/h (2 Bft) NO 41 1 min 0,000 mm 0,0 UV-I 206 W/m -2,7 C 0,9 C 16,1 km/h (3 Bft) 100,00 %
26.02.2016 16:04 4,9 C 58 % 1011,3 hPa 0,0 l/m 8,8 km/h (2 Bft) NO 53 1 min 0,000 mm 0,0 UV-I 201 W/m -2,7 C 2,9 C 11,3 km/h (2 Bft) 96,55 %
26.02.2016 16:05 4,9 C 58 % 1011,3 hPa 0,0 l/m 9,1 km/h (2 Bft) N-NO 22 1 min 0,000 mm 0,0 UV-I 194 W/m -2,7 C 2,6 C 14,5 km/h (3 Bft) 100,00 %
26.02.2016 16:06 4,8 C 59 % 1011,3 hPa 0,0 l/m 7,3 km/h (2 Bft) N-NO 24 1 min 0,000 mm 0,0 UV-I 189 W/m -2,5 C 4,0 C 9,7 km/h (2 Bft) 95,65 %
26.02.2016 16:07 4,8 C 59 % 1011,2 hPa 0,0 l/m 6,8 km/h (2 Bft) NO 35 1 min 0,000 mm 0,0 UV-I 176 W/m -2,5 C 4,5 C 8,0 km/h (2 Bft) 100,00 %
26.02.2016 16:08 4,8 C 58 % 1011,2 hPa 0,0 l/m 7,6 km/h (2 Bft) N-NO 17 1 min 0,000 mm 0,0 UV-I 171 W/m -2,7 C 3,7 C 12,9 km/h (3 Bft) 91,30 %
26.02.2016 16:09 4,8 C 58 % 1011,2 hPa 0,0 l/m 6,6 km/h (2 Bft) NO 38 1 min 0,000 mm 0,0 UV-I 168 W/m -2,7 C 4,6 C 11,3 km/h (2 Bft) 92,59 %
26.02.2016 16:10 4,8 C 58 % 1011,2 hPa 0,0 l/m 14,5 km/h (3 Bft) N-NO 20 1 min 0,000 mm 0,0 UV-I 170 W/m -2,7 C -0,9 C 16,1 km/h (3 Bft) 100,00 %
26.02.2016 16:11 4,8 C 58 % 1011,2 hPa 0,0 l/m 8,7 km/h (2 Bft) N-NO 28 1 min 0,000 mm 0,0 UV-I 178 W/m -2,7 C 2,8 C 14,5 km/h (3 Bft) 86,67 %
26.02.2016 16:12 4,8 C 58 % 1011,2 hPa 0,0 l/m 6,8 km/h (2 Bft) NO 43 1 min 0,000 mm 0,0 UV-I 180 W/m -2,7 C 4,5 C 9,7 km/h (2 Bft) 100,00 %
26.02.2016 16:13 4,8 C 58 % 1011,2 hPa 0,0 l/m 3,8 km/h (1 Bft) N-NO 31 1 min 0,000 mm 0,0 UV-I 177 W/m -2,7 C 4,8 C 8,0 km/h (2 Bft) 95,83 %
26.02.2016 16:14 4,8 C 59 % 1011,2 hPa 0,0 l/m 5,1 km/h (1 Bft) NO 45 1 min 0,000 mm 0,0 UV-I 174 W/m -2,5 C 4,8 C 12,9 km/h (3 Bft) 100,00 %
26.02.2016 16:15 4,8 C 58 % 1011,2 hPa 0,0 l/m 5,9 km/h (2 Bft) N-NO 12 1 min 0,000 mm 0,0 UV-I 171 W/m -2,7 C 4,8 C 9,7 km/h (2 Bft) 96,67 %
26.02.2016 16:16 4,8 C 60 % 1011,2 hPa 0,0 l/m 6,8 km/h (2 Bft) N-NO 16 1 min 0,000 mm 0,0 UV-I 165 W/m -2,3 C 4,5 C 12,9 km/h (3 Bft) 100,00 %
26.02.2016 16:17 4,8 C 60 % 1011,2 hPa 0,0 l/m 10,2 km/h (2 Bft) NO 36 1 min 0,000 mm 0,0 UV-I 164 W/m -2,3 C 1,7 C 12,9 km/h (3 Bft) 92,31 %
26.02.2016 16:18 4,8 C 59 % 1011,2 hPa 0,0 l/m 6,0 km/h (2 Bft) N 5 1 min 0,000 mm 0,0 UV-I 163 W/m -2,5 C 4,8 C 9,7 km/h (2 Bft) 96,67 %
26.02.2016 16:19 4,8 C 58 % 1011,2 hPa 0,0 l/m 7,0 km/h (2 Bft) NO 47 1 min 0,000 mm 0,0 UV-I 160 W/m -2,7 C 4,3 C 9,7 km/h (2 Bft) 100,00 %
26.02.2016 16:20 4,7 C 57 % 1011,2 hPa 0,0 l/m 9,6 km/h (2 Bft) NO 47 1 min 0,000 mm 0,0 UV-I 150 W/m -3,1 C 2,0 C 14,5 km/h (3 Bft) 93,33 %
26.02.2016 16:21 4,7 C 59 % 1011,2 hPa 0,0 l/m 6,9 km/h (2 Bft) NO 47 1 min 0,000 mm 0,0 UV-I 146 W/m -2,6 C 4,3 C 8,0 km/h (2 Bft) 100,00 %
26.02.2016 16:22 4,7 C 57 % 1011,2 hPa 0,0 l/m 7,5 km/h (2 Bft) N-NO 30 1 min 0,000 mm 0,0 UV-I 147 W/m -3,1 C 3,7 C 12,9 km/h (3 Bft) 96,30 %
26.02.2016 16:23 4,7 C 58 % 1011,2 hPa 0,0 l/m 10,1 km/h (2 Bft) N-NO 17 1 min 0,000 mm 0,0 UV-I 145 W/m -2,8 C 1,7 C 14,5 km/h (3 Bft) 100,00 %
26.02.2016 16:24 4,8 C 62 % 1011,2 hPa 0,0 l/m 8,2 km/h (2 Bft) N-NO 17 1 min 0,000 mm 0,0 UV-I 141 W/m -1,9 C 3,2 C 14,5 km/h (3 Bft) 100,00 %
26.02.2016 16:25 4,7 C 60 % 1011,2 hPa 0,0 l/m 11,2 km/h (2 Bft) NO 38 1 min 0,000 mm 0,0 UV-I 137 W/m -2,4 C 0,9 C 14,5 km/h (3 Bft) 100,00 %
26.02.2016 16:26 4,7 C 58 % 1011,2 hPa 0,0 l/m 9,3 km/h (2 Bft) NO 54 1 min 0,000 mm 0,0 UV-I 131 W/m -2,8 C 2,3 C 11,3 km/h (2 Bft) 100,00 %
26.02.2016 16:28 4,7 C 56 % 1011,2 hPa 0,0 l/m 11,1 km/h (2 Bft) NO 42 2 min 0,000 mm 0,0 UV-I 124 W/m -3,3 C 1,0 C 14,5 km/h (3 Bft) 97,78 %
26.02.2016 16:30 4,7 C 57 % 1011,1 hPa 0,0 l/m 9,7 km/h (2 Bft) NO 45 2 min 0,000 mm 0,0 UV-I 123 W/m -3,1 C 2,0 C 16,1 km/h (3 Bft) 98,25 %
26.02.2016 16:35 4,7 C 56 % 1011,0 hPa 0,0 l/m 6,4 km/h (2 Bft) NO 45 5 min 0,000 mm 0,0 UV-I 102 W/m -3,3 C 4,7 C 12,9 km/h (3 Bft) 98,25 %
26.02.2016 16:40 4,4 C 60 % 1011,0 hPa 0,0 l/m 5,9 km/h (2 Bft) NO 38 0 min 0,000 mm 0,0 UV-I 78 W/m -2,7 C 4,4 C 8,0 km/h (2 Bft) 100,00 %
26.02.2016 16:41 4,4 C 59 % 1010,9 hPa 0,0 l/m 7,1 km/h (2 Bft) O-NO 59 0 min 0,000 mm 0,0 UV-I 80 W/m -2,9 C 3,8 C 12,9 km/h (3 Bft) 100,00 %
26.02.2016 16:42 4,4 C 58 % 1010,9 hPa 0,0 l/m 10,3 km/h (2 Bft) O-NO 65 0 min 0,000 mm 0,0 UV-I 78 W/m -3,1 C 1,2 C 16,1 km/h (3 Bft) 100,00 %
26.02.2016 16:43 4,4 C 57 % 1010,9 hPa 0,0 l/m 11,5 km/h (2 Bft) O-NO 63 0 min 0,000 mm 0,0 UV-I 80 W/m -3,4 C 0,4 C 16,1 km/h (3 Bft) 100,00 %
26.02.2016 16:44 4,4 C 58 % 1010,9 hPa 0,0 l/m 9,6 km/h (2 Bft) O-NO 65 0 min 0,000 mm 0,0 UV-I 77 W/m -3,1 C 1,7 C 12,9 km/h (3 Bft) 100,00 %
26.02.2016 16:45 4,4 C 59 % 1010,9 hPa 0,0 l/m 8,9 km/h (2 Bft) NO 45 0 min 0,000 mm 0,0 UV-I 74 W/m -2,9 C 2,2 C 11,3 km/h (2 Bft) 92,31 %
26.02.2016 16:46 4,4 C 59 % 1010,9 hPa 0,0 l/m 8,3 km/h (2 Bft) NO 48 0 min 0,000 mm 0,0 UV-I 71 W/m -2,9 C 2,7 C 9,7 km/h (2 Bft) 100,00 %
26.02.2016 16:47 4,4 C 59 % 1010,9 hPa 0,0 l/m 8,5 km/h (2 Bft) O 86 0 min 0,000 mm 0,0 UV-I 69 W/m -2,9 C 2,6 C 12,9 km/h (3 Bft) 96,55 %
26.02.2016 16:48 4,4 C 59 % 1010,9 hPa 0,0 l/m 9,5 km/h (2 Bft) O 84 0 min 0,000 mm 0,0 UV-I 70 W/m -2,9 C 1,8 C 12,9 km/h (3 Bft) 100,00 %
26.02.2016 16:49 4,4 C 59 % 1010,9 hPa 0,0 l/m 9,7 km/h (2 Bft) O-NO 73 0 min 0,000 mm 0,0 UV-I 72 W/m -2,9 C 1,6 C 14,5 km/h (3 Bft) 100,00 %
26.02.2016 16:50 4,4 C 58 % 1010,8 hPa 0,0 l/m 14,7 km/h (3 Bft) O-NO 61 0 min 0,000 mm 0,0 UV-I 67 W/m -3,1 C -1,5 C 17,7 km/h (3 Bft) 100,00 %
26.02.2016 16:51 4,3 C 59 % 1010,8 hPa 0,0 l/m 13,5 km/h (3 Bft) O-NO 59 0 min 0,000 mm 0,0 UV-I 65 W/m -3,0 C -0,9 C 17,7 km/h (3 Bft) 95,65 %
26.02.2016 16:52 4,3 C 59 % 1010,8 hPa 0,0 l/m 9,6 km/h (2 Bft) O-NO 76 0 min 0,000 mm 0,0 UV-I 66 W/m -3,0 C 1,6 C 12,9 km/h (3 Bft) 100,00 %
26.02.2016 16:53 4,3 C 59 % 1010,8 hPa 0,0 l/m 9,6 km/h (2 Bft) O-NO 61 0 min 0,000 mm 0,0 UV-I 61 W/m -3,0 C 1,6 C 16,1 km/h (3 Bft) 100,00 %
26.02.2016 16:54 4,3 C 59 % 1010,8 hPa 0,0 l/m 9,6 km/h (2 Bft) O-NO 57 0 min 0,000 mm 0,0 UV-I 62 W/m -3,0 C 1,6 C 11,3 km/h (2 Bft) 100,00 %
26.02.2016 16:55 4,3 C 59 % 1010,8 hPa 0,0 l/m 8,6 km/h (2 Bft) O-NO 68 1 min 0,000 mm 0,0 UV-I 65 W/m -3,0 C 2,4 C 14,5 km/h (3 Bft) 100,00 %
26.02.2016 16:56 4,3 C 59 % 1010,8 hPa 0,0 l/m 9,4 km/h (2 Bft) NO 42 0 min 0,000 mm 0,0 UV-I 63 W/m -3,0 C 1,7 C 11,3 km/h (2 Bft) 100,00 %
26.02.2016 16:57 4,3 C 60 % 1010,8 hPa 0,0 l/m 8,4 km/h (2 Bft) NO 42 0 min 0,000 mm 0,0 UV-I 61 W/m -2,8 C 2,5 C 9,7 km/h (2 Bft) 100,00 %
26.02.2016 16:58 4,3 C 61 % 1010,8 hPa 0,0 l/m 12,6 km/h (3 Bft) NO 38 0 min 0,000 mm 0,0 UV-I 60 W/m -2,5 C -0,4 C 16,1 km/h (3 Bft) 100,00 %
26.02.2016 16:59 4,3 C 60 % 1010,8 hPa 0,0 l/m 11,4 km/h (2 Bft) O-NO 67 1 min 0,000 mm 0,0 UV-I 61 W/m -2,8 C 0,3 C 16,1 km/h (3 Bft) 100,00 %
26.02.2016 17:00 4,3 C 60 % 1010,9 hPa 0,0 l/m 11,3 km/h (2 Bft) O-NO 77 1 min 0,000 mm 0,0 UV-I 60 W/m -2,8 C 0,4 C 16,1 km/h (3 Bft) 100,00 %
26.02.2016 17:01 4,2 C 61 % 1010,8 hPa 0,0 l/m 9,8 km/h (2 Bft) O-NO 66 1 min 0,076 mm 0,0 UV-I 57 W/m -2,6 C 1,3 C 14,5 km/h (3 Bft) 100,00 %
26.02.2016 17:02 4,2 C 62 % 1010,8 hPa 0,0 l/m 9,2 km/h (2 Bft) O 88 0 min 0,000 mm 0,0 UV-I 49 W/m -2,4 C 1,8 C 14,5 km/h (3 Bft) 100,00 %
26.02.2016 17:03 4,2 C 62 % 1010,7 hPa 0,0 l/m 9,6 km/h (2 Bft) NO 48 0 min 0,000 mm 0,0 UV-I 46 W/m -2,4 C 1,5 C 14,5 km/h (3 Bft) 100,00 %
26.02.2016 17:04 4,2 C 62 % 1010,8 hPa 0,0 l/m 10,3 km/h (2 Bft) NO 46 0 min 0,000 mm 0,0 UV-I 42 W/m -2,4 C 1,0 C 14,5 km/h (3 Bft) 100,00 %
26.02.2016 17:05 4,1 C 61 % 1010,7 hPa 0,0 l/m 12,2 km/h (2 Bft) NO 50 0 min 0,000 mm 0,0 UV-I 40 W/m -2,7 C -0,4 C 16,1 km/h (3 Bft) 96,30 %
26.02.2016 17:06 4,1 C 60 % 1010,7 hPa 0,0 l/m 9,8 km/h (2 Bft) O-NO 63 0 min 0,000 mm 0,0 UV-I 40 W/m -3,0 C 1,2 C 14,5 km/h (3 Bft) 100,00 %
26.02.2016 17:07 4,1 C 60 % 1010,7 hPa 0,0 l/m 9,1 km/h (2 Bft) O-NO 66 0 min 0,000 mm 0,0 UV-I 39 W/m -3,0 C 1,8 C 12,9 km/h (3 Bft) 100,00 %
26.02.2016 17:08 4,1 C 60 % 1010,7 hPa 0,0 l/m 8,1 km/h (2 Bft) NO 56 0 min 0,000 mm 0,0 UV-I 39 W/m -3,0 C 2,6 C 14,5 km/h (3 Bft) 100,00 %
26.02.2016 17:09 4,1 C 61 % 1010,7 hPa 0,0 l/m 9,2 km/h (2 Bft) NO 51 0 min 0,000 mm 0,0 UV-I 37 W/m -2,7 C 1,7 C 12,9 km/h (3 Bft) 100,00 %
26.02.2016 17:10 4,0 C 62 % 1010,7 hPa 0,0 l/m 6,4 km/h (2 Bft) NO 55 0 min 0,000 mm 0,0 UV-I 39 W/m -2,6 C 4,0 C 9,7 km/h (2 Bft) 100,00 %
26.02.2016 17:11 4,0 C 62 % 1010,7 hPa 0,0 l/m 8,8 km/h (2 Bft) O-NO 68 0 min 0,000 mm 0,0 UV-I 38 W/m -2,6 C 1,9 C 11,3 km/h (2 Bft) 93,75 %
26.02.2016 17:12 3,9 C 62 % 1010,7 hPa 0,0 l/m 8,5 km/h (2 Bft) NO 55 0 min 0,000 mm 0,0 UV-I 37 W/m -2,7 C 2,0 C 12,9 km/h (3 Bft) 100,00 %
26.02.2016 17:13 3,9 C 63 % 1010,7 hPa 0,0 l/m 9,7 km/h (2 Bft) NO 53 0 min 0,000 mm 0,0 UV-I 35 W/m -2,5 C 1,1 C 14,5 km/h (3 Bft) 96,55 %
26.02.2016 17:14 3,9 C 61 % 1010,7 hPa 0,0 l/m 9,7 km/h (2 Bft) NO 53 0 min 0,000 mm 0,0 UV-I 35 W/m -2,9 C 1,1 C 14,5 km/h (3 Bft) 100,00 %
26.02.2016 17:15 3,9 C 61 % 1010,7 hPa 0,0 l/m 8,9 km/h (2 Bft) O-NO 59 0 min 0,000 mm 0,0 UV-I 34 W/m -2,9 C 1,7 C 11,3 km/h (2 Bft) 100,00 %
26.02.2016 17:16 3,9 C 61 % 1010,7 hPa 0,0 l/m 10,5 km/h (2 Bft) N-NO 31 0 min 0,000 mm 0,0 UV-I 32 W/m -2,9 C 0,5 C 16,1 km/h (3 Bft) 98,50 %
26.02.2016 17:17 3,9 C 61 % 1010,7 hPa 0,0 l/m 13,3 km/h (3 Bft) O-NO 63 0 min 0,000 mm 0,0 UV-I 31 W/m -2,9 C -1,3 C 16,1 km/h (3 Bft) 100,00 %
26.02.2016 17:18 3,9 C 62 % 1010,7 hPa 0,0 l/m 11,8 km/h (2 Bft) O 85 0 min 0,000 mm 0,0 UV-I 29 W/m -2,7 C -0,4 C 16,1 km/h (3 Bft) 100,00 %
26.02.2016 17:19 3,8 C 62 % 1010,7 hPa 0,0 l/m 10,1 km/h (2 Bft) O-NO 57 0 min 0,000 mm 0,0 UV-I 28 W/m -2,8 C 0,7 C 14,5 km/h (3 Bft) 100,00 %
26.02.2016 17:20 3,8 C 61 % 1010,7 hPa 0,0 l/m 11,1 km/h (2 Bft) O-NO 71 0 min 0,000 mm 0,0 UV-I 26 W/m -3,0 C -0,0 C 16,1 km/h (3 Bft) 100,00 %
26.02.2016 17:21 3,8 C 61 % 1010,7 hPa 0,0 l/m 11,8 km/h (2 Bft) O-NO 77 0 min 0,000 mm 0,0 UV-I 25 W/m -3,0 C -0,5 C 16,1 km/h (3 Bft) 100,00 %
26.02.2016 17:22 3,8 C 61 % 1010,7 hPa 0,0 l/m 13,2 km/h (3 Bft) O-NO 60 1 min 0,000 mm 0,0 UV-I 24 W/m -3,0 C -1,4 C 17,7 km/h (3 Bft) 96,30 %
26.02.2016 17:23 3,8 C 62 % 1010,8 hPa 0,0 l/m 11,5 km/h (2 Bft) O-NO 64 1 min 0,000 mm 0,0 UV-I 23 W/m -2,8 C -0,3 C 16,1 km/h (3 Bft) 100,00 %
26.02.2016 17:24 3,8 C 63 % 1010,8 hPa 0,0 l/m 12,1 km/h (2 Bft) O-NO 58 1 min 0,000 mm 0,0 UV-I 21 W/m -2,6 C -0,7 C 16,1 km/h (3 Bft) 100,00 %
26.02.2016 17:25 3,7 C 63 % 1010,8 hPa 0,0 l/m 10,5 km/h (2 Bft) O-NO 65 1 min 0,000 mm 0,0 UV-I 21 W/m -2,7 C 0,3 C 14,5 km/h (3 Bft) 98,51 %
26.02.2016 17:26 3,7 C 63 % 1010,7 hPa 0,0 l/m 7,4 km/h (2 Bft) O-NO 68 1 min 0,000 mm 0,0 UV-I 19 W/m -2,7 C 2,8 C 9,7 km/h (2 Bft) 97,37 %
26.02.2016 17:27 3,6 C 63 % 1010,7 hPa 0,0 l/m 10,6 km/h (2 Bft) O-NO 64 1 min 0,000 mm 0,0 UV-I 19 W/m -2,8 C 0,1 C 12,9 km/h (3 Bft) 95,65 %
26.02.2016 17:28 3,6 C 63 % 1010,7 hPa 0,0 l/m 9,0 km/h (2 Bft) O 82 1 min 0,000 mm 0,0 UV-I 18 W/m -2,8 C 1,3 C 12,9 km/h (3 Bft) 100,00 %
26.02.2016 17:29 3,6 C 63 % 1010,7 hPa 0,0 l/m 11,5 km/h (2 Bft) NO 54 1 min 0,000 mm 0,0 UV-I 17 W/m -2,8 C -0,5 C 14,5 km/h (3 Bft) 100,00 %
26.02.2016 17:30 3,5 C 63 % 1010,7 hPa 0,0 l/m 12,0 km/h (2 Bft) O-NO 69 1 min 0,000 mm 0,0 UV-I 16 W/m -2,9 C -1,0 C 16,1 km/h (3 Bft) 100,00 %
26.02.2016 17:31 3,5 C 63 % 1010,7 hPa 0,0 l/m 9,6 km/h (2 Bft) O-NO 68 1 min 0,000 mm 0,0 UV-I 14 W/m -2,9 C 0,7 C 14,5 km/h (3 Bft) 96,30 %
26.02.2016 17:32 3,4 C 63 % 1010,7 hPa 0,0 l/m 11,1 km/h (2 Bft) NO 55 0 min 0,000 mm 0,0 UV-I 14 W/m -3,0 C -0,5 C 12,9 km/h (3 Bft) 100,00 %
26.02.2016 17:33 3,4 C 63 % 1010,7 hPa 0,0 l/m 10,5 km/h (2 Bft) O-NO 69 0 min 0,000 mm 0,0 UV-I 12 W/m -3,0 C -0,1 C 14,5 km/h (3 Bft) 100,00 %
26.02.2016 17:34 3,4 C 64 % 1010,7 hPa 0,0 l/m 11,4 km/h (2 Bft) O-NO 63 0 min 0,000 mm 0,0 UV-I 12 W/m -2,7 C -0,7 C 14,5 km/h (3 Bft) 100,00 %
26.02.2016 17:35 3,4 C 64 % 1010,7 hPa 0,0 l/m 9,8 km/h (2 Bft) O-NO 74 0 min 0,000 mm 0,0 UV-I 11 W/m -2,7 C 0,5 C 14,5 km/h (3 Bft) 100,00 %
26.02.2016 17:36 3,3 C 64 % 1010,7 hPa 0,0 l/m 10,3 km/h (2 Bft) O-NO 74 0 min 0,000 mm 0,0 UV-I 9 W/m -2,8 C -0,0 C 14,5 km/h (3 Bft) 100,00 %
26.02.2016 17:37 3,3 C 64 % 1010,7 hPa 0,0 l/m 10,7 km/h (2 Bft) O-NO 77 0 min 0,000 mm 0,0 UV-I 9 W/m -2,8 C -0,3 C 12,9 km/h (3 Bft) 100,00 %
26.02.2016 17:38 3,3 C 64 % 1010,7 hPa 0,0 l/m 12,9 km/h (3 Bft) O-NO 78 0 min 0,000 mm 0,0 UV-I 7 W/m -2,8 C -1,8 C 17,7 km/h (3 Bft) 95,65 %
26.02.2016 17:39 3,2 C 64 % 1010,7 hPa 0,0 l/m 11,3 km/h (2 Bft) O 86 0 min 0,000 mm 0,0 UV-I 7 W/m -2,9 C -0,8 C 16,1 km/h (3 Bft) 100,00 %
26.02.2016 17:40 3,2 C 64 % 1010,7 hPa 0,0 l/m 13,8 km/h (3 Bft) O-NO 67 0 min 0,000 mm 0,0 UV-I 6 W/m -2,9 C -2,4 C 17,7 km/h (3 Bft) 96,15 %
26.02.2016 17:41 3,2 C 64 % 1010,7 hPa 0,0 l/m 12,1 km/h (2 Bft) O-NO 72 0 min 0,000 mm 0,0 UV-I 5 W/m -2,9 C -1,4 C 17,7 km/h (3 Bft) 96,30 %
26.02.2016 17:42 3,2 C 65 % 1010,7 hPa 0,0 l/m 11,6 km/h (2 Bft) O 80 0 min 0,000 mm 0,0 UV-I 5 W/m -2,7 C -1,1 C 16,1 km/h (3 Bft) 100,00 %
26.02.2016 17:43 3,2 C 64 % 1010,7 hPa 0,0 l/m 10,3 km/h (2 Bft) O-NO 70 0 min 0,000 mm 0,0 UV-I 0 W/m -2,9 C -0,1 C 14,5 km/h (3 Bft) 100,00 %
26.02.2016 17:44 3,1 C 64 % 1010,7 hPa 0,0 l/m 10,8 km/h (2 Bft) O-NO 60 0 min 0,000 mm 0,0 UV-I 0 W/m -3,0 C -0,6 C 16,1 km/h (3 Bft) 97,37 %
26.02.2016 17:45 3,1 C 65 % 1010,7 hPa 0,0 l/m 12,3 km/h (3 Bft) O-NO 61 0 min 0,000 mm 0,0 UV-I 0 W/m -2,8 C -1,6 C 16,1 km/h (3 Bft) 100,00 %
26.02.2016 17:46 3,1 C 65 % 1010,7 hPa 0,0 l/m 10,9 km/h (2 Bft) O-NO 75 0 min 0,000 mm 0,0 UV-I 0 W/m -2,8 C -0,7 C 16,1 km/h (3 Bft) 95,65 %
26.02.2016 17:47 3,1 C 64 % 1010,7 hPa 0,0 l/m 10,8 km/h (2 Bft) O 81 0 min 0,000 mm 0,0 UV-I 0 W/m -3,0 C -0,6 C 14,5 km/h (3 Bft) 100,00 %
26.02.2016 17:48 3,1 C 64 % 1010,7 hPa 0,0 l/m 12,7 km/h (3 Bft) O-NO 62 0 min 0,000 mm 0,0 UV-I 0 W/m -3,0 C -1,9 C 17,7 km/h (3 Bft) 93,33 %
26.02.2016 17:49 3,1 C 64 % 1010,7 hPa 0,0 l/m 12,3 km/h (3 Bft) O-NO 70 0 min 0,000 mm 0,0 UV-I 0 W/m -3,0 C -1,6 C 14,5 km/h (3 Bft) 100,00 %
26.02.2016 17:50 3,0 C 65 % 1010,7 hPa 0,0 l/m 13,0 km/h (3 Bft) O-NO 71 0 min 0,000 mm 0,0 UV-I 0 W/m -2,9 C -2,2 C 16,1 km/h (3 Bft) 93,33 %
26.02.2016 17:51 3,0 C 64 % 1010,7 hPa 0,0 l/m 10,6 km/h (2 Bft) O-NO 65 0 min 0,000 mm 0,0 UV-I 0 W/m -3,1 C -0,6 C 14,5 km/h (3 Bft) 100,00 %
26.02.2016 17:52 3,0 C 64 % 1010,7 hPa 0,0 l/m 11,6 km/h (2 Bft) NO 51 0 min 0,000 mm 0,0 UV-I 0 W/m -3,1 C -1,3 C 14,5 km/h (3 Bft) 95,83 %
26.02.2016 17:53 3,0 C 65 % 1010,7 hPa 0,0 l/m 10,5 km/h (2 Bft) O-NO 57 0 min 0,000 mm 0,0 UV-I 0 W/m -2,9 C -0,5 C 14,5 km/h (3 Bft) 92,31 %
26.02.2016 17:54 3,0 C 65 % 1010,7 hPa 0,0 l/m 8,9 km/h (2 Bft) NO 38 0 min 0,000 mm 0,0 UV-I 0 W/m -2,9 C 0,7 C 9,7 km/h (2 Bft) 100,00 %
26.02.2016 17:55 2,9 C 66 % 1010,7 hPa 0,0 l/m 9,9 km/h (2 Bft) NO 48 0 min 0,000 mm 0,0 UV-I 0 W/m -2,8 C -0,2 C 12,9 km/h (3 Bft) 95,65 %
26.02.2016 17:56 2,9 C 66 % 1010,6 hPa 0,0 l/m 8,7 km/h (2 Bft) O-NO 59 0 min 0,000 mm 0,0 UV-I 0 W/m -2,8 C 0,8 C 14,5 km/h (3 Bft) 100,00 %
26.02.2016 17:57 2,9 C 66 % 1010,7 hPa 0,0 l/m 10,1 km/h (2 Bft) O-NO 60 0 min 0,000 mm 0,0 UV-I 0 W/m -2,8 C -0,3 C 12,9 km/h (3 Bft) 95,65 %
26.02.2016 17:58 2,8 C 66 % 1010,7 hPa 0,0 l/m 9,3 km/h (2 Bft) NO 53 0 min 0,000 mm 0,0 UV-I 0 W/m -2,9 C 0,2 C 12,9 km/h (3 Bft) 92,59 %
26.02.2016 17:59 2,8 C 66 % 1010,7 hPa 0,0 l/m 9,0 km/h (2 Bft) O-NO 59 0 min 0,000 mm 0,0 UV-I 0 W/m -2,9 C 0,4 C 12,9 km/h (3 Bft) 92,86 %
26.02.2016 18:00 2,8 C 66 % 1010,7 hPa 0,0 l/m 9,3 km/h (2 Bft) O-NO 65 0 min 0,000 mm 0,0 UV-I 0 W/m -2,9 C 0,2 C 12,9 km/h (3 Bft) 100,00 %
26.02.2016 18:01 2,8 C 66 % 1010,7 hPa 0,0 l/m 8,8 km/h (2 Bft) O-NO 69 0 min 0,051 mm 0,0 UV-I 0 W/m -2,9 C 0,6 C 12,9 km/h (3 Bft) 92,31 %
26.02.2016 18:02 2,8 C 67 % 1010,6 hPa 0,0 l/m 8,5 km/h (2 Bft) O-NO 64 0 min 0,000 mm 0,0 UV-I 0 W/m -2,7 C 0,9 C 12,9 km/h (3 Bft) 96,30 %
26.02.2016 18:03 2,7 C 67 % 1010,6 hPa 0,0 l/m 9,6 km/h (2 Bft) NO 44 0 min 0,000 mm 0,0 UV-I 0 W/m -2,8 C -0,2 C 12,9 km/h (3 Bft) 100,00 %
26.02.2016 18:04 2,7 C 67 % 1010,6 hPa 0,0 l/m 8,1 km/h (2 Bft) NO 54 0 min 0,000 mm 0,0 UV-I 0 W/m -2,8 C 1,1 C 9,7 km/h (2 Bft) 96,15 %
26.02.2016 18:05 2,7 C 66 % 1010,6 hPa 0,0 l/m 9,3 km/h (2 Bft) NO 46 0 min 0,000 mm 0,0 UV-I 0 W/m -3,0 C 0,1 C 12,9 km/h (3 Bft) 100,00 %
26.02.2016 18:06 2,7 C 66 % 1010,6 hPa 0,0 l/m 7,7 km/h (2 Bft) O-NO 59 0 min 0,000 mm 0,0 UV-I 0 W/m -3,0 C 1,5 C 9,7 km/h (2 Bft) 96,55 %
26.02.2016 18:07 2,7 C 66 % 1010,6 hPa 0,0 l/m 9,7 km/h (2 Bft) NO 54 0 min 0,000 mm 0,0 UV-I 0 W/m -3,0 C -0,2 C 12,9 km/h (3 Bft) 100,00 %
26.02.2016 18:08 2,6 C 66 % 1010,5 hPa 0,0 l/m 8,3 km/h (2 Bft) NO 53 0 min 0,000 mm 0,0 UV-I 0 W/m -3,1 C 0,8 C 12,9 km/h (3 Bft) 92,31 %
26.02.2016 18:09 2,6 C 66 % 1010,6 hPa 0,0 l/m 8,9 km/h (2 Bft) NO 44 0 min 0,000 mm 0,0 UV-I 0 W/m -3,1 C 0,3 C 14,5 km/h (3 Bft) 100,00 %
26.02.2016 18:10 2,6 C 66 % 1010,5 hPa 0,0 l/m 10,2 km/h (2 Bft) O-NO 65 0 min 0,000 mm 0,0 UV-I 0 W/m -3,1 C -0,7 C 14,5 km/h (3 Bft) 95,65 %
26.02.2016 18:11 2,6 C 66 % 1010,6 hPa 0,0 l/m 10,1 km/h (2 Bft) O-NO 59 0 min 0,000 mm 0,0 UV-I 0 W/m -3,1 C -0,7 C 14,5 km/h (3 Bft) 95,83 %
26.02.2016 18:12 2,6 C 66 % 1010,6 hPa 0,0 l/m 8,3 km/h (2 Bft) NO 42 0 min 0,000 mm 0,0 UV-I 0 W/m -3,1 C 0,8 C 11,3 km/h (2 Bft) 100,00 %
26.02.2016 18:13 2,5 C 67 % 1010,6 hPa 0,0 l/m 8,4 km/h (2 Bft) NO 40 0 min 0,000 mm 0,0 UV-I 0 W/m -3,0 C 0,6 C 9,7 km/h (2 Bft) 100,00 %
26.02.2016 18:14 2,5 C 67 % 1010,6 hPa 0,0 l/m 8,5 km/h (2 Bft) O-NO 59 0 min 0,000 mm 0,0 UV-I 0 W/m -3,0 C 0,5 C 11,3 km/h (2 Bft) 97,06 %
26.02.2016 18:15 2,4 C 67 % 1010,6 hPa 0,0 l/m 7,8 km/h (2 Bft) O-NO 57 0 min 0,000 mm 0,0 UV-I 0 W/m -3,1 C 1,1 C 11,3 km/h (2 Bft) 95,83 %
26.02.2016 18:16 2,4 C 67 % 1010,6 hPa 0,0 l/m 9,2 km/h (2 Bft) NO 55 0 min 0,000 mm 0,0 UV-I 0 W/m -3,1 C -0,2 C 12,9 km/h (3 Bft) 100,00 %
26.02.2016 18:17 2,4 C 67 % 1010,6 hPa 0,0 l/m 7,8 km/h (2 Bft) O-NO 71 0 min 0,000 mm 0,0 UV-I 0 W/m -3,1 C 1,1 C 9,7 km/h (2 Bft) 91,67 %
26.02.2016 18:18 2,3 C 68 % 1010,6 hPa 0,0 l/m 7,4 km/h (2 Bft) NO 43 0 min 0,000 mm 0,0 UV-I 0 W/m -3,0 C 1,3 C 11,3 km/h (2 Bft) 96,88 %
26.02.2016 18:19 2,3 C 68 % 1010,6 hPa 0,0 l/m 9,0 km/h (2 Bft) NO 49 0 min 0,000 mm 0,0 UV-I 0 W/m -3,0 C -0,1 C 12,9 km/h (3 Bft) 100,00 %
26.02.2016 18:20 2,3 C 68 % 1010,6 hPa 0,0 l/m 9,1 km/h (2 Bft) O-NO 59 0 min 0,000 mm 0,0 UV-I 0 W/m -3,0 C -0,2 C 11,3 km/h (2 Bft) 100,00 %
26.02.2016 18:21 2,3 C 68 % 1010,6 hPa 0,0 l/m 8,5 km/h (2 Bft) O-NO 67 0 min 0,000 mm 0,0 UV-I 0 W/m -3,0 C 0,3 C 11,3 km/h (2 Bft) 100,00 %
26.02.2016 18:22 2,2 C 68 % 1010,6 hPa 0,0 l/m 7,8 km/h (2 Bft) NO 51 0 min 0,000 mm 0,0 UV-I 0 W/m -3,1 C 0,8 C 9,7 km/h (2 Bft) 96,15 %
26.02.2016 18:23 2,2 C 68 % 1010,6 hPa 0,0 l/m 8,8 km/h (2 Bft) O-NO 57 0 min 0,000 mm 0,0 UV-I 0 W/m -3,1 C -0,0 C 12,9 km/h (3 Bft) 100,00 %
26.02.2016 18:24 2,2 C 67 % 1010,6 hPa 0,0 l/m 8,6 km/h (2 Bft) NO 49 0 min 0,000 mm 0,0 UV-I 0 W/m -3,3 C 0,1 C 12,9 km/h (3 Bft) 91,30 %
26.02.2016 18:25 2,2 C 67 % 1010,6 hPa 0,0 l/m 10,0 km/h (2 Bft) NO 54 0 min 0,000 mm 0,0 UV-I 0 W/m -3,3 C -1,0 C 12,9 km/h (3 Bft) 100,00 %
26.02.2016 18:26 2,2 C 67 % 1010,6 hPa 0,0 l/m 8,6 km/h (2 Bft) NO 52 0 min 0,000 mm 0,0 UV-I 0 W/m -3,3 C 0,1 C 9,7 km/h (2 Bft) 93,33 %
26.02.2016 18:27 2,2 C 68 % 1010,6 hPa 0,0 l/m 7,6 km/h (2 Bft) O-NO 74 0 min 0,000 mm 0,0 UV-I 0 W/m -3,1 C 1,0 C 9,7 km/h (2 Bft) 100,00 %
26.02.2016 18:28 2,2 C 68 % 1010,6 hPa 0,0 l/m 8,7 km/h (2 Bft) NO 53 0 min 0,000 mm 0,0 UV-I 0 W/m -3,1 C 0,0 C 9,7 km/h (2 Bft) 100,00 %
26.02.2016 18:29 2,2 C 68 % 1010,6 hPa 0,0 l/m 9,7 km/h (2 Bft) O-NO 62 0 min 0,000 mm 0,0 UV-I 0 W/m -3,1 C -0,8 C 12,9 km/h (3 Bft) 100,00 %
26.02.2016 18:30 2,2 C 68 % 1010,6 hPa 0,0 l/m 8,1 km/h (2 Bft) NO 44 0 min 0,000 mm 0,0 UV-I 0 W/m -3,1 C 0,6 C 9,7 km/h (2 Bft) 100,00 %
26.02.2016 18:31 2,1 C 68 % 1010,6 hPa 0,0 l/m 8,5 km/h (2 Bft) NO 50 0 min 0,000 mm 0,0 UV-I 0 W/m -3,2 C 0,1 C 12,9 km/h (3 Bft) 100,00 %
26.02.2016 18:32 2,1 C 68 % 1010,5 hPa 0,0 l/m 7,4 km/h (2 Bft) O-NO 63 0 min 0,000 mm 0,0 UV-I 0 W/m -3,2 C 1,1 C 8,0 km/h (2 Bft) 100,00 %
26.02.2016 18:33 2,1 C 68 % 1010,5 hPa 0,0 l/m 8,4 km/h (2 Bft) NO 56 0 min 0,000 mm 0,0 UV-I 0 W/m -3,2 C 0,2 C 11,3 km/h (2 Bft) 96,15 %
26.02.2016 18:34 2,1 C 68 % 1010,6 hPa 0,0 l/m 8,6 km/h (2 Bft) NO 44 0 min 0,000 mm 0,0 UV-I 0 W/m -3,2 C 0,0 C 12,9 km/h (3 Bft) 100,00 %
26.02.2016 18:35 2,1 C 68 % 1010,6 hPa 0,0 l/m 9,3 km/h (2 Bft) NO 46 0 min 0,000 mm 0,0 UV-I 0 W/m -3,2 C -0,6 C 14,5 km/h (3 Bft) 100,00 %
26.02.2016 18:36 2,1 C 68 % 1010,6 hPa 0,0 l/m 8,0 km/h (2 Bft) O-NO 60 0 min 0,000 mm 0,0 UV-I 0 W/m -3,2 C 0,6 C 12,9 km/h (3 Bft) 95,83 %
26.02.2016 18:37 2,0 C 68 % 1010,6 hPa 0,0 l/m 8,5 km/h (2 Bft) NO 49 0 min 0,000 mm 0,0 UV-I 0 W/m -3,3 C 0,0 C 11,3 km/h (2 Bft) 95,65 %
26.02.2016 18:38 2,0 C 68 % 1010,6 hPa 0,0 l/m 9,4 km/h (2 Bft) O-NO 58 0 min 0,000 mm 0,0 UV-I 0 W/m -3,3 C -0,8 C 11,3 km/h (2 Bft) 100,00 %
26.02.2016 18:39 1,9 C 68 % 1010,6 hPa 0,0 l/m 8,6 km/h (2 Bft) O-NO 65 0 min 0,000 mm 0,0 UV-I 0 W/m -3,4 C -0,2 C 11,3 km/h (2 Bft) 96,15 %
26.02.2016 18:40 1,9 C 68 % 1010,6 hPa 0,0 l/m 8,8 km/h (2 Bft) O-NO 74 0 min 0,000 mm 0,0 UV-I 0 W/m -3,4 C -0,4 C 9,7 km/h (2 Bft) 100,00 %
26.02.2016 18:41 1,9 C 68 % 1010,6 hPa 0,0 l/m 8,1 km/h (2 Bft) O-NO 64 0 min 0,000 mm 0,0 UV-I 0 W/m -3,4 C 0,3 C 9,7 km/h (2 Bft) 100,00 %
26.02.2016 18:42 1,9 C 68 % 1010,6 hPa 0,0 l/m 7,4 km/h (2 Bft) O-NO 67 0 min 0,000 mm 0,0 UV-I 0 W/m -3,4 C 0,9 C 12,9 km/h (3 Bft) 96,67 %
26.02.2016 18:43 1,9 C 68 % 1010,6 hPa 0,0 l/m 5,6 km/h (1 Bft) O-NO 65 0 min 0,000 mm 0,0 UV-I 0 W/m -3,4 C 1,9 C 9,7 km/h (2 Bft) 100,00 %
26.02.2016 18:44 1,9 C 68 % 1010,6 hPa 0,0 l/m 6,4 km/h (2 Bft) NO 47 0 min 0,000 mm 0,0 UV-I 0 W/m -3,4 C 1,9 C 8,0 km/h (2 Bft) 91,67 %
26.02.2016 18:45 1,9 C 69 % 1010,6 hPa 0,0 l/m 4,1 km/h (1 Bft) O-NO 57 0 min 0,000 mm 0,0 UV-I 0 W/m -3,2 C 1,9 C 4,8 km/h (1 Bft) 100,00 %
26.02.2016 18:46 1,9 C 69 % 1010,5 hPa 0,0 l/m 7,1 km/h (2 Bft) NO 39 0 min 0,000 mm 0,0 UV-I 0 W/m -3,2 C 1,2 C 9,7 km/h (2 Bft) 100,00 %
26.02.2016 18:47 1,8 C 69 % 1010,6 hPa 0,0 l/m 6,4 km/h (2 Bft) O-NO 57 0 min 0,000 mm 0,0 UV-I 0 W/m -3,3 C 1,8 C 9,7 km/h (2 Bft) 96,15 %
26.02.2016 18:48 1,8 C 68 % 1010,6 hPa 0,0 l/m 7,7 km/h (2 Bft) NO 49 0 min 0,000 mm 0,0 UV-I 0 W/m -3,5 C 0,5 C 11,3 km/h (2 Bft) 100,00 %
26.02.2016 18:49 1,8 C 68 % 1010,5 hPa 0,0 l/m 8,8 km/h (2 Bft) O-NO 65 0 min 0,000 mm 0,0 UV-I 0 W/m -3,5 C -0,5 C 11,3 km/h (2 Bft) 100,00 %
26.02.2016 18:50 1,8 C 68 % 1010,5 hPa 0,0 l/m 8,2 km/h (2 Bft) O-NO 58 0 min 0,000 mm 0,0 UV-I 0 W/m -3,5 C 0,1 C 11,3 km/h (2 Bft) 100,00 %
26.02.2016 18:51 1,8 C 68 % 1010,5 hPa 0,0 l/m 8,6 km/h (2 Bft) NO 46 0 min 0,000 mm 0,0 UV-I 0 W/m -3,5 C -0,3 C 12,9 km/h (3 Bft) 100,00 %
26.02.2016 18:52 1,8 C 68 % 1010,4 hPa 0,0 l/m 7,3 km/h (2 Bft) NO 47 0 min 0,000 mm 0,0 UV-I 0 W/m -3,5 C 0,9 C 9,7 km/h (2 Bft) 100,00 %
26.02.2016 18:53 1,8 C 68 % 1010,5 hPa 0,0 l/m 9,2 km/h (2 Bft) O-NO 58 0 min 0,000 mm 0,0 UV-I 0 W/m -3,5 C -0,8 C 12,9 km/h (3 Bft) 100,00 %
26.02.2016 18:54 1,8 C 68 % 1010,5 hPa 0,0 l/m 8,9 km/h (2 Bft) O-NO 58 0 min 0,000 mm 0,0 UV-I 0 W/m -3,5 C -0,6 C 11,3 km/h (2 Bft) 100,00 %
26.02.2016 18:55 1,8 C 68 % 1010,4 hPa 0,0 l/m 8,2 km/h (2 Bft) O-NO 67 0 min 0,000 mm 0,0 UV-I 0 W/m -3,5 C 0,1 C 11,3 km/h (2 Bft) 100,00 %
26.02.2016 18:56 1,8 C 68 % 1010,5 hPa 0,0 l/m 8,8 km/h (2 Bft) O-NO 58 0 min 0,000 mm 0,0 UV-I 0 W/m -3,5 C -0,5 C 11,3 km/h (2 Bft) 100,00 %
26.02.2016 18:57 1,7 C 68 % 1010,5 hPa 0,0 l/m 6,6 km/h (2 Bft) O-NO 61 0 min 0,000 mm 0,0 UV-I 0 W/m -3,6 C 1,5 C 9,7 km/h (2 Bft) 100,00 %
26.02.2016 18:58 1,7 C 68 % 1010,4 hPa 0,0 l/m 7,1 km/h (2 Bft) O-NO 68 0 min 0,000 mm 0,0 UV-I 0 W/m -3,6 C 1,0 C 9,7 km/h (2 Bft) 100,00 %
26.02.2016 18:59 1,7 C 68 % 1010,4 hPa 0,0 l/m 7,7 km/h (2 Bft) NO 40 0 min 0,000 mm 0,0 UV-I 0 W/m -3,6 C 0,4 C 9,7 km/h (2 Bft) 100,00 %
26.02.2016 19:00 1,7 C 68 % 1010,4 hPa 0,0 l/m 7,2 km/h (2 Bft) O-NO 59 0 min 0,000 mm 0,0 UV-I 0 W/m -3,6 C 0,9 C 8,0 km/h (2 Bft) 96,15 %
26.02.2016 19:01 1,7 C 69 % 1010,4 hPa 0,0 l/m 6,6 km/h (2 Bft) O-NO 71 0 min 0,025 mm 0,0 UV-I 0 W/m -3,4 C 1,5 C 9,7 km/h (2 Bft) 96,30 %
26.02.2016 19:02 1,7 C 68 % 1010,4 hPa 0,0 l/m 5,1 km/h (1 Bft) O-NO 61 0 min 0,000 mm 0,0 UV-I 0 W/m -3,6 C 1,7 C 6,4 km/h (2 Bft) 100,00 %
26.02.2016 19:03 1,6 C 68 % 1010,4 hPa 0,0 l/m 6,3 km/h (2 Bft) O-NO 63 0 min 0,000 mm 0,0 UV-I 0 W/m -3,7 C 1,6 C 8,0 km/h (2 Bft) 100,00 %
26.02.2016 19:04 1,6 C 69 % 1010,4 hPa 0,0 l/m 7,4 km/h (2 Bft) NO 53 0 min 0,000 mm 0,0 UV-I 0 W/m -3,5 C 0,6 C 8,0 km/h (2 Bft) 100,00 %
26.02.2016 19:05 1,6 C 69 % 1010,4 hPa 0,0 l/m 7,5 km/h (2 Bft) NO 46 0 min 0,000 mm 0,0 UV-I 0 W/m -3,5 C 0,5 C 9,7 km/h (2 Bft) 100,00 %
26.02.2016 19:06 1,6 C 69 % 1010,4 hPa 0,0 l/m 8,7 km/h (2 Bft) NO 55 0 min 0,000 mm 0,0 UV-I 0 W/m -3,5 C -0,6 C 12,9 km/h (3 Bft) 100,00 %
26.02.2016 19:07 1,6 C 69 % 1010,3 hPa 0,0 l/m 8,8 km/h (2 Bft) NO 56 0 min 0,000 mm 0,0 UV-I 0 W/m -3,5 C -0,7 C 12,9 km/h (3 Bft) 100,00 %
26.02.2016 19:08 1,6 C 69 % 1010,3 hPa 0,0 l/m 7,8 km/h (2 Bft) NO 52 0 min 0,000 mm 0,0 UV-I 0 W/m -3,5 C 0,2 C 9,7 km/h (2 Bft) 100,00 %
26.02.2016 19:09 1,5 C 69 % 1010,3 hPa 0,0 l/m 6,9 km/h (2 Bft) NO 56 0 min 0,000 mm 0,0 UV-I 0 W/m -3,6 C 1,0 C 9,7 km/h (2 Bft) 100,00 %
26.02.2016 19:10 1,5 C 69 % 1010,3 hPa 0,0 l/m 6,4 km/h (2 Bft) O-NO 62 0 min 0,000 mm 0,0 UV-I 0 W/m -3,6 C 1,5 C 9,7 km/h (2 Bft) 100,00 %
26.02.2016 19:11 1,5 C 69 % 1010,3 hPa 0,0 l/m 5,7 km/h (1 Bft) NO 38 0 min 0,000 mm 0,0 UV-I 0 W/m -3,6 C 1,5 C 6,4 km/h (2 Bft) 100,00 %
26.02.2016 19:12 1,4 C 69 % 1010,3 hPa 0,0 l/m 6,8 km/h (2 Bft) O-NO 67 0 min 0,000 mm 0,0 UV-I 0 W/m -3,7 C 1,0 C 8,0 km/h (2 Bft) 100,00 %
26.02.2016 19:13 1,4 C 69 % 1010,4 hPa 0,0 l/m 6,0 km/h (2 Bft) N-NO 31 0 min 0,000 mm 0,0 UV-I 0 W/m -3,7 C 1,4 C 9,7 km/h (2 Bft) 100,00 %
26.02.2016 19:14 1,4 C 69 % 1010,3 hPa 0,0 l/m 5,7 km/h (1 Bft) O-NO 65 0 min 0,000 mm 0,0 UV-I 0 W/m -3,7 C 1,4 C 11,3 km/h (2 Bft) 100,00 %
26.02.2016 19:15 1,4 C 69 % 1010,4 hPa 0,0 l/m 7,7 km/h (2 Bft) NO 46 0 min 0,000 mm 0,0 UV-I 0 W/m -3,7 C 0,1 C 12,9 km/h (3 Bft) 100,00 %
26.02.2016 19:16 1,4 C 69 % 1010,4 hPa 0,0 l/m 7,2 km/h (2 Bft) NO 42 0 min 0,000 mm 0,0 UV-I 0 W/m -3,7 C 0,6 C 9,7 km/h (2 Bft) 100,00 %
26.02.2016 19:17 1,4 C 69 % 1010,4 hPa 0,0 l/m 7,7 km/h (2 Bft) O 86 0 min 0,000 mm 0,0 UV-I 0 W/m -3,7 C 0,1 C 9,7 km/h (2 Bft) 100,00 %
26.02.2016 19:18 1,4 C 69 % 1010,4 hPa 0,0 l/m 6,0 km/h (2 Bft) O-NO 60 0 min 0,000 mm 0,0 UV-I 0 W/m -3,7 C 1,4 C 8,0 km/h (2 Bft) 100,00 %
26.02.2016 19:19 1,4 C 69 % 1010,4 hPa 0,0 l/m 6,2 km/h (2 Bft) O-NO 69 0 min 0,000 mm 0,0 UV-I 0 W/m -3,7 C 1,4 C 9,7 km/h (2 Bft) 100,00 %
26.02.2016 19:20 1,4 C 69 % 1010,4 hPa 0,0 l/m 5,6 km/h (1 Bft) O-NO 73 0 min 0,000 mm 0,0 UV-I 0 W/m -3,7 C 1,4 C 8,0 km/h (2 Bft) 95,83 %
26.02.2016 19:21 1,4 C 69 % 1010,4 hPa 0,0 l/m 5,8 km/h (2 Bft) O-NO 69 0 min 0,000 mm 0,0 UV-I 0 W/m -3,7 C 1,4 C 8,0 km/h (2 Bft) 100,00 %
26.02.2016 19:22 1,4 C 69 % 1010,4 hPa 0,0 l/m 6,0 km/h (2 Bft) O-NO 63 0 min 0,000 mm 0,0 UV-I 0 W/m -3,7 C 1,4 C 8,0 km/h (2 Bft) 100,00 %
26.02.2016 19:23 1,4 C 69 % 1010,4 hPa 0,0 l/m 4,6 km/h (1 Bft) O-NO 68 0 min 0,000 mm 0,0 UV-I 0 W/m -3,7 C 1,4 C 6,4 km/h (2 Bft) 100,00 %
26.02.2016 19:24 1,4 C 70 % 1010,3 hPa 0,0 l/m 4,2 km/h (1 Bft) NO 46 0 min 0,000 mm 0,0 UV-I 0 W/m -3,5 C 1,4 C 8,0 km/h (2 Bft) 100,00 %
26.02.2016 19:25 1,4 C 70 % 1010,3 hPa 0,0 l/m 4,3 km/h (1 Bft) NO 51 0 min 0,000 mm 0,0 UV-I 0 W/m -3,5 C 1,4 C 8,0 km/h (2 Bft) 100,00 %
26.02.2016 19:26 1,3 C 70 % 1010,3 hPa 0,0 l/m 6,2 km/h (2 Bft) NO 49 0 min 0,000 mm 0,0 UV-I 0 W/m -3,6 C 1,3 C 9,7 km/h (2 Bft) 100,00 %
26.02.2016 19:27 1,3 C 70 % 1010,3 hPa 0,0 l/m 6,1 km/h (2 Bft) O-NO 60 0 min 0,000 mm 0,0 UV-I 0 W/m -3,6 C 1,3 C 9,7 km/h (2 Bft) 100,00 %
26.02.2016 19:28 1,3 C 69 % 1010,3 hPa 0,0 l/m 8,0 km/h (2 Bft) NO 52 0 min 0,000 mm 0,0 UV-I 0 W/m -3,7 C -0,3 C 12,9 km/h (3 Bft) 100,00 %
26.02.2016 19:29 1,3 C 69 % 1010,3 hPa 0,0 l/m 5,8 km/h (2 Bft) O-NO 61 0 min 0,000 mm 0,0 UV-I 0 W/m -3,7 C 1,3 C 9,7 km/h (2 Bft) 100,00 %
26.02.2016 19:30 1,3 C 70 % 1010,3 hPa 0,0 l/m 8,9 km/h (2 Bft) NO 51 0 min 0,000 mm 0,0 UV-I 0 W/m -3,6 C -1,1 C 12,9 km/h (3 Bft) 100,00 %
26.02.2016 19:31 1,3 C 69 % 1010,3 hPa 0,0 l/m 6,9 km/h (2 Bft) O-NO 62 0 min 0,000 mm 0,0 UV-I 0 W/m -3,7 C 0,8 C 12,9 km/h (3 Bft) 100,00 %
26.02.2016 19:32 1,3 C 70 % 1010,3 hPa 0,0 l/m 5,7 km/h (1 Bft) O-NO 76 0 min 0,000 mm 0,0 UV-I 0 W/m -3,6 C 1,3 C 8,0 km/h (2 Bft) 100,00 %
26.02.2016 19:33 1,3 C 70 % 1010,3 hPa 0,0 l/m 6,4 km/h (2 Bft) O-NO 57 0 min 0,000 mm 0,0 UV-I 0 W/m -3,6 C 1,3 C 9,7 km/h (2 Bft) 100,00 %
26.02.2016 19:34 1,3 C 70 % 1010,3 hPa 0,0 l/m 4,8 km/h (1 Bft) NO 55 0 min 0,000 mm 0,0 UV-I 0 W/m -3,6 C 1,3 C 6,4 km/h (2 Bft) 95,65 %
26.02.2016 19:35 1,3 C 70 % 1010,2 hPa 0,0 l/m 7,2 km/h (2 Bft) NO 55 0 min 0,000 mm 0,0 UV-I 0 W/m -3,6 C 0,5 C 9,7 km/h (2 Bft) 100,00 %
26.02.2016 19:36 1,3 C 70 % 1010,2 hPa 0,0 l/m 7,9 km/h (2 Bft) O-NO 74 0 min 0,000 mm 0,0 UV-I 0 W/m -3,6 C -0,2 C 9,7 km/h (2 Bft) 100,00 %
26.02.2016 19:37 1,3 C 70 % 1010,2 hPa 0,0 l/m 6,4 km/h (2 Bft) O-NO 57 0 min 0,000 mm 0,0 UV-I 0 W/m -3,6 C 1,3 C 9,7 km/h (2 Bft) 100,00 %
26.02.2016 19:38 1,3 C 69 % 1010,2 hPa 0,0 l/m 7,6 km/h (2 Bft) NO 44 0 min 0,000 mm 0,0 UV-I 0 W/m -3,7 C 0,1 C 12,9 km/h (3 Bft) 100,00 %
26.02.2016 19:39 1,3 C 69 % 1010,2 hPa 0,0 l/m 8,7 km/h (2 Bft) O-NO 69 0 min 0,000 mm 0,0 UV-I 0 W/m -3,7 C -0,9 C 14,5 km/h (3 Bft) 100,00 %
26.02.2016 19:40 1,3 C 70 % 1010,2 hPa 0,0 l/m 10,9 km/h (2 Bft) O-NO 63 0 min 0,000 mm 0,0 UV-I 0 W/m -3,6 C -2,7 C 14,5 km/h (3 Bft) 100,00 %
26.02.2016 19:41 1,3 C 70 % 1010,2 hPa 0,0 l/m 10,2 km/h (2 Bft) O-NO 69 0 min 0,000 mm 0,0 UV-I 0 W/m -3,6 C -2,2 C 14,5 km/h (3 Bft) 100,00 %
26.02.2016 19:42 1,3 C 70 % 1010,1 hPa 0,0 l/m 8,8 km/h (2 Bft) NO 40 0 min 0,000 mm 0,0 UV-I 0 W/m -3,6 C -1,0 C 12,9 km/h (3 Bft) 100,00 %
26.02.2016 19:43 1,3 C 70 % 1010,1 hPa 0,0 l/m 8,9 km/h (2 Bft) O-NO 57 0 min 0,000 mm 0,0 UV-I 0 W/m -3,6 C -1,1 C 11,3 km/h (2 Bft) 100,00 %
26.02.2016 19:44 1,3 C 70 % 1010,1 hPa 0,0 l/m 10,7 km/h (2 Bft) NO 56 0 min 0,000 mm 0,0 UV-I 0 W/m -3,6 C -2,6 C 16,1 km/h (3 Bft) 100,00 %
26.02.2016 19:45 1,3 C 70 % 1010,1 hPa 0,0 l/m 11,0 km/h (2 Bft) O-NO 61 0 min 0,000 mm 0,0 UV-I 0 W/m -3,6 C -2,8 C 16,1 km/h (3 Bft) 100,00 %
26.02.2016 19:46 1,3 C 70 % 1010,1 hPa 0,0 l/m 10,8 km/h (2 Bft) NO 49 0 min 0,000 mm 0,0 UV-I 0 W/m -3,6 C -2,6 C 16,1 km/h (3 Bft) 100,00 %
26.02.2016 19:47 1,3 C 70 % 1010,1 hPa 0,0 l/m 9,8 km/h (2 Bft) NO 49 0 min 0,000 mm 0,0 UV-I 0 W/m -3,6 C -1,9 C 14,5 km/h (3 Bft) 100,00 %
26.02.2016 19:48 1,3 C 70 % 1010,1 hPa 0,0 l/m 10,5 km/h (2 Bft) O-NO 59 0 min 0,000 mm 0,0 UV-I 0 W/m -3,6 C -2,4 C 14,5 km/h (3 Bft) 96,15 %
26.02.2016 19:49 1,3 C 70 % 1010,0 hPa 0,0 l/m 10,3 km/h (2 Bft) O-NO 67 0 min 0,000 mm 0,0 UV-I 0 W/m -3,6 C -2,3 C 16,1 km/h (3 Bft) 100,00 %
26.02.2016 19:50 1,3 C 70 % 1010,1 hPa 0,0 l/m 8,9 km/h (2 Bft) NO 42 0 min 0,000 mm 0,0 UV-I 0 W/m -3,6 C -1,1 C 12,9 km/h (3 Bft) 95,65 %
26.02.2016 19:51 1,3 C 70 % 1010,1 hPa 0,0 l/m 9,6 km/h (2 Bft) O-NO 58 0 min 0,000 mm 0,0 UV-I 0 W/m -3,6 C -1,7 C 14,5 km/h (3 Bft) 96,30 %
26.02.2016 19:52 1,3 C 70 % 1010,0 hPa 0,0 l/m 9,6 km/h (2 Bft) NO 55 0 min 0,000 mm 0,0 UV-I 0 W/m -3,6 C -1,7 C 12,9 km/h (3 Bft) 100,00 %
26.02.2016 19:53 1,3 C 70 % 1010,0 hPa 0,0 l/m 8,2 km/h (2 Bft) NO 55 0 min 0,000 mm 0,0 UV-I 0 W/m -3,6 C -0,5 C 11,3 km/h (2 Bft) 96,55 %
26.02.2016 19:54 1,3 C 70 % 1010,0 hPa 0,0 l/m 8,3 km/h (2 Bft) O-NO 57 0 min 0,000 mm 0,0 UV-I 0 W/m -3,6 C -0,6 C 12,9 km/h (3 Bft) 100,00 %
26.02.2016 19:55 1,3 C 70 % 1010,0 hPa 0,0 l/m 9,1 km/h (2 Bft) O-NO 59 0 min 0,000 mm 0,0 UV-I 0 W/m -3,6 C -1,3 C 12,9 km/h (3 Bft) 92,86 %
26.02.2016 19:56 1,3 C 70 % 1010,0 hPa 0,0 l/m 12,1 km/h (2 Bft) O-NO 63 0 min 0,000 mm 0,0 UV-I 0 W/m -3,6 C -3,6 C 16,1 km/h (3 Bft) 100,00 %
26.02.2016 19:57 1,3 C 70 % 1010,0 hPa 0,0 l/m 11,2 km/h (2 Bft) O-NO 61 0 min 0,000 mm 0,0 UV-I 0 W/m -3,6 C -2,9 C 14,5 km/h (3 Bft) 95,65 %
26.02.2016 19:58 1,3 C 70 % 1009,9 hPa 0,0 l/m 9,8 km/h (2 Bft) NO 42 0 min 0,000 mm 0,0 UV-I 0 W/m -3,6 C -1,9 C 12,9 km/h (3 Bft) 100,00 %
26.02.2016 19:59 1,3 C 70 % 1009,9 hPa 0,0 l/m 8,7 km/h (2 Bft) O-NO 62 0 min 0,000 mm 0,0 UV-I 0 W/m -3,6 C -0,9 C 14,5 km/h (3 Bft) 92,86 %
26.02.2016 20:00 1,3 C 70 % 1009,9 hPa 0,0 l/m 8,8 km/h (2 Bft) NO 46 0 min 0,026 mm 0,0 UV-I 0 W/m -3,6 C -1,0 C 12,9 km/h (3 Bft) 94,44 %
26.02.2016 20:01 1,3 C 71 % 1009,9 hPa 0,0 l/m 9,8 km/h (2 Bft) O-NO 65 0 min 0,000 mm 0,0 UV-I 0 W/m -3,4 C -1,9 C 14,5 km/h (3 Bft) 92,86 %
26.02.2016 20:02 1,2 C 71 % 1009,8 hPa 0,0 l/m 7,6 km/h (2 Bft) N-NO 32 0 min 0,000 mm 0,0 UV-I 0 W/m -3,5 C -0,0 C 14,5 km/h (3 Bft) 92,59 %
26.02.2016 20:03 1,2 C 71 % 1009,8 hPa 0,0 l/m 8,0 km/h (2 Bft) O-NO 71 0 min 0,000 mm 0,0 UV-I 0 W/m -3,5 C -0,4 C 11,3 km/h (2 Bft) 100,00 %
26.02.2016 20:04 1,2 C 71 % 1009,8 hPa 0,0 l/m 8,3 km/h (2 Bft) O-NO 60 0 min 0,000 mm 0,0 UV-I 0 W/m -3,5 C -0,7 C 12,9 km/h (3 Bft) 95,83 %
26.02.2016 20:05 1,1 C 71 % 1009,8 hPa 0,0 l/m 7,9 km/h (2 Bft) N-NO 33 0 min 0,000 mm 0,0 UV-I 0 W/m -3,6 C -0,4 C 9,7 km/h (2 Bft) 95,65 %
26.02.2016 20:06 1,1 C 71 % 1009,8 hPa 0,0 l/m 6,9 km/h (2 Bft) O-NO 66 0 min 0,000 mm 0,0 UV-I 0 W/m -3,6 C 0,6 C 8,0 km/h (2 Bft) 93,33 %
26.02.2016 20:07 1,1 C 71 % 1009,8 hPa 0,0 l/m 10,2 km/h (2 Bft) N-NO 20 0 min 0,000 mm 0,0 UV-I 0 W/m -3,6 C -2,4 C 16,1 km/h (3 Bft) 100,00 %
26.02.2016 20:08 1,1 C 71 % 1009,8 hPa 0,0 l/m 14,3 km/h (3 Bft) NO 53 0 min 0,000 mm 0,0 UV-I 0 W/m -3,6 C -5,2 C 22,5 km/h (4 Bft) 96,15 %
26.02.2016 20:09 1,1 C 71 % 1009,7 hPa 0,0 l/m 14,8 km/h (3 Bft) NO 42 0 min 0,000 mm 0,0 UV-I 0 W/m -3,6 C -5,5 C 20,9 km/h (4 Bft) 94,44 %
26.02.2016 20:10 1,1 C 71 % 1009,7 hPa 0,0 l/m 12,2 km/h (2 Bft) O-NO 61 0 min 0,000 mm 0,0 UV-I 0 W/m -3,6 C -3,9 C 17,7 km/h (3 Bft) 95,65 %
26.02.2016 20:11 1,1 C 71 % 1009,7 hPa 0,0 l/m 14,8 km/h (3 Bft) O-NO 58 0 min 0,000 mm 0,0 UV-I 0 W/m -3,6 C -5,5 C 20,9 km/h (4 Bft) 96,30 %
26.02.2016 20:12 1,1 C 71 % 1009,6 hPa 0,0 l/m 17,8 km/h (3 Bft) NO 51 0 min 0,000 mm 0,0 UV-I 0 W/m -3,6 C -7,2 C 24,1 km/h (4 Bft) 100,00 %
26.02.2016 20:13 1,2 C 71 % 1009,6 hPa 0,0 l/m 18,6 km/h (3 Bft) NO 55 0 min 0,000 mm 0,0 UV-I 0 W/m -3,5 C -7,4 C 25,7 km/h (4 Bft) 100,00 %
26.02.2016 20:14 1,2 C 71 % 1009,6 hPa 0,0 l/m 18,6 km/h (3 Bft) O-NO 65 0 min 0,000 mm 0,0 UV-I 0 W/m -3,5 C -7,4 C 24,1 km/h (4 Bft) 95,12 %
26.02.2016 20:15 1,2 C 71 % 1009,6 hPa 0,0 l/m 17,7 km/h (3 Bft) NO 40 0 min 0,000 mm 0,0 UV-I 0 W/m -3,5 C -7,0 C 22,5 km/h (4 Bft) 93,33 %
26.02.2016 20:16 1,2 C 71 % 1009,5 hPa 0,0 l/m 18,4 km/h (3 Bft) NO 37 0 min 0,000 mm 0,0 UV-I 0 W/m -3,5 C -7,3 C 27,4 km/h (4 Bft) 100,00 %
26.02.2016 20:17 1,2 C 70 % 1009,5 hPa 0,0 l/m 19,9 km/h (4 Bft) O-NO 58 0 min 0,000 mm 0,0 UV-I 0 W/m -3,7 C -8,0 C 24,1 km/h (4 Bft) 97,56 %
26.02.2016 20:18 1,3 C 70 % 1009,5 hPa 0,0 l/m 17,0 km/h (3 Bft) NO 46 0 min 0,000 mm 0,0 UV-I 0 W/m -3,6 C -6,5 C 22,5 km/h (4 Bft) 100,00 %
26.02.2016 20:19 1,3 C 70 % 1009,5 hPa 0,0 l/m 14,8 km/h (3 Bft) NO 52 0 min 0,000 mm 0,0 UV-I 0 W/m -3,6 C -5,3 C 20,9 km/h (4 Bft) 91,67 %
26.02.2016 20:20 1,3 C 70 % 1009,5 hPa 0,0 l/m 17,4 km/h (3 Bft) N-NO 30 0 min 0,000 mm 0,0 UV-I 0 W/m -3,6 C -6,7 C 20,9 km/h (4 Bft) 97,14 %
26.02.2016 20:21 1,3 C 70 % 1009,5 hPa 0,0 l/m 18,3 km/h (3 Bft) NO 51 0 min 0,000 mm 0,0 UV-I 0 W/m -3,6 C -7,2 C 20,9 km/h (4 Bft) 100,00 %
26.02.2016 20:22 1,3 C 70 % 1009,5 hPa 0,0 l/m 19,0 km/h (3 Bft) NO 49 0 min 0,000 mm 0,0 UV-I 0 W/m -3,6 C -7,5 C 22,5 km/h (4 Bft) 86,96 %
26.02.2016 20:23 1,3 C 70 % 1009,5 hPa 0,0 l/m 13,9 km/h (3 Bft) NO 51 0 min 0,000 mm 0,0 UV-I 0 W/m -3,6 C -4,7 C 19,3 km/h (3 Bft) 100,00 %
26.02.2016 20:24 1,3 C 71 % 1009,5 hPa 0,0 l/m 13,6 km/h (3 Bft) N-NO 30 0 min 0,000 mm 0,0 UV-I 0 W/m -3,4 C -4,6 C 17,7 km/h (3 Bft) 100,00 %
26.02.2016 20:25 1,3 C 71 % 1009,5 hPa 0,0 l/m 14,2 km/h (3 Bft) O-NO 63 0 min 0,000 mm 0,0 UV-I 0 W/m -3,4 C -4,9 C 22,5 km/h (4 Bft) 100,00 %
26.02.2016 20:26 1,3 C 71 % 1009,5 hPa 0,0 l/m 13,1 km/h (3 Bft) NO 52 0 min 0,000 mm 0,0 UV-I 0 W/m -3,4 C -4,2 C 19,3 km/h (3 Bft) 100,00 %
26.02.2016 20:27 1,2 C 71 % 1009,5 hPa 0,0 l/m 14,9 km/h (3 Bft) O-NO 74 0 min 0,000 mm 0,0 UV-I 0 W/m -3,5 C -5,5 C 17,7 km/h (3 Bft) 100,00 %
26.02.2016 20:28 1,2 C 71 % 1009,5 hPa 0,0 l/m 15,4 km/h (3 Bft) NO 37 0 min 0,000 mm 0,0 UV-I 0 W/m -3,5 C -5,8 C 20,9 km/h (4 Bft) 100,00 %
26.02.2016 20:29 1,2 C 71 % 1009,5 hPa 0,0 l/m 15,9 km/h (3 Bft) O-NO 65 0 min 0,000 mm 0,0 UV-I 0 W/m -3,5 C -6,0 C 20,9 km/h (4 Bft) 100,00 %
26.02.2016 20:30 1,2 C 71 % 1009,4 hPa 0,0 l/m 14,8 km/h (3 Bft) NO 43 0 min 0,000 mm 0,0 UV-I 0 W/m -3,5 C -5,4 C 20,9 km/h (4 Bft) 95,83 %
26.02.2016 20:31 1,2 C 71 % 1009,4 hPa 0,0 l/m 15,4 km/h (3 Bft) O-NO 70 0 min 0,000 mm 0,0 UV-I 0 W/m -3,5 C -5,8 C 19,3 km/h (3 Bft) 96,55 %
26.02.2016 20:32 1,2 C 71 % 1009,4 hPa 0,0 l/m 17,4 km/h (3 Bft) O 88 0 min 0,000 mm 0,0 UV-I 0 W/m -3,5 C -6,8 C 22,5 km/h (4 Bft) 100,00 %
26.02.2016 20:33 1,2 C 71 % 1009,4 hPa 0,0 l/m 14,0 km/h (3 Bft) NO 56 0 min 0,000 mm 0,0 UV-I 0 W/m -3,5 C -4,9 C 22,5 km/h (4 Bft) 96,55 %
26.02.2016 20:34 1,2 C 71 % 1009,4 hPa 0,0 l/m 19,2 km/h (3 Bft) NO 51 0 min 0,000 mm 0,0 UV-I 0 W/m -3,5 C -7,7 C 22,5 km/h (4 Bft) 100,00 %
26.02.2016 20:35 1,2 C 71 % 1009,4 hPa 0,0 l/m 16,5 km/h (3 Bft) NO 51 0 min 0,000 mm 0,0 UV-I 0 W/m -3,5 C -6,4 C 22,5 km/h (4 Bft) 96,15 %
26.02.2016 20:36 1,2 C 72 % 1009,4 hPa 0,0 l/m 14,3 km/h (3 Bft) O-NO 59 0 min 0,000 mm 0,0 UV-I 0 W/m -3,3 C -5,1 C 20,9 km/h (4 Bft) 100,00 %
26.02.2016 20:37 1,2 C 71 % 1009,4 hPa 0,0 l/m 14,8 km/h (3 Bft) O-NO 69 0 min 0,000 mm 0,0 UV-I 0 W/m -3,5 C -5,4 C 19,3 km/h (3 Bft) 100,00 %
26.02.2016 20:38 1,2 C 71 % 1009,3 hPa 0,0 l/m 18,6 km/h (3 Bft) O-NO 59 0 min 0,000 mm 0,0 UV-I 0 W/m -3,5 C -7,4 C 24,1 km/h (4 Bft) 100,00 %
26.02.2016 20:39 1,2 C 71 % 1009,3 hPa 0,0 l/m 16,9 km/h (3 Bft) O-NO 65 0 min 0,000 mm 0,0 UV-I 0 W/m -3,5 C -6,6 C 22,5 km/h (4 Bft) 100,00 %
26.02.2016 20:40 1,2 C 71 % 1009,3 hPa 0,0 l/m 17,9 km/h (3 Bft) NO 55 0 min 0,000 mm 0,0 UV-I 0 W/m -3,5 C -7,1 C 24,1 km/h (4 Bft) 100,00 %
26.02.2016 20:41 1,2 C 71 % 1009,2 hPa 0,0 l/m 16,7 km/h (3 Bft) O-NO 63 0 min 0,000 mm 0,0 UV-I 0 W/m -3,5 C -6,5 C 25,7 km/h (4 Bft) 100,00 %
26.02.2016 20:42 1,2 C 71 % 1009,2 hPa 0,0 l/m 16,7 km/h (3 Bft) NO 46 0 min 0,000 mm 0,0 UV-I 0 W/m -3,5 C -6,5 C 24,1 km/h (4 Bft) 100,00 %
26.02.2016 20:43 1,2 C 71 % 1009,2 hPa 0,0 l/m 18,4 km/h (3 Bft) O-NO 64 0 min 0,000 mm 0,0 UV-I 0 W/m -3,5 C -7,3 C 22,5 km/h (4 Bft) 100,00 %
26.02.2016 20:44 1,1 C 71 % 1009,1 hPa 0,0 l/m 16,5 km/h (3 Bft) O-NO 62 0 min 0,000 mm 0,0 UV-I 0 W/m -3,6 C -6,5 C 20,9 km/h (4 Bft) 100,00 %
26.02.2016 20:45 1,1 C 71 % 1009,1 hPa 0,0 l/m 16,6 km/h (3 Bft) NO 52 0 min 0,000 mm 0,0 UV-I 0 W/m -3,6 C -6,5 C 22,5 km/h (4 Bft) 100,00 %
26.02.2016 20:46 1,1 C 71 % 1009,1 hPa 0,0 l/m 18,0 km/h (3 Bft) NO 49 0 min 0,000 mm 0,0 UV-I 0 W/m -3,6 C -7,3 C 24,1 km/h (4 Bft) 100,00 %
26.02.2016 20:47 1,2 C 71 % 1009,1 hPa 0,0 l/m 16,1 km/h (3 Bft) NO 34 0 min 0,000 mm 0,0 UV-I 0 W/m -3,5 C -6,1 C 20,9 km/h (4 Bft) 100,00 %
26.02.2016 20:48 1,1 C 71 % 1009,1 hPa 0,0 l/m 16,0 km/h (3 Bft) NO 44 0 min 0,000 mm 0,0 UV-I 0 W/m -3,6 C -6,2 C 22,5 km/h (4 Bft) 100,00 %
26.02.2016 20:49 1,1 C 71 % 1009,1 hPa 0,0 l/m 18,3 km/h (3 Bft) O-NO 57 0 min 0,000 mm 0,0 UV-I 0 W/m -3,6 C -7,4 C 25,7 km/h (4 Bft) 100,00 %
26.02.2016 20:50 1,1 C 71 % 1009,1 hPa 0,0 l/m 17,9 km/h (3 Bft) O-NO 62 0 min 0,000 mm 0,0 UV-I 0 W/m -3,6 C -7,2 C 29,0 km/h (5 Bft) 100,00 %
26.02.2016 20:51 1,1 C 71 % 1009,1 hPa 0,0 l/m 18,9 km/h (3 Bft) NO 40 0 min 0,000 mm 0,0 UV-I 0 W/m -3,6 C -7,7 C 25,7 km/h (4 Bft) 100,00 %
26.02.2016 20:52 1,1 C 71 % 1009,1 hPa 0,0 l/m 17,4 km/h (3 Bft) O-NO 61 0 min 0,000 mm 0,0 UV-I 0 W/m -3,6 C -7,0 C 22,5 km/h (4 Bft) 100,00 %
26.02.2016 20:53 1,1 C 71 % 1009,1 hPa 0,0 l/m 20,0 km/h (4 Bft) O-NO 66 0 min 0,000 mm 0,0 UV-I 0 W/m -3,6 C -8,2 C 24,1 km/h (4 Bft) 100,00 %
26.02.2016 20:54 1,1 C 71 % 1009,1 hPa 0,0 l/m 18,7 km/h (3 Bft) O-NO 67 0 min 0,000 mm 0,0 UV-I 0 W/m -3,6 C -7,6 C 22,5 km/h (4 Bft) 100,00 %
26.02.2016 20:55 1,1 C 71 % 1009,1 hPa 0,0 l/m 16,6 km/h (3 Bft) O 84 0 min 0,000 mm 0,0 UV-I 0 W/m -3,6 C -6,5 C 22,5 km/h (4 Bft) 100,00 %
26.02.2016 20:56 1,1 C 71 % 1009,1 hPa 0,0 l/m 19,6 km/h (3 Bft) O-NO 64 0 min 0,000 mm 0,0 UV-I 0 W/m -3,6 C -8,0 C 22,5 km/h (4 Bft) 100,00 %
26.02.2016 20:57 1,1 C 71 % 1009,0 hPa 0,0 l/m 21,6 km/h (4 Bft) NO 53 0 min 0,000 mm 0,0 UV-I 0 W/m -3,6 C -8,9 C 27,4 km/h (4 Bft) 100,00 %
26.02.2016 20:58 1,1 C 71 % 1009,0 hPa 0,0 l/m 19,6 km/h (3 Bft) O-NO 63 0 min 0,000 mm 0,0 UV-I 0 W/m -3,6 C -8,0 C 24,1 km/h (4 Bft) 100,00 %
26.02.2016 20:59 1,1 C 71 % 1009,0 hPa 0,0 l/m 18,6 km/h (3 Bft) NO 41 0 min 0,000 mm 0,0 UV-I 0 W/m -3,6 C -7,6 C 22,5 km/h (4 Bft) 100,00 %
26.02.2016 21:00 1,1 C 71 % 1009,0 hPa 0,0 l/m 16,2 km/h (3 Bft) O-NO 60 0 min 0,000 mm 0,0 UV-I 0 W/m -3,6 C -6,3 C 22,5 km/h (4 Bft) 96,15 %
26.02.2016 21:02 1,1 C 71 % 1009,0 hPa 0,0 l/m 19,0 km/h (3 Bft) O-NO 77 0 min 0,025 mm 0,0 UV-I 0 W/m -3,6 C -7,7 C 24,1 km/h (4 Bft) 100,00 %
26.02.2016 21:03 1,1 C 70 % 1009,0 hPa 0,0 l/m 18,0 km/h (3 Bft) NO 55 0 min 0,000 mm 0,0 UV-I 0 W/m -3,7 C -7,3 C 22,5 km/h (4 Bft) 100,00 %
26.02.2016 21:04 1,1 C 71 % 1009,0 hPa 0,0 l/m 16,2 km/h (3 Bft) NO 46 0 min 0,000 mm 0,0 UV-I 0 W/m -3,6 C -6,3 C 20,9 km/h (4 Bft) 96,15 %
26.02.2016 21:05 1,1 C 71 % 1009,0 hPa 0,0 l/m 17,6 km/h (3 Bft) NO 51 0 min 0,000 mm 0,0 UV-I 0 W/m -3,6 C -7,1 C 24,1 km/h (4 Bft) 100,00 %
26.02.2016 21:06 1,1 C 71 % 1009,0 hPa 0,0 l/m 20,0 km/h (4 Bft) NO 42 0 min 0,000 mm 0,0 UV-I 0 W/m -3,6 C -8,2 C 25,7 km/h (4 Bft) 100,00 %
26.02.2016 21:07 1,1 C 70 % 1008,9 hPa 0,0 l/m 16,9 km/h (3 Bft) NO 48 0 min 0,000 mm 0,0 UV-I 0 W/m -3,7 C -6,7 C 22,5 km/h (4 Bft) 100,00 %
26.02.2016 21:08 1,1 C 71 % 1009,0 hPa 0,0 l/m 16,5 km/h (3 Bft) NO 42 0 min 0,000 mm 0,0 UV-I 0 W/m -3,6 C -6,5 C 25,7 km/h (4 Bft) 100,00 %
26.02.2016 21:09 1,1 C 71 % 1009,0 hPa 0,0 l/m 14,6 km/h (3 Bft) NO 54 0 min 0,000 mm 0,0 UV-I 0 W/m -3,6 C -5,4 C 17,7 km/h (3 Bft) 96,15 %
26.02.2016 21:10 1,1 C 71 % 1009,0 hPa 0,0 l/m 17,5 km/h (3 Bft) O-NO 65 0 min 0,000 mm 0,0 UV-I 0 W/m -3,6 C -7,0 C 25,7 km/h (4 Bft) 100,00 %
26.02.2016 21:11 1,1 C 71 % 1008,9 hPa 0,0 l/m 16,3 km/h (3 Bft) O-NO 62 0 min 0,000 mm 0,0 UV-I 0 W/m -3,6 C -6,4 C 20,9 km/h (4 Bft) 100,00 %
26.02.2016 21:12 1,1 C 71 % 1008,9 hPa 0,0 l/m 12,5 km/h (3 Bft) N-NO 28 0 min 0,000 mm 0,0 UV-I 0 W/m -3,6 C -4,1 C 16,1 km/h (3 Bft) 100,00 %
26.02.2016 21:13 1,0 C 71 % 1008,9 hPa 0,0 l/m 11,9 km/h (2 Bft) O-NO 61 0 min 0,000 mm 0,0 UV-I 0 W/m -3,7 C -3,8 C 16,1 km/h (3 Bft) 100,00 %
26.02.2016 21:14 1,0 C 71 % 1008,9 hPa 0,0 l/m 13,0 km/h (3 Bft) O-NO 59 0 min 0,000 mm 0,0 UV-I 0 W/m -3,7 C -4,5 C 17,7 km/h (3 Bft) 100,00 %
26.02.2016 21:15 1,0 C 71 % 1008,8 hPa 0,0 l/m 11,2 km/h (2 Bft) NO 56 0 min 0,000 mm 0,0 UV-I 0 W/m -3,7 C -3,3 C 17,7 km/h (3 Bft) 100,00 %
26.02.2016 21:16 0,9 C 72 % 1008,9 hPa 0,0 l/m 17,1 km/h (3 Bft) O-NO 66 0 min 0,000 mm 0,0 UV-I 0 W/m -3,6 C -7,1 C 22,5 km/h (4 Bft) 100,00 %
26.02.2016 21:17 0,9 C 72 % 1008,8 hPa 0,0 l/m 19,1 km/h (3 Bft) NO 47 0 min 0,000 mm 0,0 UV-I 0 W/m -3,6 C -8,1 C 24,1 km/h (4 Bft) 95,65 %
26.02.2016 21:18 0,9 C 72 % 1008,8 hPa 0,0 l/m 13,5 km/h (3 Bft) O-NO 58 0 min 0,000 mm 0,0 UV-I 0 W/m -3,6 C -5,0 C 20,9 km/h (4 Bft) 100,00 %
26.02.2016 21:19 0,9 C 71 % 1008,8 hPa 0,0 l/m 13,9 km/h (3 Bft) O-NO 60 0 min 0,000 mm 0,0 UV-I 0 W/m -3,7 C -5,2 C 19,3 km/h (3 Bft) 100,00 %
26.02.2016 21:20 0,8 C 72 % 1008,8 hPa 0,0 l/m 17,0 km/h (3 Bft) NO 53 0 min 0,000 mm 0,0 UV-I 0 W/m -3,7 C -7,1 C 20,9 km/h (4 Bft) 95,83 %
26.02.2016 21:21 0,8 C 72 % 1008,8 hPa 0,0 l/m 10,0 km/h (2 Bft) O-NO 63 0 min 0,000 mm 0,0 UV-I 0 W/m -3,7 C -2,6 C 16,1 km/h (3 Bft) 100,00 %
26.02.2016 21:22 0,8 C 72 % 1008,8 hPa 0,0 l/m 16,0 km/h (3 Bft) NO 51 0 min 0,000 mm 0,0 UV-I 0 W/m -3,7 C -6,6 C 24,1 km/h (4 Bft) 100,00 %
26.02.2016 21:23 0,8 C 72 % 1008,8 hPa 0,0 l/m 13,6 km/h (3 Bft) O-NO 60 0 min 0,000 mm 0,0 UV-I 0 W/m -3,7 C -5,2 C 19,3 km/h (3 Bft) 100,00 %
26.02.2016 21:24 0,8 C 72 % 1008,8 hPa 0,0 l/m 18,7 km/h (3 Bft) NO 48 0 min 0,000 mm 0,0 UV-I 0 W/m -3,7 C -8,0 C 24,1 km/h (4 Bft) 100,00 %
26.02.2016 21:25 0,8 C 72 % 1008,8 hPa 0,0 l/m 14,4 km/h (3 Bft) O-NO 61 0 min 0,000 mm 0,0 UV-I 0 W/m -3,7 C -5,7 C 19,3 km/h (3 Bft) 100,00 %
26.02.2016 21:26 0,8 C 72 % 1008,7 hPa 0,0 l/m 11,0 km/h (2 Bft) O-NO 59 0 min 0,000 mm 0,0 UV-I 0 W/m -3,7 C -3,3 C 14,5 km/h (3 Bft) 100,00 %
26.02.2016 21:27 0,8 C 73 % 1008,7 hPa 0,0 l/m 11,1 km/h (2 Bft) O-NO 65 0 min 0,000 mm 0,0 UV-I 0 W/m -3,5 C -3,4 C 16,1 km/h (3 Bft) 100,00 %
26.02.2016 21:28 0,7 C 73 % 1008,8 hPa 0,0 l/m 13,2 km/h (3 Bft) O 79 0 min 0,000 mm 0,0 UV-I 0 W/m -3,6 C -5,0 C 22,5 km/h (4 Bft) 100,00 %
26.02.2016 21:29 0,7 C 73 % 1008,7 hPa 0,0 l/m 15,0 km/h (3 Bft) NO 49 0 min 0,000 mm 0,0 UV-I 0 W/m -3,6 C -6,1 C 17,7 km/h (3 Bft) 100,00 %
26.02.2016 21:30 0,7 C 73 % 1008,7 hPa 0,0 l/m 15,3 km/h (3 Bft) NO 42 0 min 0,000 mm 0,0 UV-I 0 W/m -3,6 C -6,3 C 19,3 km/h (3 Bft) 100,00 %
26.02.2016 21:31 0,7 C 73 % 1008,7 hPa 0,0 l/m 18,4 km/h (3 Bft) NO 55 0 min 0,000 mm 0,0 UV-I 0 W/m -3,6 C -8,0 C 22,5 km/h (4 Bft) 100,00 %
26.02.2016 21:32 0,7 C 73 % 1008,7 hPa 0,0 l/m 14,6 km/h (3 Bft) O 88 0 min 0,000 mm 0,0 UV-I 0 W/m -3,6 C -5,9 C 20,9 km/h (4 Bft) 100,00 %
26.02.2016 21:33 0,7 C 73 % 1008,7 hPa 0,0 l/m 15,2 km/h (3 Bft) NO 55 0 min 0,000 mm 0,0 UV-I 0 W/m -3,6 C -6,3 C 20,9 km/h (4 Bft) 100,00 %
26.02.2016 21:34 0,7 C 73 % 1008,7 hPa 0,0 l/m 16,9 km/h (3 Bft) O-NO 63 0 min 0,000 mm 0,0 UV-I 0 W/m -3,6 C -7,2 C 22,5 km/h (4 Bft) 100,00 %
26.02.2016 21:35 0,7 C 73 % 1008,7 hPa 0,0 l/m 17,8 km/h (3 Bft) O-NO 63 0 min 0,000 mm 0,0 UV-I 0 W/m -3,6 C -7,7 C 22,5 km/h (4 Bft) 100,00 %
26.02.2016 21:36 0,7 C 73 % 1008,6 hPa 0,0 l/m 15,6 km/h (3 Bft) NO 40 0 min 0,000 mm 0,0 UV-I 0 W/m -3,6 C -6,5 C 19,3 km/h (3 Bft) 100,00 %
26.02.2016 21:37 0,7 C 73 % 1008,6 hPa 0,0 l/m 15,1 km/h (3 Bft) NO 47 0 min 0,000 mm 0,0 UV-I 0 W/m -3,6 C -6,2 C 19,3 km/h (3 Bft) 95,83 %
26.02.2016 21:38 0,7 C 73 % 1008,6 hPa 0,0 l/m 14,5 km/h (3 Bft) NO 47 0 min 0,000 mm 0,0 UV-I 0 W/m -3,6 C -5,8 C 16,1 km/h (3 Bft) 100,00 %
26.02.2016 21:39 0,7 C 73 % 1008,6 hPa 0,0 l/m 16,4 km/h (3 Bft) O-NO 57 0 min 0,000 mm 0,0 UV-I 0 W/m -3,6 C -6,9 C 20,9 km/h (4 Bft) 93,33 %
26.02.2016 21:40 0,6 C 73 % 1008,6 hPa 0,0 l/m 11,6 km/h (2 Bft) O-NO 74 0 min 0,000 mm 0,0 UV-I 0 W/m -3,7 C -4,0 C 14,5 km/h (3 Bft) 100,00 %
26.02.2016 21:41 0,6 C 73 % 1008,6 hPa 0,0 l/m 13,9 km/h (3 Bft) NO 51 0 min 0,000 mm 0,0 UV-I 0 W/m -3,7 C -5,6 C 19,3 km/h (3 Bft) 100,00 %
26.02.2016 21:42 0,6 C 74 % 1008,6 hPa 0,0 l/m 14,2 km/h (3 Bft) NO 44 0 min 0,000 mm 0,0 UV-I 0 W/m -3,5 C -5,8 C 17,7 km/h (3 Bft) 100,00 %
26.02.2016 21:43 0,6 C 73 % 1008,6 hPa 0,0 l/m 10,6 km/h (2 Bft) NO 55 0 min 0,000 mm 0,0 UV-I 0 W/m -3,7 C -3,3 C 14,5 km/h (3 Bft) 100,00 %
26.02.2016 21:44 0,6 C 73 % 1008,6 hPa 0,0 l/m 10,7 km/h (2 Bft) NO 46 0 min 0,000 mm 0,0 UV-I 0 W/m -3,7 C -3,3 C 17,7 km/h (3 Bft) 100,00 %
26.02.2016 21:45 0,6 C 74 % 1008,6 hPa 0,0 l/m 11,8 km/h (2 Bft) NO 53 0 min 0,000 mm 0,0 UV-I 0 W/m -3,5 C -4,2 C 16,1 km/h (3 Bft) 100,00 %
26.02.2016 21:46 0,6 C 73 % 1008,6 hPa 0,0 l/m 16,1 km/h (3 Bft) O-NO 61 0 min 0,000 mm 0,0 UV-I 0 W/m -3,7 C -6,9 C 20,9 km/h (4 Bft) 96,30 %
26.02.2016 21:47 0,6 C 73 % 1008,6 hPa 0,0 l/m 15,0 km/h (3 Bft) O-NO 61 0 min 0,000 mm 0,0 UV-I 0 W/m -3,7 C -6,3 C 20,9 km/h (4 Bft) 100,00 %
26.02.2016 21:48 0,6 C 73 % 1008,6 hPa 0,0 l/m 11,9 km/h (2 Bft) O-NO 69 0 min 0,000 mm 0,0 UV-I 0 W/m -3,7 C -4,2 C 16,1 km/h (3 Bft) 100,00 %
26.02.2016 21:49 0,6 C 73 % 1008,6 hPa 0,0 l/m 11,9 km/h (2 Bft) N 9 0 min 0,000 mm 0,0 UV-I 0 W/m -3,7 C -4,2 C 19,3 km/h (3 Bft) 95,83 %
26.02.2016 21:50 0,6 C 73 % 1008,6 hPa 0,0 l/m 11,7 km/h (2 Bft) O-NO 61 0 min 0,000 mm 0,0 UV-I 0 W/m -3,7 C -4,1 C 19,3 km/h (3 Bft) 100,00 %
26.02.2016 21:51 0,6 C 73 % 1008,6 hPa 0,0 l/m 16,1 km/h (3 Bft) O-NO 63 0 min 0,000 mm 0,0 UV-I 0 W/m -3,7 C -6,9 C 22,5 km/h (4 Bft) 97,37 %
26.02.2016 21:52 0,6 C 73 % 1008,6 hPa 0,0 l/m 15,3 km/h (3 Bft) NO 44 0 min 0,000 mm 0,0 UV-I 0 W/m -3,7 C -6,4 C 19,3 km/h (3 Bft) 83,33 %
26.02.2016 21:53 0,5 C 73 % 1008,6 hPa 0,0 l/m 13,8 km/h (3 Bft) NO 51 0 min 0,000 mm 0,0 UV-I 0 W/m -3,8 C -5,6 C 19,3 km/h (3 Bft) 100,00 %
26.02.2016 21:54 0,5 C 74 % 1008,6 hPa 0,0 l/m 10,5 km/h (2 Bft) O-NO 67 0 min 0,000 mm 0,0 UV-I 0 W/m -3,6 C -3,3 C 16,1 km/h (3 Bft) 96,30 %
26.02.2016 21:55 0,5 C 74 % 1008,6 hPa 0,0 l/m 10,9 km/h (2 Bft) O-NO 65 0 min 0,000 mm 0,0 UV-I 0 W/m -3,6 C -3,6 C 16,1 km/h (3 Bft) 94,12 %
26.02.2016 21:56 0,5 C 74 % 1008,6 hPa 0,0 l/m 14,1 km/h (3 Bft) NO 44 0 min 0,000 mm 0,0 UV-I 0 W/m -3,6 C -5,8 C 17,7 km/h (3 Bft) 96,30 %
26.02.2016 21:57 0,5 C 74 % 1008,6 hPa 0,0 l/m 17,3 km/h (3 Bft) NO 52 0 min 0,000 mm 0,0 UV-I 0 W/m -3,6 C -7,7 C 27,4 km/h (4 Bft) 95,65 %
26.02.2016 21:58 0,5 C 74 % 1008,6 hPa 0,0 l/m 17,1 km/h (3 Bft) NO 56 0 min 0,000 mm 0,0 UV-I 0 W/m -3,6 C -7,6 C 20,9 km/h (4 Bft) 100,00 %
26.02.2016 21:59 0,5 C 74 % 1008,5 hPa 0,0 l/m 13,7 km/h (3 Bft) NO 38 0 min 0,000 mm 0,0 UV-I 0 W/m -3,6 C -5,6 C 17,7 km/h (3 Bft) 95,65 %
26.02.2016 22:00 0,5 C 74 % 1008,5 hPa 0,0 l/m 16,3 km/h (3 Bft) O-NO 76 0 min 0,000 mm 0,0 UV-I 0 W/m -3,6 C -7,1 C 20,9 km/h (4 Bft) 100,00 %
26.02.2016 22:01 0,5 C 74 % 1008,5 hPa 0,0 l/m 13,1 km/h (3 Bft) NO 51 0 min 0,026 mm 0,0 UV-I 0 W/m -3,6 C -5,2 C 16,1 km/h (3 Bft) 91,30 %
26.02.2016 22:02 0,4 C 74 % 1008,5 hPa 0,0 l/m 13,5 km/h (3 Bft) N-NO 33 0 min 0,000 mm 0,0 UV-I 0 W/m -3,7 C -5,6 C 17,7 km/h (3 Bft) 100,00 %
26.02.2016 22:03 0,4 C 74 % 1008,5 hPa 0,0 l/m 15,0 km/h (3 Bft) NO 53 0 min 0,000 mm 0,0 UV-I 0 W/m -3,7 C -6,5 C 19,3 km/h (3 Bft) 96,15 %
26.02.2016 22:04 0,4 C 74 % 1008,5 hPa 0,0 l/m 11,6 km/h (2 Bft) NO 55 0 min 0,000 mm 0,0 UV-I 0 W/m -3,7 C -4,3 C 16,1 km/h (3 Bft) 95,83 %
26.02.2016 22:05 0,4 C 75 % 1008,5 hPa 0,0 l/m 10,4 km/h (2 Bft) O-NO 67 0 min 0,000 mm 0,0 UV-I 0 W/m -3,5 C -3,3 C 14,5 km/h (3 Bft) 95,65 %
26.02.2016 22:06 0,4 C 75 % 1008,5 hPa 0,0 l/m 13,5 km/h (3 Bft) O-NO 71 0 min 0,000 mm 0,0 UV-I 0 W/m -3,5 C -5,6 C 17,7 km/h (3 Bft) 93,10 %
26.02.2016 22:07 0,4 C 75 % 1008,5 hPa 0,0 l/m 16,0 km/h (3 Bft) N-NO 26 0 min 0,000 mm 0,0 UV-I 0 W/m -3,5 C -7,1 C 19,3 km/h (3 Bft) 100,00 %
26.02.2016 22:08 0,4 C 75 % 1008,5 hPa 0,0 l/m 18,1 km/h (3 Bft) NO 45 0 min 0,000 mm 0,0 UV-I 0 W/m -3,5 C -8,2 C 24,1 km/h (4 Bft) 93,33 %
26.02.2016 22:09 0,4 C 75 % 1008,5 hPa 0,0 l/m 16,1 km/h (3 Bft) NO 44 0 min 0,000 mm 0,0 UV-I 0 W/m -3,5 C -7,1 C 19,3 km/h (3 Bft) 96,30 %
26.02.2016 22:10 0,4 C 75 % 1008,4 hPa 0,0 l/m 13,4 km/h (3 Bft) NO 37 0 min 0,000 mm 0,0 UV-I 0 W/m -3,5 C -5,5 C 16,1 km/h (3 Bft) 95,65 %
26.02.2016 22:11 0,4 C 75 % 1008,5 hPa 0,0 l/m 16,2 km/h (3 Bft) NO 54 0 min 0,000 mm 0,0 UV-I 0 W/m -3,5 C -7,2 C 24,1 km/h (4 Bft) 96,55 %
26.02.2016 22:12 0,4 C 75 % 1008,4 hPa 0,0 l/m 15,2 km/h (3 Bft) NO 55 0 min 0,000 mm 0,0 UV-I 0 W/m -3,5 C -6,6 C 20,9 km/h (4 Bft) 100,00 %
26.02.2016 22:13 0,4 C 75 % 1008,5 hPa 0,0 l/m 14,3 km/h (3 Bft) NO 49 0 min 0,000 mm 0,0 UV-I 0 W/m -3,5 C -6,1 C 17,7 km/h (3 Bft) 96,67 %
26.02.2016 22:14 0,4 C 75 % 1008,4 hPa 0,0 l/m 17,0 km/h (3 Bft) O-NO 63 0 min 0,000 mm 0,0 UV-I 0 W/m -3,5 C -7,6 C 22,5 km/h (4 Bft) 96,55 %
26.02.2016 22:15 0,4 C 75 % 1008,5 hPa 0,0 l/m 13,0 km/h (3 Bft) NO 44 0 min 0,000 mm 0,0 UV-I 0 W/m -3,5 C -5,2 C 17,7 km/h (3 Bft) 91,67 %
26.02.2016 22:16 0,4 C 75 % 1008,4 hPa 0,0 l/m 13,0 km/h (3 Bft) NO 46 0 min 0,000 mm 0,0 UV-I 0 W/m -3,5 C -5,2 C 17,7 km/h (3 Bft) 100,00 %
26.02.2016 22:17 0,4 C 75 % 1008,4 hPa 0,0 l/m 13,4 km/h (3 Bft) NO 53 0 min 0,000 mm 0,0 UV-I 0 W/m -3,5 C -5,5 C 19,3 km/h (3 Bft) 92,59 %
26.02.2016 22:18 0,3 C 75 % 1008,4 hPa 0,0 l/m 16,2 km/h (3 Bft) NO 54 0 min 0,000 mm 0,0 UV-I 0 W/m -3,6 C -7,3 C 22,5 km/h (4 Bft) 100,00 %
26.02.2016 22:19 0,3 C 75 % 1008,4 hPa 0,0 l/m 16,4 km/h (3 Bft) O-NO 71 0 min 0,000 mm 0,0 UV-I 0 W/m -3,6 C -7,4 C 19,3 km/h (3 Bft) 95,83 %
26.02.2016 22:20 0,3 C 75 % 1008,4 hPa 0,0 l/m 15,1 km/h (3 Bft) O-NO 63 0 min 0,000 mm 0,0 UV-I 0 W/m -3,6 C -6,7 C 17,7 km/h (3 Bft) 93,10 %
26.02.2016 22:21 0,3 C 75 % 1008,4 hPa 0,0 l/m 14,2 km/h (3 Bft) O-NO 63 0 min 0,000 mm 0,0 UV-I 0 W/m -3,6 C -6,1 C 17,7 km/h (3 Bft) 100,00 %
26.02.2016 22:22 0,3 C 75 % 1008,4 hPa 0,0 l/m 14,9 km/h (3 Bft) NO 44 0 min 0,000 mm 0,0 UV-I 0 W/m -3,6 C -6,6 C 19,3 km/h (3 Bft) 92,31 %
26.02.2016 22:23 0,3 C 75 % 1008,4 hPa 0,0 l/m 13,9 km/h (3 Bft) O-NO 57 0 min 0,000 mm 0,0 UV-I 0 W/m -3,6 C -5,9 C 19,3 km/h (3 Bft) 100,00 %
26.02.2016 22:24 0,3 C 75 % 1008,5 hPa 0,0 l/m 15,2 km/h (3 Bft) NO 56 0 min 0,000 mm 0,0 UV-I 0 W/m -3,6 C -6,7 C 20,9 km/h (4 Bft) 96,15 %
26.02.2016 22:25 0,3 C 75 % 1008,4 hPa 0,0 l/m 13,2 km/h (3 Bft) NO 46 0 min 0,000 mm 0,0 UV-I 0 W/m -3,6 C -5,5 C 17,7 km/h (3 Bft) 98,46 %
26.02.2016 22:26 0,3 C 75 % 1008,4 hPa 0,0 l/m 10,3 km/h (2 Bft) O-NO 70 0 min 0,000 mm 0,0 UV-I 0 W/m -3,6 C -3,4 C 17,7 km/h (3 Bft) 97,78 %
26.02.2016 22:27 0,3 C 75 % 1008,4 hPa 0,0 l/m 12,1 km/h (2 Bft) NO 44 0 min 0,000 mm 0,0 UV-I 0 W/m -3,6 C -4,7 C 17,7 km/h (3 Bft) 100,00 %
26.02.2016 22:28 0,3 C 75 % 1008,4 hPa 0,0 l/m 10,8 km/h (2 Bft) NO 51 0 min 0,000 mm 0,0 UV-I 0 W/m -3,6 C -3,8 C 16,1 km/h (3 Bft) 100,00 %
26.02.2016 22:29 0,3 C 76 % 1008,4 hPa 0,0 l/m 11,3 km/h (2 Bft) NO 51 0 min 0,000 mm 0,0 UV-I 0 W/m -3,4 C -4,1 C 16,1 km/h (3 Bft) 100,00 %
26.02.2016 22:30 0,3 C 75 % 1008,3 hPa 0,0 l/m 11,1 km/h (2 Bft) NO 42 0 min 0,000 mm 0,0 UV-I 0 W/m -3,6 C -4,0 C 16,1 km/h (3 Bft) 100,00 %
26.02.2016 22:31 0,3 C 75 % 1008,3 hPa 0,0 l/m 9,4 km/h (2 Bft) NO 49 0 min 0,000 mm 0,0 UV-I 0 W/m -3,6 C -2,6 C 14,5 km/h (3 Bft) 100,00 %
26.02.2016 22:32 0,3 C 76 % 1008,4 hPa 0,0 l/m 10,3 km/h (2 Bft) NO 42 0 min 0,000 mm 0,0 UV-I 0 W/m -3,4 C -3,4 C 14,5 km/h (3 Bft) 100,00 %
26.02.2016 22:33 0,3 C 76 % 1008,4 hPa 0,0 l/m 12,7 km/h (3 Bft) NO 46 0 min 0,000 mm 0,0 UV-I 0 W/m -3,4 C -5,1 C 17,7 km/h (3 Bft) 91,30 %
26.02.2016 22:34 0,2 C 76 % 1008,4 hPa 0,0 l/m 11,9 km/h (2 Bft) NO 55 0 min 0,000 mm 0,0 UV-I 0 W/m -3,5 C -4,7 C 17,7 km/h (3 Bft) 98,46 %
26.02.2016 22:35 0,2 C 76 % 1008,4 hPa 0,0 l/m 12,5 km/h (3 Bft) O-NO 65 0 min 0,000 mm 0,0 UV-I 0 W/m -3,5 C -5,1 C 17,7 km/h (3 Bft) 97,37 %
26.02.2016 22:36 0,2 C 76 % 1008,4 hPa 0,0 l/m 11,3 km/h (2 Bft) O-NO 58 0 min 0,000 mm 0,0 UV-I 0 W/m -3,5 C -4,3 C 17,7 km/h (3 Bft) 100,00 %
26.02.2016 22:37 0,2 C 76 % 1008,4 hPa 0,0 l/m 13,0 km/h (3 Bft) O-NO 63 0 min 0,000 mm 0,0 UV-I 0 W/m -3,5 C -5,5 C 17,7 km/h (3 Bft) 100,00 %
26.02.2016 22:38 0,2 C 76 % 1008,4 hPa 0,0 l/m 11,7 km/h (2 Bft) O-NO 69 0 min 0,000 mm 0,0 UV-I 0 W/m -3,5 C -4,6 C 14,5 km/h (3 Bft) 100,00 %
26.02.2016 22:39 0,3 C 76 % 1008,4 hPa 0,0 l/m 6,8 km/h (2 Bft) NO 50 0 min 0,000 mm 0,0 UV-I 0 W/m -3,4 C -0,1 C 9,7 km/h (2 Bft) 96,15 %
26.02.2016 22:40 0,3 C 76 % 1008,4 hPa 0,0 l/m 10,5 km/h (2 Bft) NO 45 0 min 0,000 mm 0,0 UV-I 0 W/m -3,4 C -3,5 C 17,7 km/h (3 Bft) 100,00 %
26.02.2016 22:41 0,2 C 76 % 1008,4 hPa 0,0 l/m 14,4 km/h (3 Bft) NO 49 0 min 0,000 mm 0,0 UV-I 0 W/m -3,5 C -6,4 C 17,7 km/h (3 Bft) 100,00 %
26.02.2016 22:42 0,2 C 76 % 1008,4 hPa 0,0 l/m 13,1 km/h (3 Bft) O-NO 58 0 min 0,000 mm 0,0 UV-I 0 W/m -3,5 C -5,5 C 17,7 km/h (3 Bft) 100,00 %
26.02.2016 22:43 0,3 C 76 % 1008,4 hPa 0,0 l/m 10,0 km/h (2 Bft) O-NO 57 0 min 0,000 mm 0,0 UV-I 0 W/m -3,4 C -3,1 C 14,5 km/h (3 Bft) 100,00 %
26.02.2016 22:44 0,2 C 76 % 1008,4 hPa 0,0 l/m 11,0 km/h (2 Bft) N-NO 33 0 min 0,000 mm 0,0 UV-I 0 W/m -3,5 C -4,0 C 14,5 km/h (3 Bft) 100,00 %
26.02.2016 22:45 0,3 C 76 % 1008,4 hPa 0,0 l/m 7,7 km/h (2 Bft) N-NO 33 0 min 0,000 mm 0,0 UV-I 0 W/m -3,4 C -1,0 C 12,9 km/h (3 Bft) 100,00 %
26.02.2016 22:46 0,3 C 76 % 1008,4 hPa 0,0 l/m 13,9 km/h (3 Bft) NO 48 0 min 0,000 mm 0,0 UV-I 0 W/m -3,4 C -5,9 C 16,1 km/h (3 Bft) 100,00 %
26.02.2016 22:47 0,2 C 76 % 1008,4 hPa 0,0 l/m 14,3 km/h (3 Bft) NO 54 0 min 0,000 mm 0,0 UV-I 0 W/m -3,5 C -6,3 C 17,7 km/h (3 Bft) 100,00 %
26.02.2016 22:48 0,2 C 76 % 1008,4 hPa 0,0 l/m 12,3 km/h (3 Bft) O-NO 76 0 min 0,000 mm 0,0 UV-I 0 W/m -3,5 C -5,0 C 16,1 km/h (3 Bft) 100,00 %
26.02.2016 22:49 0,2 C 76 % 1008,4 hPa 0,0 l/m 11,7 km/h (2 Bft) O-NO 63 0 min 0,000 mm 0,0 UV-I 0 W/m -3,5 C -4,6 C 16,1 km/h (3 Bft) 100,00 %
26.02.2016 22:50 0,2 C 76 % 1008,4 hPa 0,0 l/m 14,4 km/h (3 Bft) O-NO 59 0 min 0,000 mm 0,0 UV-I 0 W/m -3,5 C -6,4 C 17,7 km/h (3 Bft) 100,00 %
26.02.2016 22:51 0,2 C 76 % 1008,5 hPa 0,0 l/m 13,1 km/h (3 Bft) O-NO 65 0 min 0,000 mm 0,0 UV-I 0 W/m -3,5 C -5,5 C 17,7 km/h (3 Bft) 100,00 %
26.02.2016 22:52 0,2 C 76 % 1008,4 hPa 0,0 l/m 8,9 km/h (2 Bft) NO 47 0 min 0,000 mm 0,0 UV-I 0 W/m -3,5 C -2,3 C 14,5 km/h (3 Bft) 97,73 %
26.02.2016 22:53 0,2 C 76 % 1008,5 hPa 0,0 l/m 11,6 km/h (2 Bft) NO 39 0 min 0,000 mm 0,0 UV-I 0 W/m -3,5 C -4,5 C 14,5 km/h (3 Bft) 100,00 %
26.02.2016 22:54 0,2 C 76 % 1008,5 hPa 0,0 l/m 14,5 km/h (3 Bft) O-NO 67 0 min 0,000 mm 0,0 UV-I 0 W/m -3,5 C -6,4 C 20,9 km/h (4 Bft) 96,55 %
26.02.2016 22:55 0,2 C 77 % 1008,5 hPa 0,0 l/m 12,2 km/h (2 Bft) NO 56 0 min 0,000 mm 0,0 UV-I 0 W/m -3,3 C -4,9 C 16,1 km/h (3 Bft) 100,00 %
26.02.2016 22:56 0,2 C 76 % 1008,6 hPa 0,0 l/m 9,4 km/h (2 Bft) O-NO 65 0 min 0,000 mm 0,0 UV-I 0 W/m -3,5 C -2,7 C 16,1 km/h (3 Bft) 100,00 %
26.02.2016 22:57 0,2 C 77 % 1008,5 hPa 0,0 l/m 16,5 km/h (3 Bft) O-NO 76 0 min 0,000 mm 0,0 UV-I 0 W/m -3,3 C -7,6 C 24,1 km/h (4 Bft) 100,00 %
26.02.2016 22:58 0,2 C 76 % 1008,6 hPa 0,0 l/m 14,4 km/h (3 Bft) O-NO 58 0 min 0,000 mm 0,0 UV-I 0 W/m -3,5 C -6,4 C 20,9 km/h (4 Bft) 100,00 %
26.02.2016 22:59 0,2 C 76 % 1008,5 hPa 0,0 l/m 12,6 km/h (3 Bft) NO 54 0 min 0,000 mm 0,0 UV-I 0 W/m -3,5 C -5,2 C 16,1 km/h (3 Bft) 100,00 %
26.02.2016 23:00 0,2 C 76 % 1008,5 hPa 0,0 l/m 14,3 km/h (3 Bft) O-NO 64 0 min 0,000 mm 0,0 UV-I 0 W/m -3,5 C -6,3 C 20,9 km/h (4 Bft) 100,00 %
26.02.2016 23:01 0,3 C 76 % 1008,5 hPa 0,0 l/m 13,1 km/h (3 Bft) NO 40 0 min 0,025 mm 0,0 UV-I 0 W/m -3,4 C -5,4 C 17,7 km/h (3 Bft) 100,00 %
26.02.2016 23:02 0,3 C 76 % 1008,5 hPa 0,0 l/m 11,2 km/h (2 Bft) O-NO 78 0 min 0,000 mm 0,0 UV-I 0 W/m -3,4 C -4,1 C 16,1 km/h (3 Bft) 96,15 %
26.02.2016 23:03 0,3 C 76 % 1008,5 hPa 0,0 l/m 10,5 km/h (2 Bft) NO 40 0 min 0,000 mm 0,0 UV-I 0 W/m -3,4 C -3,5 C 16,1 km/h (3 Bft) 100,00 %
26.02.2016 23:04 0,3 C 76 % 1008,5 hPa 0,0 l/m 10,8 km/h (2 Bft) NO 36 0 min 0,000 mm 0,0 UV-I 0 W/m -3,4 C -3,8 C 14,5 km/h (3 Bft) 100,00 %
26.02.2016 23:05 0,3 C 76 % 1008,6 hPa 0,0 l/m 11,3 km/h (2 Bft) O-NO 77 0 min 0,000 mm 0,0 UV-I 0 W/m -3,4 C -4,1 C 14,5 km/h (3 Bft) 100,00 %
26.02.2016 23:06 0,3 C 76 % 1008,6 hPa 0,0 l/m 9,1 km/h (2 Bft) NO 56 0 min 0,000 mm 0,0 UV-I 0 W/m -3,4 C -2,4 C 14,5 km/h (3 Bft) 96,15 %
26.02.2016 23:07 0,3 C 76 % 1008,5 hPa 0,0 l/m 11,5 km/h (2 Bft) NO 49 0 min 0,000 mm 0,0 UV-I 0 W/m -3,4 C -4,3 C 16,1 km/h (3 Bft) 93,33 %
26.02.2016 23:08 0,3 C 76 % 1008,5 hPa 0,0 l/m 11,5 km/h (2 Bft) O-NO 71 0 min 0,000 mm 0,0 UV-I 0 W/m -3,4 C -4,3 C 17,7 km/h (3 Bft) 100,00 %
26.02.2016 23:09 0,3 C 76 % 1008,5 hPa 0,0 l/m 12,2 km/h (2 Bft) NO 45 0 min 0,000 mm 0,0 UV-I 0 W/m -3,4 C -4,8 C 16,1 km/h (3 Bft) 96,30 %
26.02.2016 23:10 0,3 C 76 % 1008,6 hPa 0,0 l/m 10,9 km/h (2 Bft) O-NO 62 0 min 0,000 mm 0,0 UV-I 0 W/m -3,4 C -3,8 C 14,5 km/h (3 Bft) 93,33 %
26.02.2016 23:11 0,3 C 76 % 1008,5 hPa 0,0 l/m 9,0 km/h (2 Bft) O-NO 66 0 min 0,000 mm 0,0 UV-I 0 W/m -3,4 C -2,3 C 12,9 km/h (3 Bft) 100,00 %
26.02.2016 23:12 0,2 C 76 % 1008,5 hPa 0,0 l/m 12,0 km/h (2 Bft) O-NO 62 0 min 0,000 mm 0,0 UV-I 0 W/m -3,5 C -4,8 C 16,1 km/h (3 Bft) 100,00 %
26.02.2016 23:13 0,2 C 76 % 1008,6 hPa 0,0 l/m 11,3 km/h (2 Bft) O-NO 65 0 min 0,000 mm 0,0 UV-I 0 W/m -3,5 C -4,3 C 14,5 km/h (3 Bft) 96,15 %
26.02.2016 23:14 0,2 C 76 % 1008,6 hPa 0,0 l/m 9,4 km/h (2 Bft) O-NO 68 0 min 0,000 mm 0,0 UV-I 0 W/m -3,5 C -2,7 C 12,9 km/h (3 Bft) 100,00 %
26.02.2016 23:15 0,2 C 77 % 1008,5 hPa 0,0 l/m 8,5 km/h (2 Bft) NO 38 0 min 0,000 mm 0,0 UV-I 0 W/m -3,3 C -1,9 C 12,9 km/h (3 Bft) 100,00 %
26.02.2016 23:16 0,2 C 77 % 1008,6 hPa 0,0 l/m 12,9 km/h (3 Bft) O-NO 60 0 min 0,000 mm 0,0 UV-I 0 W/m -3,3 C -5,4 C 17,7 km/h (3 Bft) 100,00 %
26.02.2016 23:17 0,2 C 76 % 1008,5 hPa 0,0 l/m 12,2 km/h (2 Bft) NO 43 0 min 0,000 mm 0,0 UV-I 0 W/m -3,5 C -4,9 C 16,1 km/h (3 Bft) 100,00 %
26.02.2016 23:18 0,2 C 77 % 1008,5 hPa 0,0 l/m 9,3 km/h (2 Bft) NO 53 0 min 0,000 mm 0,0 UV-I 0 W/m -3,3 C -2,6 C 12,9 km/h (3 Bft) 100,00 %
26.02.2016 23:19 0,2 C 77 % 1008,5 hPa 0,0 l/m 9,3 km/h (2 Bft) NO 54 0 min 0,000 mm 0,0 UV-I 0 W/m -3,3 C -2,6 C 14,5 km/h (3 Bft) 96,88 %
26.02.2016 23:20 0,2 C 77 % 1008,5 hPa 0,0 l/m 10,6 km/h (2 Bft) NO 52 0 min 0,000 mm 0,0 UV-I 0 W/m -3,3 C -3,7 C 14,5 km/h (3 Bft) 100,00 %
26.02.2016 23:21 0,2 C 77 % 1008,5 hPa 0,0 l/m 13,9 km/h (3 Bft) NO 48 0 min 0,000 mm 0,0 UV-I 0 W/m -3,3 C -6,1 C 19,3 km/h (3 Bft) 100,00 %
26.02.2016 23:22 0,2 C 77 % 1008,5 hPa 0,0 l/m 9,8 km/h (2 Bft) O-NO 59 0 min 0,000 mm 0,0 UV-I 0 W/m -3,3 C -3,1 C 14,5 km/h (3 Bft) 100,00 %
26.02.2016 23:23 0,2 C 77 % 1008,5 hPa 0,0 l/m 12,1 km/h (2 Bft) O-NO 65 0 min 0,000 mm 0,0 UV-I 0 W/m -3,3 C -4,8 C 16,1 km/h (3 Bft) 95,65 %
26.02.2016 23:24 0,2 C 77 % 1008,5 hPa 0,0 l/m 14,5 km/h (3 Bft) NO 40 0 min 0,000 mm 0,0 UV-I 0 W/m -3,3 C -6,4 C 19,3 km/h (3 Bft) 98,48 %
26.02.2016 23:25 0,2 C 77 % 1008,5 hPa 0,0 l/m 10,2 km/h (2 Bft) O 80 0 min 0,000 mm 0,0 UV-I 0 W/m -3,3 C -3,4 C 14,5 km/h (3 Bft) 100,00 %
26.02.2016 23:26 0,2 C 77 % 1008,6 hPa 0,0 l/m 12,2 km/h (2 Bft) O 96 0 min 0,000 mm 0,0 UV-I 0 W/m -3,3 C -4,9 C 16,1 km/h (3 Bft) 100,00 %
26.02.2016 23:27 0,2 C 77 % 1008,6 hPa 0,0 l/m 13,8 km/h (3 Bft) O-NO 61 0 min 0,000 mm 0,0 UV-I 0 W/m -3,3 C -6,0 C 19,3 km/h (3 Bft) 100,00 %
26.02.2016 23:28 0,2 C 76 % 1008,6 hPa 0,0 l/m 12,5 km/h (3 Bft) O-NO 65 0 min 0,000 mm 0,0 UV-I 0 W/m -3,5 C -5,1 C 17,7 km/h (3 Bft) 100,00 %
26.02.2016 23:29 0,2 C 76 % 1008,6 hPa 0,0 l/m 11,9 km/h (2 Bft) NO 50 0 min 0,000 mm 0,0 UV-I 0 W/m -3,5 C -4,7 C 16,1 km/h (3 Bft) 100,00 %
26.02.2016 23:30 0,2 C 76 % 1008,6 hPa 0,0 l/m 12,6 km/h (3 Bft) NO 39 0 min 0,000 mm 0,0 UV-I 0 W/m -3,5 C -5,2 C 20,9 km/h (4 Bft) 100,00 %
26.02.2016 23:31 0,2 C 76 % 1008,5 hPa 0,0 l/m 9,2 km/h (2 Bft) NO 50 0 min 0,000 mm 0,0 UV-I 0 W/m -3,5 C -2,5 C 16,1 km/h (3 Bft) 100,00 %
26.02.2016 23:32 0,2 C 76 % 1008,6 hPa 0,0 l/m 13,4 km/h (3 Bft) O 84 0 min 0,000 mm 0,0 UV-I 0 W/m -3,5 C -5,7 C 17,7 km/h (3 Bft) 96,55 %
26.02.2016 23:33 0,2 C 76 % 1008,6 hPa 0,0 l/m 11,2 km/h (2 Bft) NO 55 0 min 0,000 mm 0,0 UV-I 0 W/m -3,5 C -4,2 C 16,1 km/h (3 Bft) 100,00 %
26.02.2016 23:34 0,2 C 76 % 1008,6 hPa 0,0 l/m 14,6 km/h (3 Bft) O-NO 73 0 min 0,000 mm 0,0 UV-I 0 W/m -3,5 C -6,5 C 20,9 km/h (4 Bft) 100,00 %
26.02.2016 23:35 0,2 C 76 % 1008,6 hPa 0,0 l/m 16,4 km/h (3 Bft) NO 41 0 min 0,000 mm 0,0 UV-I 0 W/m -3,5 C -7,5 C 20,9 km/h (4 Bft) 96,30 %
26.02.2016 23:36 0,2 C 76 % 1008,6 hPa 0,0 l/m 12,5 km/h (3 Bft) O-NO 57 0 min 0,000 mm 0,0 UV-I 0 W/m -3,5 C -5,1 C 16,1 km/h (3 Bft) 100,00 %
26.02.2016 23:37 0,2 C 76 % 1008,6 hPa 0,0 l/m 10,8 km/h (2 Bft) NO 44 0 min 0,000 mm 0,0 UV-I 0 W/m -3,5 C -3,9 C 16,1 km/h (3 Bft) 100,00 %
26.02.2016 23:38 0,3 C 76 % 1008,6 hPa 0,0 l/m 10,5 km/h (2 Bft) NO 55 0 min 0,000 mm 0,0 UV-I 0 W/m -3,4 C -3,5 C 11,3 km/h (2 Bft) 100,00 %
26.02.2016 23:39 0,2 C 76 % 1008,6 hPa 0,0 l/m 13,1 km/h (3 Bft) O-NO 63 0 min 0,000 mm 0,0 UV-I 0 W/m -3,5 C -5,5 C 17,7 km/h (3 Bft) 100,00 %
26.02.2016 23:40 0,3 C 76 % 1008,6 hPa 0,0 l/m 13,7 km/h (3 Bft) O-NO 57 0 min 0,000 mm 0,0 UV-I 0 W/m -3,4 C -5,8 C 17,7 km/h (3 Bft) 96,15 %
26.02.2016 23:41 0,3 C 76 % 1008,5 hPa 0,0 l/m 16,2 km/h (3 Bft) O-NO 67 0 min 0,000 mm 0,0 UV-I 0 W/m -3,4 C -7,3 C 20,9 km/h (4 Bft) 100,00 %
26.02.2016 23:42 0,3 C 77 % 1008,5 hPa 0,0 l/m 12,9 km/h (3 Bft) O-NO 59 0 min 0,000 mm 0,0 UV-I 0 W/m -3,2 C -5,3 C 17,7 km/h (3 Bft) 100,00 %
26.02.2016 23:43 0,2 C 76 % 1008,5 hPa 0,0 l/m 13,5 km/h (3 Bft) O-NO 75 0 min 0,000 mm 0,0 UV-I 0 W/m -3,5 C -5,8 C 16,1 km/h (3 Bft) 100,00 %
26.02.2016 23:44 0,2 C 76 % 1008,5 hPa 0,0 l/m 16,2 km/h (3 Bft) NO 55 0 min 0,000 mm 0,0 UV-I 0 W/m -3,5 C -7,4 C 20,9 km/h (4 Bft) 100,00 %
26.02.2016 23:45 0,3 C 76 % 1008,4 hPa 0,0 l/m 12,3 km/h (3 Bft) NO 48 0 min 0,000 mm 0,0 UV-I 0 W/m -3,4 C -4,9 C 19,3 km/h (3 Bft) 92,31 %
26.02.2016 23:46 0,2 C 76 % 1008,4 hPa 0,0 l/m 13,8 km/h (3 Bft) NO 48 0 min 0,000 mm 0,0 UV-I 0 W/m -3,5 C -6,0 C 17,7 km/h (3 Bft) 100,00 %
26.02.2016 23:47 0,3 C 76 % 1008,5 hPa 0,0 l/m 13,4 km/h (3 Bft) O 80 0 min 0,000 mm 0,0 UV-I 0 W/m -3,4 C -5,6 C 16,1 km/h (3 Bft) 93,75 %
26.02.2016 23:48 0,2 C 76 % 1008,4 hPa 0,0 l/m 15,9 km/h (3 Bft) O-NO 57 0 min 0,000 mm 0,0 UV-I 0 W/m -3,5 C -7,3 C 22,5 km/h (4 Bft) 100,00 %
26.02.2016 23:49 0,3 C 76 % 1008,4 hPa 0,0 l/m 16,4 km/h (3 Bft) O-NO 59 0 min 0,000 mm 0,0 UV-I 0 W/m -3,4 C -7,4 C 20,9 km/h (4 Bft) 100,00 %
26.02.2016 23:50 0,3 C 76 % 1008,4 hPa 0,0 l/m 14,1 km/h (3 Bft) NO 46 0 min 0,000 mm 0,0 UV-I 0 W/m -3,4 C -6,1 C 17,7 km/h (3 Bft) 100,00 %
26.02.2016 23:51 0,3 C 76 % 1008,4 hPa 0,0 l/m 18,4 km/h (3 Bft) O-NO 75 0 min 0,000 mm 0,0 UV-I 0 W/m -3,4 C -8,5 C 24,1 km/h (4 Bft) 100,00 %
26.02.2016 23:52 0,2 C 76 % 1008,4 hPa 0,0 l/m 17,1 km/h (3 Bft) NO 54 0 min 0,000 mm 0,0 UV-I 0 W/m -3,5 C -7,9 C 20,9 km/h (4 Bft) 91,67 %
26.02.2016 23:53 0,3 C 76 % 1008,4 hPa 0,0 l/m 12,5 km/h (3 Bft) NO 55 0 min 0,000 mm 0,0 UV-I 0 W/m -3,4 C -5,0 C 17,7 km/h (3 Bft) 100,00 %
26.02.2016 23:54 0,3 C 76 % 1008,4 hPa 0,0 l/m 16,1 km/h (3 Bft) O-NO 72 0 min 0,000 mm 0,0 UV-I 0 W/m -3,4 C -7,3 C 20,9 km/h (4 Bft) 88,89 %
26.02.2016 23:55 0,3 C 76 % 1008,4 hPa 0,0 l/m 12,7 km/h (3 Bft) O-NO 65 0 min 0,000 mm 0,0 UV-I 0 W/m -3,4 C -5,1 C 17,7 km/h (3 Bft) 98,48 %
26.02.2016 23:56 0,3 C 76 % 1008,4 hPa 0,0 l/m 14,8 km/h (3 Bft) NO 40 0 min 0,000 mm 0,0 UV-I 0 W/m -3,4 C -6,5 C 19,3 km/h (3 Bft) 95,12 %
26.02.2016 23:57 0,2 C 76 % 1008,4 hPa 0,0 l/m 17,3 km/h (3 Bft) O-NO 67 0 min 0,000 mm 0,0 UV-I 0 W/m -3,5 C -8,0 C 20,9 km/h (4 Bft) 92,31 %
26.02.2016 23:58 0,2 C 76 % 1008,4 hPa 0,0 l/m 15,4 km/h (3 Bft) O-NO 61 0 min 0,000 mm 0,0 UV-I 0 W/m -3,5 C -7,0 C 19,3 km/h (3 Bft) 100,00 %
26.02.2016 23:59 0,2 C 76 % 1008,4 hPa 0,0 l/m 14,3 km/h (3 Bft) O-NO 77 0 min 0,000 mm 0,0 UV-I 0 W/m -3,5 C -6,3 C 19,3 km/h (3 Bft) 92,86 %
_ Min-Zeit 06:19 13:29 22:30 - 12:01 - - - - - - 13:29 20:57 12:01 21:52
Minimum _ 0,0 C 50 % 1008,3 hPa - 0,0 km/h (0 Bft) - - - - - - -4,9 C -8,9 C 0,0 km/h (0 Bft) 83,33 %
_ Max-Zeit 14:28 04:48 08:23 09:02 20:57 - - 16:35 14:01 12:08 12:10 09:32 14:05 20:50 00:00
Maximum _ 5,7 C 94 % 1015,3 hPa 0,2 l/m 21,6 km/h
NO (4 Bft)
- - 5 min 0,229 mm 1,9 UV-I 689 W/m -0,0 C 5,6 C 29,0 km/h
O-NO (5 Bft)
100,00 %
Durchschnitt _ 2,0 C 76 % 1012,6 hPa #0,2 l/m 7,2 km/h (2 Bft) NO - #6:03 h #1,397 mm 1,2 UV-I 273 W/m -2,0 C 0,3 C 10,4 km/h (2 Bft) 98,47 %